[[{"header":{"parameterUnit":"m.s-1","parameterCategory":1,"la1":30.6,"la2":28.766,"lo1":-90.7593,"lo2":-88.6598,"dy":0.0162,"dx":0.0183,"nx":116,"ny":114,"refTime":"2024-06-06T06:00:00:Z","depth":0,"parameterNumber":2,"parameterNumberName":"U-component_of_WINDS"},"data":[0.0,0.0,0.0,0.0,0.0,0.0,0.0,0.0,0.0,0.0,0.0,0.0,0.0,0.0,0.0,0.0,0.0,0.0,0.0,0.0,0.0,0.0,0.0,0.0,0.0,0.0,0.0,0.0,0.0,0.0,0.0,0.0,0.0,0.0,0.0,0.0,0.0,0.0,0.0,0.0,0.0,0.0,0.0,0.0,0.0,0.0,0.0,0.0,0.0,0.0,0.0,0.0,0.0,0.0,0.0,0.0,0.0,0.0,0.0,0.0,0.0,0.0,0.0,0.0,0.0,0.0,0.0,0.0,0.0,0.0,0.0,0.0,0.0,0.0,0.0,0.0,0.0,0.0,0.0,0.0,0.0,0.0,0.0,0.0,0.0,0.0,0.0,0.0,0.0,0.0,0.0,0.0,0.0,0.0,0.0,0.0,0.0,0.0,0.0,0.0,0.0,0.0,0.0,0.0,0.0,0.0,0.0,0.0,0.0,0.0,0.0,0.0,0.0,0.0,0.0,0.0,0.0,0.0,0.0,0.0,0.0,0.0,0.0,0.0,0.0,0.0,0.0,0.0,0.0,0.0,0.0,0.0,0.0,0.0,0.0,0.0,0.0,0.0,0.0,0.0,0.0,0.0,0.0,0.0,0.0,0.0,0.0,0.0,0.0,0.0,0.0,0.0,0.0,0.0,0.0,0.0,0.0,0.0,0.0,0.0,0.0,0.0,0.0,0.0,0.0,0.0,0.0,0.0,0.0,0.0,0.0,0.0,0.0,0.0,0.0,0.0,0.0,0.0,0.0,0.0,0.0,0.0,0.0,0.0,0.0,0.0,0.0,0.0,0.0,0.0,0.0,0.0,0.0,0.0,0.0,0.0,0.0,0.0,0.0,0.0,0.0,0.0,0.0,0.0,0.0,0.0,0.0,0.0,0.0,0.0,0.0,0.0,0.0,0.0,0.0,0.0,0.0,0.0,0.0,0.0,0.0,0.0,0.0,0.0,0.0,0.0,0.0,0.0,0.0,0.0,0.0,0.0,0.0,0.0,0.0,0.0,0.0,0.0,0.0,0.0,0.0,0.0,0.0,0.0,0.0,0.0,0.0,0.0,0.0,0.0,0.0,0.0,0.0,0.0,0.0,0.0,0.0,0.0,0.0,0.0,0.0,0.0,0.0,0.0,0.0,0.0,0.0,0.0,0.0,0.0,0.0,0.0,0.0,0.0,0.0,0.0,0.0,0.0,0.0,0.0,0.0,0.0,0.0,0.0,0.0,0.0,0.0,0.0,0.0,0.0,0.0,0.0,0.0,0.0,0.0,0.0,0.0,0.0,0.0,0.0,0.0,0.0,0.0,0.0,0.0,0.0,0.0,0.0,0.0,0.0,0.0,0.0,0.0,0.0,0.0,0.0,0.0,0.0,0.0,0.0,0.0,0.0,0.0,0.0,0.0,0.0,0.0,0.0,0.0,0.0,0.0,0.0,0.0,0.0,0.0,0.0,0.0,0.0,0.0,0.0,0.0,0.0,0.0,0.0,0.0,0.0,0.0,0.0,0.0,0.0,0.0,0.0,0.0,0.0,0.0,0.0,0.0,0.0,0.0,0.0,0.0,0.0,0.0,0.0,0.0,0.0,0.0,0.0,0.0,0.0,0.0,0.0,0.0,0.0,0.0,0.0,0.0,0.0,0.0,0.0,0.0,0.0,0.0,0.0,0.0,0.0,0.0,0.0,0.0,0.0,0.0,0.0,0.0,0.0,0.0,0.0,0.0,0.0,0.0,0.0,0.0,0.0,0.0,0.0,0.0,0.0,0.0,0.0,0.0,0.0,0.0,0.0,0.0,0.0,0.0,0.0,0.0,0.0,0.0,0.0,0.0,0.0,0.0,0.0,0.0,0.0,0.0,0.0,0.0,0.0,0.0,0.0,0.0,0.0,0.0,0.0,0.0,0.0,0.0,0.0,0.0,0.0,0.0,0.0,0.0,0.0,0.0,0.0,0.0,0.0,0.0,0.0,0.0,0.0,0.0,0.0,0.0,0.0,0.0,0.0,0.0,0.0,0.0,0.0,0.0,0.0,0.0,0.0,0.0,0.0,0.0,0.0,0.0,0.0,0.0,0.0,0.0,0.0,0.0,0.0,0.0,0.0,0.0,0.0,0.0,0.0,0.0,0.0,0.0,0.0,0.0,0.0,0.0,0.0,0.0,0.0,0.0,0.0,0.0,0.0,0.0,0.0,0.0,0.0,0.0,0.0,0.0,0.0,0.0,0.0,0.0,0.0,0.0,0.0,0.0,0.0,0.0,0.0,0.0,0.0,0.0,0.0,0.0,0.0,0.0,0.0,0.0,0.0,0.0,0.0,0.0,0.0,0.0,0.0,0.0,0.0,0.0,0.0,0.0,0.0,0.0,0.0,0.0,0.0,0.0,0.0,0.0,0.0,0.0,0.0,0.0,0.0,0.0,0.0,0.0,0.0,0.0,0.0,0.0,0.0,0.0,0.0,0.0,0.0,0.0,0.0,0.0,0.0,0.0,0.0,0.0,0.0,0.0,0.0,0.0,0.0,0.0,0.0,0.0,0.0,0.0,0.0,0.0,0.0,0.0,0.0,0.0,0.0,0.0,0.0,0.0,0.0,0.0,0.0,0.0,0.0,0.0,0.0,0.0,0.0,0.0,0.0,0.0,0.0,0.0,0.0,0.0,0.0,0.0,0.0,0.0,0.0,0.0,0.0,0.0,0.0,0.0,0.0,0.0,0.0,0.0,0.0,0.0,0.0,0.0,0.0,0.0,0.0,0.0,0.0,0.0,0.0,0.0,0.0,0.0,0.0,0.0,0.0,0.0,0.0,0.0,0.0,0.0,0.0,0.0,0.0,0.0,0.0,0.0,0.0,0.0,0.0,0.0,0.0,0.0,0.0,0.0,0.0,0.0,0.0,0.0,0.0,0.0,0.0,0.0,0.0,0.0,0.0,0.0,0.0,0.0,0.0,0.0,0.0,0.0,0.0,0.0,0.0,0.0,0.0,0.0,0.0,0.0,0.0,0.0,0.0,0.0,0.0,0.0,0.0,0.0,0.0,0.0,0.0,0.0,0.0,0.0,0.0,0.0,0.0,0.0,0.0,0.0,0.0,0.0,0.0,0.0,0.0,0.0,0.0,0.0,0.0,0.0,0.0,0.0,0.0,0.0,0.0,0.0,0.0,0.0,0.0,0.0,0.0,0.0,0.0,0.0,0.0,0.0,0.0,0.0,0.0,0.0,0.0,0.0,0.0,0.0,0.0,0.0,0.0,0.0,0.0,0.0,0.0,0.0,0.0,0.0,0.0,0.0,0.0,0.0,0.0,0.0,0.0,0.0,0.0,0.0,0.0,0.0,0.0,0.0,0.0,0.0,0.0,0.0,0.0,0.0,0.0,0.0,0.0,0.0,0.0,0.0,0.0,0.0,0.0,0.0,0.0,0.0,0.0,0.0,0.0,0.0,0.0,0.0,0.0,0.0,0.0,0.0,0.0,0.0,0.0,0.0,0.0,0.0,0.0,0.0,0.0,0.0,0.0,0.0,0.0,0.0,0.0,0.0,0.0,0.0,0.0,0.0,0.0,0.0,0.0,0.0,0.0,0.0,0.0,0.0,0.0,0.0,0.0,0.0,0.0,0.0,0.0,0.0,0.0,0.0,0.0,0.0,0.0,0.0,0.0,0.0,0.0,0.0,0.0,0.0,0.0,0.0,0.0,0.0,0.0,0.0,0.0,0.0,0.0,0.0,0.0,0.0,0.0,0.0,0.0,0.0,0.0,0.0,0.0,0.0,0.0,0.0,0.0,0.0,0.0,0.0,0.0,0.0,0.0,0.0,0.0,0.0,0.0,0.0,0.0,0.0,0.0,0.0,0.0,0.0,0.0,0.0,0.0,0.0,0.0,0.0,0.0,0.0,0.0,0.0,0.0,0.0,0.0,0.0,0.0,0.0,0.0,0.0,0.0,0.0,0.0,0.0,0.0,0.0,0.0,0.0,0.0,0.0,0.0,0.0,0.0,0.0,0.0,0.0,0.0,0.0,0.0,0.0,0.0,0.0,0.0,0.0,0.0,0.0,0.0,0.0,0.0,0.0,0.0,0.0,0.0,0.0,0.0,0.0,0.0,0.0,0.0,0.0,0.0,0.0,0.0,0.0,0.0,0.0,0.0,0.0,0.0,0.0,0.0,0.0,0.0,0.0,0.0,0.0,0.0,0.0,0.0,0.0,0.0,0.0,0.0,0.0,0.0,0.0,0.0,0.0,0.0,0.0,0.0,0.0,0.0,0.0,0.0,0.0,0.0,0.0,0.0,0.0,0.0,0.0,0.0,0.0,0.0,0.0,0.0,0.0,0.0,0.0,0.0,0.0,0.0,0.0,0.0,0.0,0.0,0.0,0.0,0.0,0.0,0.0,0.0,0.0,0.0,0.0,0.0,0.0,0.0,0.0,0.0,0.0,0.0,0.0,0.0,0.0,0.0,0.0,0.0,0.0,0.0,0.0,0.0,0.0,0.0,0.0,0.0,0.0,0.0,0.0,0.0,0.0,0.0,0.0,0.0,0.0,0.0,0.0,0.0,0.0,0.0,0.0,0.0,0.0,0.0,0.0,0.0,0.0,0.0,0.0,0.0,0.0,0.0,0.0,0.0,0.0,0.0,0.0,0.0,0.0,0.0,0.0,0.0,0.0,0.0,0.0,0.0,0.0,0.0,0.0,0.0,0.0,0.0,0.0,0.0,0.0,0.0,0.0,0.0,0.0,0.0,0.0,0.0,0.0,0.0,0.0,0.0,0.0,0.0,0.0,0.0,0.0,0.0,0.0,0.0,0.0,0.0,0.0,0.0,0.0,0.0,0.0,0.0,0.0,0.0,0.0,0.0,0.0,0.0,0.0,0.0,0.0,0.0,0.0,0.0,0.0,0.0,0.0,0.0,0.0,0.0,0.0,0.0,0.0,0.0,0.0,0.0,0.0,0.0,0.0,0.0,0.0,0.0,0.0,0.0,0.0,0.0,0.0,0.0,0.0,0.0,0.0,0.0,0.0,0.0,0.0,0.0,0.0,0.0,0.0,0.0,0.0,0.0,0.0,0.0,0.0,0.0,0.0,0.0,0.0,0.0,0.0,0.0,0.0,0.0,0.0,0.0,0.0,0.0,0.0,0.0,0.0,0.0,0.0,0.0,0.0,0.0,0.0,0.0,0.0,0.0,0.0,0.0,0.0,0.0,0.0,0.0,0.0,0.0,0.0,0.0,0.0,0.0,0.0,0.0,0.0,0.0,0.0,0.0,0.0,0.0,0.0,0.0,0.0,0.0,0.0,0.0,0.0,0.0,0.0,0.0,0.0,0.0,0.0,0.0,0.0,0.0,0.0,0.0,0.0,0.0,0.0,0.0,0.0,0.0,0.0,0.0,0.0,0.0,0.0,0.0,0.0,0.0,0.0,0.0,0.0,0.0,0.0,0.0,0.0,0.0,0.0,0.0,0.0,0.0,0.0,0.0,0.0,0.0,0.0,0.0,0.0,0.0,0.0,0.0,0.0,0.0,0.0,0.0,0.0,0.0,0.0,0.0,0.0,0.0,0.0,0.0,0.0,0.0,0.0,0.0,0.0,0.0,0.0,0.0,0.0,0.0,0.0,0.0,0.0,0.0,0.0,0.0,0.0,0.0,0.0,0.0,0.0,0.0,0.0,0.0,0.0,0.0,0.0,0.0,0.0,0.0,0.0,0.0,0.0,0.0,0.0,0.0,0.0,0.0,0.0,0.0,0.0,0.0,0.0,0.0,0.0,0.0,0.0,0.0,0.0,0.0,0.0,0.0,0.0,0.0,0.0,0.0,0.0,0.0,0.0,0.0,0.0,0.0,0.0,0.0,0.0,0.0,0.0,0.0,0.0,0.0,0.0,0.0,0.0,0.0,0.0,0.0,0.0,0.0,0.0,0.0,0.0,0.0,0.0,0.0,0.0,0.0,0.0,0.0,0.0,0.0,0.0,0.0,0.0,0.0,0.0,0.0,0.0,0.0,0.0,0.0,0.0,0.0,0.0,0.0,0.0,0.0,0.0,0.0,0.0,0.0,0.0,0.0,0.0,0.0,0.0,0.0,0.0,0.0,1.9084,0.0,0.0,0.0,0.0,0.0,0.0,0.0,0.0,0.0,0.0,0.0,0.0,0.0,0.0,0.0,0.0,0.0,0.0,0.0,0.0,0.0,0.0,0.0,0.0,1.2803,1.3137,1.3487,1.416,1.4607,1.4633,0.0,0.0,0.0,0.0,0.0,1.3305,1.3386,1.3671,1.4161,1.4814,1.5644,1.664,1.6688,1.6344,1.5663,0.0,0.0,0.0,0.0,0.0,0.0,0.0,0.0,0.0,0.0,0.0,0.0,0.0,0.0,0.0,0.0,0.0,0.0,0.0,0.0,0.0,0.0,0.0,0.0,0.0,0.0,0.0,0.0,0.0,0.0,0.0,0.0,0.0,0.0,0.0,0.0,0.0,0.0,0.0,0.0,0.0,0.0,0.0,0.0,0.0,0.0,0.0,0.0,0.0,0.0,0.0,0.0,0.0,0.0,0.0,0.0,0.0,0.0,0.0,0.0,0.0,0.0,0.0,0.0,0.0,0.0,0.0,0.0,0.0,0.0,0.0,1.9048,0.0,0.0,0.0,0.0,0.0,0.0,0.0,0.0,0.0,0.0,0.0,0.0,0.0,0.0,0.0,0.0,0.0,0.0,0.0,0.0,0.0,1.1652,1.2985,1.3396,1.3846,1.4444,1.5266,1.5668,1.548,1.5492,0.0,0.0,0.0,1.4243,1.4334,1.4491,1.4792,1.5277,1.6057,1.737,1.9179,2.0431,1.9898,1.7798,1.7595,0.0,0.0,0.0,0.0,0.0,0.0,0.0,0.0,0.0,0.0,0.0,0.0,0.0,0.0,0.0,0.0,0.0,0.0,0.0,0.0,0.0,0.0,0.0,0.0,0.0,0.0,0.0,0.0,0.0,0.0,0.0,0.0,0.0,0.0,0.0,0.0,0.0,0.0,0.0,0.0,0.0,0.0,0.0,0.0,0.0,0.0,0.0,0.0,0.0,0.0,0.0,0.0,0.0,0.0,0.0,0.0,0.0,0.0,0.0,0.0,0.0,0.0,0.0,0.0,3.6984,3.6803,3.0074,2.5148,2.1988,2.2736,1.8713,1.2091,0.0,0.0,0.0,0.0,0.0,0.0,0.0,0.0,0.0,0.0,0.0,0.0,0.0,0.0,0.0,0.0,0.0,0.0,0.0,0.0,1.2216,1.355,1.4995,1.6041,1.6486,1.7657,1.7972,1.6991,1.7032,0.0,0.0,1.4796,1.4453,1.4069,1.4789,1.5449,1.5967,1.9025,2.1337,2.2907,2.3686,2.3659,2.2909,2.0599,1.9651,1.9601,0.0,0.0,0.0,0.0,0.0,0.0,0.0,0.0,0.0,0.0,0.0,0.0,0.0,0.0,0.0,0.0,0.0,0.0,0.0,0.0,0.0,0.0,0.0,0.0,0.0,0.0,0.0,0.0,0.0,0.0,0.0,0.0,0.0,0.0,0.0,0.0,0.0,0.0,0.0,0.0,0.0,2.4426,2.4208,0.0,0.0,0.0,0.0,0.0,0.0,0.0,0.0,0.0,0.0,0.0,0.0,0.0,0.0,3.6444,3.8612,3.9773,3.9962,4.1533,4.2325,4.2157,3.555,2.9642,2.4301,1.8738,0.0,1.1692,1.249,0.0,0.0,0.0,0.0,0.0,0.0,0.0,0.0,0.0,0.0,0.0,0.0,0.0,0.0,0.0,0.0,0.0,0.0,0.0,0.0,0.0,1.596,1.721,1.7654,1.92,1.9337,1.7432,1.7843,1.7408,1.574,1.5555,1.5667,1.6055,1.6626,1.7836,1.9692,2.2186,2.3825,2.4663,2.5319,2.5472,2.5192,2.3918,2.2604,2.1191,1.9657,0.0,0.0,0.0,0.0,0.0,0.0,0.0,0.0,0.0,0.0,0.0,0.0,0.0,0.0,0.0,0.0,0.0,0.0,0.0,0.0,0.0,0.0,0.0,0.0,0.0,0.0,0.0,0.0,0.0,0.0,0.0,0.0,0.0,0.0,0.0,0.0,0.0,0.0,0.0,2.4155,2.6596,2.6221,2.7357,2.7312,0.0,0.0,0.0,0.0,0.0,0.0,0.0,0.0,0.0,3.6888,3.8239,3.9863,4.1789,4.2937,4.4013,4.4993,4.5791,4.6181,4.598,3.9364,3.2552,2.5649,1.9117,1.3352,0.8627,1.0521,1.3336,1.6514,0.0,0.0,0.0,0.0,0.0,1.3342,0.0,0.0,0.0,0.0,0.0,0.0,0.0,0.0,0.0,0.0,0.0,0.0,1.5209,1.7197,1.859,1.9026,2.043,2.0416,1.8344,1.8329,1.7834,1.6502,1.6241,1.6569,1.7496,1.847,2.0462,2.3538,2.4909,2.5877,2.647,2.7042,2.7223,2.7128,2.7018,2.5576,2.3163,2.1576,1.9936,0.0,0.0,0.0,0.0,0.0,0.0,0.0,0.0,0.0,0.0,0.0,0.0,0.0,0.0,0.0,0.0,0.0,0.0,0.0,0.0,0.0,0.0,0.0,0.0,0.0,0.0,0.0,0.0,0.0,0.0,0.0,0.0,0.0,0.0,0.0,0.0,0.0,0.0,2.6544,2.8551,2.8274,3.0331,3.0655,0.0,0.0,0.0,0.0,0.0,0.0,3.5506,3.7492,3.9306,4.0828,4.2013,4.3824,4.6367,4.6433,4.7109,4.8396,4.8372,4.8372,4.8159,4.1519,3.4161,2.6363,2.0053,1.299,0.597,0.8442,1.0566,1.2435,1.4611,1.557,1.5847,1.7521,1.5023,1.0999,0.0,0.0,0.0,0.0,0.0,0.0,0.0,0.0,0.0,0.0,0.0,1.5457,1.6901,1.9217,2.0789,2.1106,2.1588,2.1426,0.0,0.0,1.7575,1.7355,1.6682,1.6513,1.694,1.9642,2.2786,2.6383,2.6933,2.7823,2.9116,2.9581,2.9758,2.9614,2.9614,2.8417,2.6168,2.3451,2.1813,2.0793,0.0,0.0,0.0,0.0,0.0,0.0,0.0,0.0,0.0,0.0,0.0,0.0,0.0,0.0,0.0,0.0,0.0,0.0,0.0,0.0,0.0,0.0,0.0,0.0,0.0,0.0,0.0,0.0,0.0,0.0,0.0,0.0,0.0,0.0,0.0,0.0,0.0,0.0,0.0,3.0603,3.4373,0.0,0.0,0.0,0.0,3.6123,3.6839,3.8074,3.9967,4.2405,4.419,4.5163,4.6902,4.7953,4.8255,4.8084,4.8135,4.8392,4.8342,4.8333,4.8167,4.146,3.4124,2.6348,2.0314,1.2906,0.5084,0.5562,0.9161,1.4198,1.3515,1.3838,1.4635,1.4507,1.164,0.7822,0.0,0.0,0.0,0.0,0.0,0.8926,0.9704,1.0738,1.1796,1.2894,1.4704,1.6416,1.7685,2.0162,2.1879,2.231,2.2916,2.2489,2.0553,1.9412,1.8714,1.8434,1.796,1.877,2.1029,2.3418,2.5608,2.7625,2.8682,2.9363,2.9733,2.9939,2.9902,2.981,2.981,2.9297,2.8248,2.5961,2.3807,2.1772,2.0258,1.8418,0.0,0.0,0.0,0.0,0.0,0.0,0.0,0.0,0.0,0.0,0.0,0.0,0.0,0.0,0.0,0.0,0.0,0.0,0.0,0.0,0.0,0.0,0.0,0.0,0.0,0.0,0.0,0.0,0.0,0.0,0.0,0.0,0.0,0.0,0.0,0.0,0.0,3.4086,3.7016,0.0,0.0,3.6791,3.8107,3.9277,4.0848,4.2486,4.4161,4.5745,4.6707,4.6906,4.7675,4.8277,4.8654,4.8635,4.8989,4.9751,4.9682,4.9775,4.9935,4.7437,4.2002,3.4144,2.6901,1.9546,1.2209,0.6974,0.6393,0.8979,0.9413,0.9655,0.9634,0.925,0.8229,0.693,0.0,0.0,0.0,0.0,0.8442,0.9195,0.9785,1.1182,1.2576,1.3736,1.5769,1.7613,1.892,2.1284,2.2917,2.3233,2.3327,2.2781,2.1327,1.9873,1.9076,1.9155,1.9137,2.0603,2.3779,2.5304,2.7025,2.8852,2.9644,3.0256,3.0637,3.0513,3.0458,3.0308,3.0308,3.0063,2.9544,2.8187,2.6002,2.3333,2.2226,2.07,1.901,0.0,0.0,0.0,0.0,0.0,0.0,0.0,0.0,0.0,0.0,0.0,0.0,0.0,0.0,0.0,0.0,0.0,0.0,0.0,0.0,0.0,0.0,0.0,0.0,0.0,0.0,0.0,0.0,0.0,0.0,0.0,0.0,0.0,0.0,0.0,3.4641,3.5485,3.8628,4.033,3.9285,4.0719,4.2099,4.3015,4.424,4.5483,4.6717,4.7676,4.8314,4.8567,4.8948,4.9472,5.0135,5.0178,5.0566,5.1298,5.1312,5.1431,5.1644,5.1568,4.7213,3.9268,3.13,2.3764,1.6411,0.8317,0.5465,0.6158,0.6937,0.7171,0.6992,0.6668,0.6724,0.6655,0.0,0.0,0.0,0.7827,0.8813,0.9648,0.9776,1.1587,1.3524,1.5195,1.7221,1.9108,2.0668,2.2659,2.3869,2.3901,2.2732,2.2255,2.2807,1.9924,1.8579,1.9494,2.0173,2.1867,2.4722,2.5185,2.6973,3.014,2.9855,3.0395,3.1727,3.1539,3.1409,3.1278,3.1278,3.0878,3.0144,2.9972,2.8327,2.5742,2.4375,2.3134,2.18,0.0,0.0,0.0,0.0,0.0,0.0,0.0,0.0,0.0,0.0,0.0,0.0,0.0,0.0,0.0,0.0,0.0,0.0,0.0,0.0,0.0,0.0,0.0,0.0,0.0,0.0,0.0,0.0,0.0,0.0,0.0,0.0,0.0,2.8945,3.1707,3.3792,3.4827,3.9357,4.2512,4.2795,4.5472,4.7255,4.7414,4.6973,4.6978,4.7561,4.8319,4.9205,5.0306,5.1032,5.1847,5.2755,5.2705,5.2717,5.287,5.3015,5.3078,5.3078,5.3161,4.8973,4.1219,3.3159,2.517,1.7198,0.9726,0.6564,0.6359,0.6363,0.6698,0.7223,0.7118,0.7115,0.6882,0.0,0.0,0.7841,0.787,0.8827,0.9695,0.9967,1.2005,1.3985,1.5346,1.7218,1.9233,2.1379,2.2532,2.3409,2.3999,2.2681,2.1786,2.1825,1.9361,1.8679,2.0445,2.2454,2.4307,2.6052,2.6975,2.8025,2.9318,2.9645,3.0096,3.0687,3.0792,3.0911,3.1132,3.1234,3.113,3.0807,3.0631,3.0,2.8817,2.6206,2.4566,2.3507,0.0,0.0,0.0,0.0,0.0,0.0,0.0,0.0,0.0,0.0,0.0,0.0,0.0,0.0,0.0,0.0,0.0,0.0,0.0,0.0,0.0,0.0,0.0,0.0,0.0,0.0,0.0,0.0,0.0,0.0,0.0,0.0,2.6872,2.863,3.1335,3.444,3.8061,4.075,4.3199,4.5387,4.6565,4.7414,4.7941,4.8526,4.9162,4.9936,5.0761,5.132,5.1613,5.1754,5.1881,5.1933,5.1901,5.1977,5.2181,5.2398,5.2654,5.2886,5.3037,5.1894,4.9341,4.1373,3.3657,2.6063,1.8255,1.1823,0.7043,0.7006,0.7005,0.6931,0.617,0.483,0.3395,0.0,0.7942,0.8032,0.8333,0.9038,0.9765,1.0422,1.2283,1.4182,1.5794,1.7639,1.9576,2.1645,2.2469,2.3011,2.3299,2.2467,2.1734,2.1278,2.0091,2.0096,2.1666,2.356,2.5226,2.654,2.7273,2.8052,2.8786,2.9039,2.9345,2.9794,3.0434,3.0809,3.0945,3.1322,3.1396,3.1216,3.0878,3.0424,2.9798,2.7808,2.6784,2.6287,2.3992,2.3318,2.3391,2.1995,2.0884,1.999,1.958,0.0,0.0,0.0,0.0,0.0,0.0,0.0,0.0,0.0,0.0,0.0,0.0,0.0,0.0,0.0,0.0,0.0,0.0,0.0,0.0,0.0,0.0,0.0,0.0,2.6267,2.7782,2.8876,3.1592,3.499,3.9232,4.1435,4.3745,4.6666,4.7712,4.8418,4.8982,4.9548,5.025,5.1072,5.1574,5.207,5.2554,5.2497,5.2569,5.2757,5.2757,5.284,5.2954,5.3157,5.3405,5.3741,5.3886,5.3977,0.0,4.5312,3.7544,3.0038,2.1757,1.4037,0.0,0.0,0.0,0.0,0.0,0.3834,0.1737,0.0,0.8129,0.8402,0.8988,0.9404,0.999,1.0925,1.2478,1.4255,1.628,0.0,1.9935,2.1645,2.239,2.2619,2.2156,2.2194,2.1904,0.0,2.1481,2.212,2.2978,2.4102,2.5308,2.6545,2.6847,2.7442,2.8376,2.8341,2.8498,2.8999,3.0341,3.0892,3.08,3.155,3.1813,3.1584,3.0945,3.0305,2.9769,2.9012,2.9102,2.9198,2.5882,2.5495,2.6426,2.4148,2.29,2.219,2.1713,0.0,0.0,0.0,0.0,0.0,0.0,0.0,0.0,0.0,0.0,0.0,0.0,0.0,0.0,0.0,0.0,0.0,0.0,0.0,0.0,0.0,0.0,0.0,0.0,2.826,2.8724,2.9651,3.2394,3.5542,3.8932,4.1191,4.3765,4.7034,4.8702,4.9694,4.9917,5.0248,5.0725,5.1361,0.0,0.0,0.0,0.0,5.3518,5.4287,5.4287,5.4287,5.4321,5.45,5.4723,5.4952,5.513,5.5307,5.4963,4.7283,3.9252,3.099,2.3071,1.4746,0.691,0.6019,0.6161,0.6821,0.5592,0.3579,0.0,0.0,0.8643,0.9003,0.9096,0.9937,1.0692,1.0827,1.2508,1.4362,1.6061,1.7588,1.9371,2.1629,2.2011,2.1994,2.1747,2.1909,2.1839,0.0,0.0,2.2859,2.3662,2.5141,2.6297,2.7027,2.7457,2.767,2.7709,2.7981,2.8339,2.8745,3.0198,3.094,3.1204,3.2139,3.2436,3.228,3.1286,3.1013,3.1032,2.9596,2.9102,2.9073,2.7698,2.7472,2.7705,2.6616,2.5747,2.5034,2.4644,2.3927,2.3155,2.2655,0.0,0.0,0.0,0.0,0.0,0.0,0.0,0.0,0.0,0.0,0.0,0.0,0.0,0.0,0.0,0.0,0.0,0.0,0.0,0.0,2.7842,2.8712,2.9838,3.1352,3.4111,3.6521,3.8101,3.8927,4.1563,4.7175,4.8897,4.9462,4.893,5.0867,5.1911,5.1522,5.2636,0.0,5.3665,5.3514,5.3512,5.3678,5.3678,5.3736,5.385,0.0,0.0,5.4765,5.5183,5.5383,5.5293,5.3626,4.5261,3.2529,2.9424,1.8527,0.3873,0.6093,0.6451,0.5592,0.4364,0.3021,0.1567,0.8573,0.8925,0.9406,1.0036,1.0553,1.0947,1.1251,1.238,1.378,1.5392,1.6826,1.8486,2.0471,2.0693,2.0565,2.0234,2.0363,0.0,0.0,2.281,2.3733,2.4824,2.6082,2.704,2.764,2.7657,2.7667,2.7832,2.7898,2.8112,2.8537,2.9861,3.0758,3.1377,3.2118,3.2688,3.2948,3.1883,3.1282,3.0905,2.9845,2.9309,2.9055,2.8647,2.857,2.8536,2.7686,2.6906,2.627,2.5835,2.5249,2.4582,2.4205,2.3359,2.2215,0.0,0.0,0.0,0.0,0.0,0.0,0.0,0.0,0.0,0.0,0.0,0.0,0.0,0.0,2.4576,0.0,0.0,2.837,2.8918,2.9238,3.0075,3.1974,3.148,3.2109,3.531,3.7648,4.0516,4.4372,4.5664,4.6012,4.5445,4.6593,4.7484,4.7837,4.8581,5.0604,5.4081,5.4125,5.2394,4.8872,5.23,5.233,4.8985,5.2551,5.2634,4.9637,4.9671,4.7955,4.4924,4.4439,3.7754,2.6742,2.1362,1.3567,0.5099,0.6122,0.5,0.2752,0.2728,0.1473,-0.0226,0.9041,0.9339,0.9867,1.0999,1.1119,1.1232,1.165,1.2236,1.3173,1.4705,1.5985,1.741,1.9092,1.92,1.9131,0.0,0.0,0.0,2.2814,2.3553,2.4572,2.5937,2.6796,2.747,2.8,2.7669,2.7676,2.8122,2.8087,2.8209,2.8553,2.9762,3.0738,3.151,3.2208,3.2851,3.3469,3.2462,3.1415,3.0448,2.9841,2.9313,2.8826,2.8993,2.9066,2.8983,2.8177,2.7324,2.6581,2.6389,2.5865,2.53,2.5216,2.4717,2.379,2.1832,2.1506,0.0,0.0,0.0,0.0,0.0,0.0,0.0,0.0,0.0,2.2486,2.5627,2.6748,2.7622,2.9162,2.959,2.9807,3.0173,2.9534,2.9542,3.0993,2.8049,2.6964,3.0443,3.4444,3.77,3.9668,4.137,4.1769,4.0324,4.1458,4.2122,4.1927,4.2042,4.4677,5.031,5.0469,4.8425,4.4165,4.9691,5.037,4.6248,5.1516,5.1381,4.6406,4.4789,4.1251,3.6195,3.2602,2.7288,2.0339,1.1595,0.744,0.6626,0.5551,0.3238,0.0474,0.1395,0.023,-0.1834,0.0,1.0278,1.0715,1.1043,1.164,1.1911,1.152,1.2207,1.3207,1.4397,1.5152,1.6323,1.8238,1.8173,1.8581,2.0005,1.9757,2.067,2.3414,2.4106,2.4967,2.6209,2.7012,2.7524,2.7603,2.7523,2.7676,2.8122,2.8569,2.8967,2.9124,3.0494,3.1409,3.2051,3.2764,3.3352,3.3696,3.2715,3.169,3.0608,2.9619,2.8719,2.8038,2.86,2.8919,2.904,2.8584,2.7438,2.6181,2.6805,2.6279,2.5581,2.6896,2.6649,2.5653,2.4416,0.0,2.3195,2.3763,2.4529,2.5334,2.6045,2.4814,2.4698,0.0,0.0,2.767,3.0338,3.1081,3.124,3.0839,3.1114,3.1313,3.1001,2.9148,2.7586,2.7024,2.6645,2.5241,2.219,2.5324,2.9164,3.292,3.7858,3.8705,3.3533,3.8824,3.9774,3.4018,3.4294,3.497,3.5768,3.5768,3.8364,4.3791,4.4629,4.7775,5.3281,5.3818,5.3743,5.2921,4.6908,4.3785,4.2389,2.9457,2.2523,1.9713,1.1587,0.6999,0.5033,0.3807,0.2701,0.1834,0.178,0.0698,-0.0804,0.0,1.0877,1.1266,1.1314,1.1758,1.1955,1.1579,1.1985,1.2553,1.314,1.4364,1.55,1.6323,1.6799,1.7552,1.8845,1.9279,2.0486,2.2847,2.3983,2.5097,2.635,2.6903,2.7315,2.7643,2.759,2.7743,2.8248,2.8438,2.9067,3.0217,3.0526,3.1532,3.2932,3.3073,3.3451,3.3728,3.2829,3.172,3.0583,2.9524,2.8785,2.8414,2.8586,2.8333,2.794,2.7657,2.6741,0.0,0.0,2.5394,2.4791,2.602,2.5468,2.4288,2.403,2.3911,0.0,2.5585,2.6644,2.7413,0.0,2.7255,2.7467,3.1188,3.0335,2.9424,3.197,3.2631,3.2274,3.0817,3.1229,3.1191,0.0,2.898,2.8971,2.9757,2.6418,2.3777,2.3533,2.1137,2.175,2.7669,3.0523,3.0543,2.706,2.9611,3.0226,2.7714,2.783,2.9886,3.3923,3.7373,3.8614,3.7464,4.4926,4.6396,4.1921,4.5721,4.3724,3.6539,3.2979,2.8915,2.442,1.8969,1.5834,1.4382,1.0465,0.7368,0.5035,0.3936,0.2217,0.0246,0.0361,-0.0357,-0.165,0.0,1.1215,1.1557,1.1557,1.1747,1.1805,1.1527,1.1703,1.2037,1.257,1.3627,1.4508,1.4959,1.563,1.6507,1.7655,1.8505,1.9846,2.1903,2.3582,2.4997,2.6153,2.6743,2.7309,2.7721,2.7577,2.7811,2.8386,2.8441,2.9217,3.068,3.0596,3.1375,3.2996,3.2845,3.2873,3.3093,3.2354,3.1348,3.0147,2.9254,2.8612,2.822,2.7972,2.7269,2.6382,2.6515,2.5785,0.0,0.0,2.4095,2.3608,2.4623,2.4118,2.329,2.3985,2.4835,2.5707,2.6687,0.0,0.0,2.8725,2.8867,2.9549,3.1655,3.1197,3.0907,3.2623,3.3004,3.2421,3.0491,3.0742,3.0677,2.8545,2.8228,2.8683,3.0102,2.4946,2.1715,2.3267,1.8518,1.7134,2.2259,2.4378,2.4507,2.2119,2.4708,2.585,2.4616,2.5851,2.8893,3.3929,3.8248,3.898,3.5855,4.5115,4.5157,3.6054,4.0766,3.7304,2.6649,2.3457,1.8195,1.1635,1.1756,1.1394,1.0668,0.97,0.7856,0.5399,0.4303,0.2216,-0.0246,-0.0853,-0.1452,-0.2282,0.0,0.0,1.1534,1.1681,1.1659,1.1527,1.1247,1.137,1.198,1.3308,1.2953,1.3131,1.4637,1.4887,1.5527,1.7007,1.7569,1.8694,2.0716,2.2902,2.4511,2.5384,2.6788,2.7602,2.7629,2.7564,2.7811,2.8386,2.904,2.9605,3.0062,3.0637,3.1188,3.1641,3.1641,3.1589,3.1485,3.1271,3.0376,2.9039,2.8822,2.7933,2.6762,2.6526,2.5507,2.4381,2.564,0.0,0.0,2.3111,2.2717,2.2207,2.3084,2.3466,0.0,2.5212,2.7142,2.8493,2.6948,0.0,2.9022,2.8852,2.9749,3.0953,3.2099,3.2652,3.2891,3.2706,3.2555,3.1917,3.0237,3.0021,2.9862,2.8943,2.6649,2.483,2.464,2.1511,1.8881,1.7966,1.7054,1.6491,0.0,2.1303,2.3062,1.9181,2.8097,3.1303,2.5941,3.0188,3.2907,3.313,3.3333,3.6559,4.3117,4.3574,4.3802,4.3845,4.3601,3.9988,3.3228,2.5469,1.884,1.3569,1.1635,1.0789,1.0668,0.97,0.7989,0.5782,0.4429,0.3078,0.1602,-0.1354,-0.2075,-0.1809,0.0,0.0,0.0,1.127,1.1293,1.1187,1.0801,1.1196,1.1834,1.2539,1.2816,0.0,0.0,0.0,0.0,0.0,1.7352,1.8503,1.9412,2.1611,2.3025,2.3378,2.4593,2.5448,2.5892,2.6225,2.6674,2.7249,2.794,2.9008,3.0349,3.0755,3.1525,3.2533,3.2291,3.1903,3.1349,3.0914,3.0031,2.8946,2.8013,2.7597,2.7292,2.6512,2.526,2.3989,0.0,0.0,0.0,2.137,2.108,2.0921,2.1925,0.0,0.0,2.523,2.6606,2.7472,2.8559,0.0,2.9483,2.9864,3.0362,3.1022,3.2407,3.2572,3.2545,3.2999,3.2331,3.1539,3.1178,2.9878,2.8786,2.8491,2.7209,2.5997,2.5363,2.3026,2.0877,1.9328,1.7901,0.0,0.0,0.0,0.0,1.8001,2.1086,2.1907,1.9391,2.4949,2.7746,2.6686,3.518,4.0867,4.3208,4.7659,4.7977,4.4163,3.5229,2.9019,2.5163,1.9228,1.5099,1.2719,1.1993,1.1394,1.0668,0.97,0.7989,0.5784,0.4429,0.2953,0.1478,-0.0247,-0.1598,-0.2809,0.0,0.0,0.0,0.0,0.0,0.0,0.0,0.0,0.0,0.0,0.0,0.0,0.0,0.0,0.0,0.0,0.0,1.7514,1.808,2.0025,2.1337,2.1728,2.2762,2.3553,2.3923,2.4282,2.4736,2.5322,2.6472,2.7723,2.9125,3.005,3.0893,3.1618,3.1377,3.0812,3.0017,2.9533,2.8798,2.7906,2.677,2.6169,2.5868,2.494,2.3557,0.0,0.0,0.0,1.9971,1.9943,1.9964,2.0096,2.0951,2.2075,2.3518,2.5687,2.6997,2.8054,2.9504,2.963,2.9649,3.0586,3.0882,3.1352,3.2688,3.2772,3.2669,3.3065,3.2117,3.1074,3.0728,2.8849,2.7706,2.8772,2.7992,2.7055,2.6599,2.487,2.2675,1.9868,1.7442,1.5889,0.0,0.0,0.0,1.7962,1.9917,2.0612,1.9884,2.5506,2.9117,2.995,3.8277,4.3715,4.5771,5.004,4.9409,4.3715,3.3145,2.729,2.5602,1.9479,1.6491,1.6019,1.3384,1.1631,1.0789,1.0061,0.823,0.5784,0.4429,0.2954,0.1478,-0.0123,-0.148,-0.2952,0.0,0.0,0.0,0.0,0.0,0.0,0.0,0.0,0.0,0.0,0.0,0.0,0.0,0.0,0.0,0.0,0.0,0.0,1.6715,1.8316,1.9528,2.0305,2.1336,2.1867,2.1867,2.189,2.2214,2.2807,2.4709,2.591,2.6455,2.8433,2.9139,2.8851,2.8851,2.8336,2.7479,2.7145,2.6685,2.6028,2.4882,2.38,2.2739,2.2124,0.0,0.0,0.0,0.0,0.0,1.8984,0.0,0.0,0.0,0.0,2.6922,2.6558,2.8254,3.0111,2.9684,2.9429,2.9588,3.0847,3.1347,3.1811,3.2892,3.3195,3.3146,3.283,3.1735,3.0417,0.0,0.0,2.6701,2.9601,2.8781,2.7783,2.7781,2.6307,2.3583,0.0,0.0,0.0,0.0,0.0,0.0,1.8867,0.0,2.6332,2.6352,3.1332,3.6456,4.1525,4.2256,4.517,5.0582,5.0733,4.8098,4.2898,3.7053,3.4235,3.3946,2.5762,2.2474,2.2974,1.5773,1.2005,1.091,1.0789,0.8836,0.5904,0.4551,0.3201,0.1726,-0.0986,-0.1973,-0.2464,0.0,0.0,0.0,0.0,0.0,0.0,0.0,0.0,0.0,0.0,0.0,0.0,0.0,0.0,0.0,0.0,0.0,0.0,1.5386,1.6982,1.8036,1.8332,1.9508,2.0132,2.0132,2.0527,2.1042,2.1635,2.2655,2.3373,2.3932,2.5152,2.5611,2.5369,2.5589,2.528,2.4623,2.4555,2.4137,2.3421,0.0,2.2127,2.1798,0.0,0.0,0.0,0.0,0.0,0.0,0.0,0.0,0.0,0.0,2.4864,2.7059,0.0,0.0,2.9161,3.0309,3.0428,3.0406,3.1061,3.1447,3.1805,3.2282,3.2465,3.2234,3.1121,2.9753,2.8544,0.0,0.0,0.0,2.9247,2.7629,0.0,2.6234,2.211,0.0,1.5852,0.0,1.1342,1.0247,1.4532,0.0,0.0,1.6707,1.6982,2.179,2.837,3.4491,3.991,4.5892,4.9808,5.1374,5.2031,4.9043,4.2553,3.6607,3.3491,3.275,2.6222,2.3276,2.3224,2.0589,1.6563,1.1752,1.1031,0.9319,0.6874,0.5521,0.3809,0.185,0.0123,-0.1726,-0.369,0.0,0.0,0.0,0.0,0.0,0.0,0.0,0.0,0.0,0.0,0.0,0.0,0.0,0.0,0.0,0.0,0.0,0.0,0.0,1.5938,1.6693,1.7062,1.7784,1.8172,1.816,1.8499,1.8945,1.9532,2.0475,2.1326,2.2078,2.3138,2.3521,2.3342,2.3598,2.3259,2.2565,2.2592,0.0,0.0,0.0,0.0,0.0,0.0,0.0,0.0,0.0,0.0,0.0,0.0,0.0,2.4704,2.5574,2.6872,2.833,2.908,0.0,2.9992,3.1097,3.1345,3.1442,3.208,3.2193,3.1963,3.1299,3.1155,3.0404,2.791,2.6483,0.0,2.4503,0.0,0.0,0.0,0.0,0.0,2.924,2.6647,2.3886,0.0,1.9209,0.0,1.6607,1.9309,2.1076,0.0,1.9971,2.0995,2.4677,2.8798,3.3596,3.9197,4.3815,4.7486,5.0172,5.1306,4.9852,4.5972,4.0675,3.7887,3.7065,2.8057,2.5444,2.7687,0.0,1.7626,1.6175,1.285,1.0415,0.8702,0.6372,0.4663,0.3198,0.0863,-0.1356,-0.3444,0.0,0.0,0.0,0.0,0.0,0.0,0.0,0.0,0.0,0.0,0.0,0.0,0.0,0.0,0.0,0.0,0.0,0.0,0.0,0.0,0.0,1.6281,1.6318,1.6349,1.6479,1.6479,1.6717,1.723,0.0,1.9319,2.0225,2.1428,2.1832,2.1605,2.1906,2.1573,0.0,0.0,0.0,0.0,0.0,0.0,0.0,0.0,0.0,0.0,0.0,0.0,0.0,0.0,2.4175,2.5507,2.755,2.9012,3.001,2.9684,3.0454,3.1505,3.1885,3.2176,3.2554,3.3465,3.3078,3.2023,3.025,2.9452,2.7987,2.4167,0.0,2.1624,2.0112,2.0926,2.3064,2.6877,0.0,3.1254,3.1135,3.0941,3.0053,2.7963,2.3518,2.1211,2.2716,1.9979,1.8192,1.8404,2.3409,2.7741,3.0664,2.9793,3.1276,3.5796,3.6146,3.9368,4.6003,4.7234,4.8167,4.8846,4.4989,4.3071,4.2555,3.1291,2.8877,3.2907,0.0,0.0,2.0363,1.4746,1.1507,0.9923,0.6858,0.5269,0.4294,0.0985,-0.111,-0.2952,0.0,0.0,0.0,0.0,0.0,0.0,0.0,0.0,0.0,0.0,1.3553,1.3602,0.0,0.0,0.0,0.0,0.0,0.0,0.0,0.0,0.0,1.5856,1.5925,1.6013,1.6231,1.6231,0.0,0.0,0.0,0.0,1.7036,1.7866,1.8089,1.7873,0.0,0.0,0.0,0.0,0.0,0.0,0.0,0.0,0.0,0.0,0.0,0.0,0.0,0.0,0.0,0.0,2.6459,2.8766,2.9023,2.986,3.0763,3.0336,3.1104,3.2127,3.2489,3.3159,3.386,3.3815,3.3149,3.1795,2.9542,2.764,0.0,0.0,2.0024,1.8534,1.6547,1.7148,1.8818,2.1583,0.0,0.0,0.0,0.0,1.0445,0.0,0.0,0.0,0.0,0.0,0.0,0.0,0.0,0.0,3.1604,2.5156,2.0312,1.9101,1.9076,2.397,3.4255,3.4028,3.6143,4.0651,3.9346,3.8954,3.9315,3.7053,3.4323,3.1212,0.0,0.0,1.4988,1.3853,1.111,0.7453,0.6843,0.4289,0.074,-0.0986,-0.2464,-0.4057,0.0,0.0,0.0,0.0,0.0,0.0,0.0,1.213,1.2829,1.3548,1.3574,1.3496,1.3373,1.3431,1.3343,0.0,0.0,0.0,0.0,0.0,0.0,0.0,0.0,1.5513,1.5736,0.0,0.0,0.0,0.0,0.0,0.0,0.0,0.0,0.0,0.0,0.0,0.0,0.0,0.0,0.0,0.0,0.0,0.0,0.0,0.0,0.0,0.0,0.0,0.0,0.0,2.5439,2.7878,2.9399,3.0633,3.1482,3.0947,3.1764,3.2965,3.349,3.3871,3.4206,3.4222,3.2413,2.9736,2.6597,0.0,0.0,0.0,1.5139,1.3774,1.2016,1.3281,0.0,0.0,0.0,0.0,0.0,0.0,0.0,0.0,0.0,0.0,0.0,0.0,0.0,0.0,0.0,0.0,1.6026,1.2639,1.0781,1.1678,0.9556,1.3115,2.2912,2.0565,2.1681,2.6381,2.3473,2.498,3.019,2.724,2.9308,3.4753,2.7431,0.0,2.2115,1.5423,1.1711,1.0123,0.7299,0.4754,0.2082,-0.1598,-0.3816,-0.5525,0.0,0.0,0.0,0.0,0.0,0.0,0.0,1.1901,1.2648,1.3673,1.3875,1.3707,1.3111,1.3143,1.3065,0.0,0.0,0.0,0.0,0.0,0.0,0.0,0.0,0.0,0.0,0.0,0.0,0.0,0.0,0.0,0.0,0.0,0.0,0.0,0.0,0.0,0.0,0.0,0.0,0.0,0.0,0.0,0.0,0.0,0.0,0.0,0.0,0.0,0.0,0.0,2.3482,2.5375,2.7803,2.9767,3.1128,3.0957,3.203,3.3436,3.4039,3.424,3.4268,3.4362,3.1448,2.747,2.35,1.9986,0.0,0.0,0.9714,0.8632,0.7061,0.0,0.8747,0.0,0.8923,0.9437,0.0,0.0,0.0,0.0,0.0,0.0,0.0,0.0,0.0,0.0,0.0,0.0,-0.2649,-0.1612,-0.0623,0.0766,-0.2218,0.0469,0.9516,0.6072,0.7067,1.2591,0.9198,1.168,1.9156,1.5625,2.177,3.4637,2.3528,0.0,0.0,1.9483,1.5671,1.5463,0.8835,0.5617,0.3779,-0.3679,-0.7185,-0.8862,0.0,0.0,0.0,0.0,0.0,0.0,0.0,1.262,1.3689,1.3805,1.4272,1.4261,1.3355,1.3654,1.3729,0.0,0.0,0.0,0.0,0.0,0.0,0.0,0.0,0.0,0.0,0.0,0.0,0.0,0.0,0.0,0.0,0.0,0.0,0.0,0.0,0.0,0.0,0.0,0.0,0.0,0.0,0.0,0.0,0.0,0.0,0.0,0.0,0.0,0.0,0.0,0.0,2.233,2.2681,2.5292,2.8508,2.9701,0.0,0.0,3.3164,3.3841,3.441,3.3878,3.0472,2.6028,2.1661,0.0,0.0,0.6657,0.4919,0.3744,0.1854,-0.0056,-0.1083,-0.0473,0.0,-0.6853,0.0,0.0,0.0,0.0,0.0,0.0,0.0,0.0,0.0,0.0,0.0,0.0,0.0,-1.4226,-1.7327,-2.4986,-2.5049,-1.9689,-0.8794,-1.0529,-0.6174,0.4197,0.6007,0.7375,0.8398,1.1587,1.6473,2.2319,0.0,0.0,0.0,2.7433,2.5811,2.2932,1.1819,0.5998,0.2392,-1.0063,-1.4861,-1.5966,0.0,0.0,0.0,0.0,0.0,0.0,1.1126,1.2353,1.3484,1.429,1.4716,1.4792,1.4429,1.414,1.3587,1.2536,0.0,0.0,0.0,0.0,0.0,0.0,0.0,0.0,0.0,0.0,0.0,0.0,0.0,0.0,0.0,0.0,0.0,0.0,0.0,0.0,0.0,0.0,0.0,0.0,0.0,0.0,0.0,0.0,0.0,0.0,0.0,0.0,0.0,0.0,0.0,0.0,1.843,1.9522,0.0,0.0,2.9693,3.2289,3.2753,3.1848,3.0024,2.6965,2.1954,1.6563,1.1838,0.0,0.4572,0.1672,0.0159,-0.1098,-0.2469,-0.4271,-0.594,-0.7299,-0.9158,-1.1888,-1.6068,0.0,0.0,0.0,0.0,0.0,0.0,0.0,0.0,0.0,0.0,0.0,0.0,-3.2516,-3.1949,-3.2998,-3.5169,-3.1853,-2.2432,-2.5447,-2.3222,-1.582,-1.4898,-1.1139,-0.5092,-0.3503,0.2756,1.2463,0.0,0.0,0.0,2.632,2.7239,2.5493,0.8989,0.7843,1.2159,-1.5025,-1.8648,-1.2139,0.0,0.0,0.0,0.0,0.0,1.0156,1.1126,1.2217,1.3321,1.4582,1.4881,1.5029,1.5186,1.4315,1.342,1.2596,1.2251,0.0,0.0,0.0,0.0,0.0,0.0,0.0,0.0,0.0,0.0,0.0,0.0,0.0,0.0,0.0,0.0,0.0,0.0,0.0,0.0,0.0,0.0,0.0,0.0,0.0,0.0,0.0,0.0,0.0,0.0,0.0,0.0,0.0,0.0,0.0,0.0,0.0,0.0,0.0,2.5634,2.9103,2.6374,2.5566,2.3941,1.7695,1.2225,0.7265,0.0,-0.0,-0.2177,-0.3806,-0.4828,-0.5877,-0.7139,-0.862,-1.0462,-1.2914,-1.457,-1.6905,-2.0769,-2.6282,0.0,0.0,0.0,0.0,0.0,0.0,0.0,0.0,0.0,0.0,0.0,-4.3713,-4.09,-3.7411,-3.9878,-3.8349,-3.2265,-3.5264,-3.5102,-3.1549,-3.06,-2.6545,-1.9775,-1.8316,-1.0947,0.0619,0.0,0.0,0.0,1.771,1.9393,1.8459,0.0431,0.0246,0.6506,-2.33,-2.6914,-1.8952,0.0,0.0,0.0,0.0,0.0,0.0,1.1281,1.2399,1.3478,1.4486,1.4615,1.4826,1.541,1.4093,1.3339,1.3946,1.3054,0.0,0.0,0.0,0.0,0.0,0.0,0.0,0.0,0.0,0.0,0.0,0.0,0.0,0.0,0.0,0.0,0.0,0.0,0.0,0.0,0.0,0.0,0.0,0.0,0.0,0.0,0.0,0.0,0.0,0.0,0.0,0.0,0.0,0.0,0.0,0.0,0.0,0.0,0.0,1.8643,2.241,1.1983,1.3971,1.6629,0.6749,0.2442,-0.0189,-0.3313,-0.5308,-0.7269,-0.9953,-1.0124,-1.045,-1.2549,-1.4033,-1.5452,-1.7097,-2.0624,-2.4212,-2.7087,-3.1512,0.0,0.0,0.0,0.0,0.0,0.0,0.0,0.0,0.0,0.0,0.0,-4.4037,-4.2541,-4.0575,-3.9724,-3.8765,-3.7704,-3.8662,-3.9094,-3.9094,-3.5915,-3.491,-3.5445,-3.0437,-2.3099,0.0,0.0,0.0,0.0,0.0881,0.0879,-0.0529,-1.4675,-2.0246,-2.2091,-3.6499,-4.1829,-4.2233,0.0,0.0,0.0,0.0,0.0,0.0,0.0,1.1737,1.2484,1.3766,1.369,1.357,1.3752,1.3036,1.2622,1.2808,1.1996,0.0,0.0,0.0,0.0,0.0,0.0,0.0,0.0,0.0,1.3067,1.3571,1.3571,0.0,0.0,0.0,0.0,0.0,0.0,0.0,0.0,0.0,0.0,0.0,0.0,0.0,0.0,0.0,0.0,0.0,0.0,0.0,0.0,0.0,0.0,0.0,0.0,0.0,0.0,-0.3203,0.3232,0.0,0.6556,0.5664,0.4417,-0.1247,-0.4882,-0.7973,-1.1382,-1.255,-1.3083,-1.3871,-1.3656,-1.3878,-1.5425,-1.638,-1.7783,-2.0505,-2.2269,-2.469,0.0,0.0,0.0,0.0,0.0,0.0,0.0,0.0,0.0,0.0,0.0,0.0,0.0,-4.6705,-4.5268,-4.2702,-4.1645,-4.1015,-4.0745,-4.1015,-4.0816,-4.0159,-3.8461,-3.7844,-3.8113,-3.6504,0.0,0.0,0.0,0.0,0.0,-0.2236,0.0567,-0.0946,-1.6869,-1.6917,-1.1262,-3.8213,-4.1908,-3.517,0.0,0.0,0.0,0.0,0.0,0.0,0.0,1.1144,1.1749,1.2926,1.2836,1.2839,1.3186,1.2597,1.2305,1.2647,1.1679,0.0,0.0,0.0,0.0,0.0,0.0,0.0,0.0,1.3218,1.3439,1.3902,1.3942,1.4033,1.4195,1.4185,0.0,0.0,0.0,0.0,0.0,0.0,0.0,0.0,0.0,0.0,0.0,0.0,0.0,0.0,0.0,0.0,0.0,0.0,0.0,0.0,0.0,0.0,0.0,0.0,-0.9935,-0.4609,-0.4137,-0.3467,-0.4344,-1.0332,-1.3217,-1.5244,-1.7745,-1.7873,-1.7405,-1.6954,-1.653,-1.6539,-1.7571,-1.8154,-1.9272,-2.164,-2.2999,-2.5307,0.0,0.0,0.0,0.0,0.0,0.0,0.0,0.0,0.0,0.0,0.0,0.0,0.0,0.0,-4.6738,-4.4719,-4.3334,-4.243,-4.1951,-4.1702,-4.124,-4.0603,-3.9986,-3.9913,-4.0287,-3.9913,0.0,0.0,0.0,0.0,0.0,-1.7032,-1.4664,-1.6126,-2.7919,-2.7142,-2.1886,-4.3761,-4.6092,-3.9798,0.0,0.0,0.0,0.0,0.0,0.0,0.0,1.0618,1.1248,1.1977,1.208,1.2387,1.3202,1.235,1.2042,1.2899,0.0,0.0,0.0,0.0,0.0,0.0,0.0,0.0,0.0,1.317,1.342,1.3922,1.3942,1.4215,1.4679,1.485,1.4532,0.0,0.0,0.0,0.0,0.0,0.0,0.0,0.0,0.0,0.0,0.0,0.0,0.0,0.0,0.0,0.0,0.0,0.0,0.0,0.0,0.0,0.0,0.0,0.0,0.0,0.0,-1.3006,-1.0511,-1.9522,-2.1432,-2.1279,-2.2047,-2.1231,0.0,-1.9293,-1.8754,-1.8631,-1.9234,-1.9589,-2.0228,-2.1536,-2.3508,0.0,0.0,0.0,0.0,0.0,0.0,0.0,0.0,0.0,0.0,0.0,0.0,0.0,0.0,0.0,-4.7174,-4.6657,-4.4778,-4.3101,-4.1753,-4.1099,-4.0689,-4.0689,-4.0603,-4.1071,-4.1995,-4.1057,0.0,0.0,0.0,0.0,0.0,-3.9387,-3.9899,-4.1041,-4.4575,-4.6636,-4.7991,-5.1444,-5.2865,-5.3033,0.0,0.0,0.0,0.0,0.0,0.0,0.0,0.0,0.0,0.0,1.0766,1.0541,1.04,1.0087,0.9842,0.0,0.0,0.0,0.0,0.0,0.0,0.0,0.0,0.0,0.0,1.3045,1.3372,1.4037,1.3039,1.3295,1.472,1.4891,1.4435,1.3486,1.4185,0.0,0.0,0.0,0.0,0.0,0.0,0.0,0.0,0.0,0.0,0.0,0.0,0.0,0.0,0.0,0.0,0.0,0.0,0.0,0.0,0.0,-2.1214,-2.1003,-2.0661,0.0,-1.9746,-2.1342,-2.1408,-2.1138,0.0,-2.0935,-2.0505,-2.0397,-2.0184,-2.0566,-2.2462,-2.2146,-2.3022,-2.7342,0.0,0.0,0.0,0.0,0.0,0.0,0.0,0.0,0.0,0.0,0.0,0.0,0.0,0.0,0.0,0.0,-4.8911,-4.7836,-4.6835,-4.529,-4.3036,-4.2304,-4.1868,-4.1717,-4.0972,-4.0689,-4.0958,-4.0689,0.0,0.0,0.0,0.0,-4.1451,-4.1451,-4.1549,-4.1854,-4.3238,-4.5104,-4.717,-4.8506,-5.0397,-5.224,0.0,0.0,0.0,0.0,0.0,0.0,0.0,0.0,0.0,0.0,0.0,0.0,0.0,0.0,0.0,0.0,0.0,0.0,0.0,0.0,0.0,0.0,0.0,0.0,1.129,1.1232,1.2181,1.4165,1.3421,1.4316,1.685,1.6919,1.6314,1.5159,1.5114,0.0,0.0,0.0,0.0,0.0,0.0,0.0,0.0,0.0,0.0,0.0,-0.7027,-1.0259,0.0,-1.5301,-1.8201,-2.1189,0.0,0.0,0.0,0.0,-2.2204,-2.2143,-2.2487,-2.2996,-2.3275,-2.262,-2.2492,-2.247,-2.2198,-2.1644,-2.121,-2.1309,0.0,0.0,-2.3274,0.0,0.0,0.0,0.0,0.0,0.0,0.0,0.0,0.0,0.0,0.0,0.0,0.0,0.0,0.0,0.0,0.0,0.0,0.0,-4.958,-4.8433,-4.7753,-4.6475,-4.4675,-4.3789,-4.3126,-4.2739,-4.2044,-4.1561,-4.1254,-4.1254,0.0,0.0,0.0,0.0,-4.0745,-4.0745,-4.1001,-4.1506,-4.246,-4.4067,-4.6095,-4.7358,-4.8839,-5.0101,0.0,0.0,0.0,0.0,0.0,0.0,0.0,0.0,0.0,0.0,0.0,0.0,0.0,0.0,0.0,0.0,0.0,0.0,0.0,0.0,0.0,0.0,0.0,0.9402,0.9728,0.9664,1.1243,1.4581,1.4461,1.6093,1.9278,1.9315,1.8672,1.7323,1.4885,1.371,0.0,0.0,0.0,0.0,0.0,0.0,0.0,0.0,0.0,0.0,0.0,0.0,0.0,-2.0449,-2.1798,-2.3294,-2.2748,0.0,0.0,0.0,0.0,0.0,-2.3911,-2.4384,-2.4481,-2.3752,-2.4123,-2.4492,-2.3819,-2.2953,0.0,0.0,0.0,0.0,0.0,-2.5356,0.0,0.0,0.0,0.0,0.0,0.0,0.0,0.0,0.0,0.0,0.0,0.0,0.0,0.0,0.0,0.0,0.0,0.0,0.0,-4.8489,-4.7825,-4.6962,-4.5949,-4.497,-4.4082,-4.3382,-4.3046,-4.2622,-4.2175,-4.2092,-4.1633,0.0,0.0,0.0,-3.9651,-3.9651,-4.0173,-4.1085,-4.2313,-4.3807,-4.5466,-4.721,-4.7826,-4.7844,0.0,0.0,0.0,0.0,0.0,0.0,0.0,0.0,0.0,0.0,0.0,0.0,0.0,0.0,0.0,0.0,0.0,0.0,0.0,0.0,0.0,0.0,0.7837,0.9883,1.1719,1.1922,1.328,1.5986,1.5919,1.6905,1.8839,1.9503,1.9045,1.7368,0.9185,0.4698,0.2863,0.0,0.0,0.0,0.0,0.0,0.0,0.0,0.0,0.0,0.0,0.0,0.0,-2.27,-2.3497,-2.4245,-2.3905,0.0,0.0,0.0,0.0,0.0,-2.5539,-2.7045,-2.7661,-2.5391,-2.5622,-2.6198,-2.5438,-2.4743,-2.4288,0.0,0.0,0.0,0.0,-2.9224,0.0,0.0,0.0,0.0,0.0,0.0,0.0,0.0,0.0,0.0,0.0,0.0,0.0,0.0,0.0,0.0,0.0,0.0,0.0,-4.7442,-4.7291,-4.6817,-4.5859,-4.4793,-4.3756,-4.2835,-4.2622,-4.2474,-4.2325,-4.2175,-4.2009,0.0,0.0,-4.1814,-4.1633,-4.1633,-4.2034,-4.271,-4.3397,-4.4896,-4.6653,-4.6848,-4.7316,-4.7708,0.0,0.0,0.0,0.0,0.0,0.0,0.0,0.0,0.0,0.0,0.0,0.0,0.0,0.0,0.0,0.0,0.0,0.0,0.0,0.0,0.0,0.85,0.9602,0.9748,0.8725,1.1468,1.4453,1.7613,1.7836,1.9233,2.1515,1.6685,1.1774,0.6779,0.2042,-0.0431,-0.1287,0.0,0.0,0.0,0.0,0.0,0.0,0.0,0.0,0.0,0.0,0.0,0.0,0.0,-2.3691,-2.3958,-2.4226,0.0,0.0,0.0,0.0,0.0,-2.4957,-2.6539,-2.7848,-2.7121,-2.8482,-2.9866,-2.9423,-2.8858,-2.8403,0.0,0.0,0.0,0.0,0.0,0.0,0.0,0.0,0.0,0.0,0.0,0.0,0.0,0.0,0.0,0.0,0.0,0.0,0.0,0.0,0.0,0.0,0.0,0.0,0.0,-4.7216,-4.6524,-4.5145,-4.4697,-4.3956,-4.3014,-4.2743,-4.216,-4.1339,-4.1179,-4.1098,-4.1033,0.0,-4.1352,-4.1047,-4.141,-4.1485,-4.1454,-4.2082,-4.3074,-4.4283,-4.5195,-4.6062,-4.6523,0.0,0.0,0.0,0.0,0.0,0.0,0.0,0.0,0.0,0.0,0.0,0.0,0.0,0.0,0.0,0.0,0.0,0.0,0.0,0.0,1.1498,1.1126,1.0474,0.9569,0.831,1.0047,1.264,1.6108,1.4728,1.5417,1.7907,1.0741,0.3945,-0.2321,-0.4383,-0.5398,-0.5625,-0.7373,-1.1439,0.0,0.0,0.0,0.0,0.0,0.0,0.0,0.0,0.0,0.0,0.0,0.0,0.0,0.0,0.0,0.0,-2.4229,-2.4338,-2.4518,-2.4746,-2.6002,-2.753,-2.8577,0.0,-3.1944,-3.2807,-3.2327,0.0,0.0,0.0,0.0,0.0,0.0,0.0,0.0,0.0,0.0,0.0,0.0,0.0,0.0,0.0,0.0,0.0,0.0,0.0,0.0,0.0,0.0,0.0,0.0,0.0,0.0,-4.6855,-4.616,-4.4716,-4.4606,-4.4105,-4.3355,-4.2807,-4.1952,-4.079,-4.0495,-4.0339,-4.0211,-4.0641,-4.0568,-4.0133,-4.0655,-4.0648,-4.0417,-4.0805,-4.143,-4.2283,-4.3864,-4.4764,-4.532,0.0,0.0,0.0,0.0,0.0,0.0,0.0,0.0,0.0,0.0,0.0,0.0,0.0,0.0,0.0,0.0,0.0,0.0,0.0,0.0,1.4047,1.0946,0.8148,0.9558,1.5772,0.8117,0.5478,0.8505,0.1369,-0.1349,0.0161,0.0208,-0.0675,-0.2552,-0.8586,-1.2125,-1.4004,-2.0662,-2.3952,0.0,0.0,0.0,0.0,0.0,0.0,0.0,0.0,0.0,0.0,0.0,0.0,0.0,0.0,0.0,-2.465,-2.4582,-2.4615,-2.5003,-2.6481,-2.7172,-2.785,-2.9406,-2.9242,-2.9719,-3.3658,-3.3204,0.0,-3.5541,0.0,0.0,0.0,0.0,0.0,0.0,0.0,0.0,0.0,0.0,0.0,0.0,0.0,0.0,0.0,0.0,0.0,0.0,0.0,0.0,0.0,0.0,0.0,0.0,0.0,-4.5457,-4.4882,-4.4541,-4.4052,-4.3457,-4.2577,-4.2084,-4.1936,-4.0852,-4.0432,-4.0354,-4.0226,-4.0133,-4.0104,-4.0147,-4.0539,-4.105,-4.105,-4.179,-4.2785,-4.3493,-4.4131,-4.4514,0.0,0.0,0.0,0.0,0.0,0.0,0.0,0.0,0.0,0.0,0.0,0.0,0.0,0.0,0.0,0.0,0.0,0.0,0.0,0.0,0.8066,0.3407,0.157,0.2254,0.5675,0.1364,-0.0491,0.042,-0.1366,-0.4579,-0.9019,-0.8432,-1.115,-1.665,-1.9077,-2.0527,-2.1288,-2.4006,-2.52,-2.5222,0.0,0.0,0.0,0.0,0.0,0.0,0.0,0.0,0.0,0.0,-2.2457,-2.2918,-2.2997,-2.3758,-2.4538,-2.4011,-2.422,-2.4778,-2.5445,-2.6896,-2.8502,-2.963,-3.04,0.0,0.0,-3.6629,-3.7811,-3.9709,-4.0113,0.0,0.0,0.0,0.0,0.0,0.0,0.0,0.0,0.0,0.0,0.0,0.0,0.0,0.0,0.0,0.0,0.0,0.0,0.0,0.0,0.0,0.0,0.0,0.0,-4.5354,-4.4892,-4.4502,-4.4198,-4.3974,-4.2944,-4.1878,-4.0878,-4.0447,-3.9891,-3.9262,-3.958,-3.9445,-3.8942,-3.9363,-3.9445,-3.9383,-4.0098,-4.1063,-4.22,-4.3193,-4.3684,-4.3939,0.0,0.0,0.0,0.0,0.0,0.0,0.0,0.0,0.0,0.0,0.0,0.0,0.0,0.0,0.0,0.0,0.0,0.0,0.0,0.3072,0.2226,-0.1304,-0.4378,-0.5727,-0.5198,-0.8688,-0.9498,-0.7417,-0.8942,-1.238,-1.7501,-1.6965,-1.9763,-2.5221,-2.4917,-2.4975,-2.5298,-2.5186,-2.5129,-2.5133,-2.5057,0.0,0.0,0.0,0.0,0.0,0.0,0.0,0.0,0.0,-2.1573,-2.2098,-2.251,-2.3422,-2.4298,-2.3988,-2.4502,-2.5182,-2.5224,-2.679,-2.8643,-2.9756,0.0,0.0,-3.681,-3.8811,-4.0658,-4.287,-4.299,0.0,0.0,0.0,0.0,0.0,0.0,0.0,0.0,0.0,0.0,0.0,0.0,0.0,0.0,0.0,0.0,0.0,0.0,0.0,0.0,0.0,0.0,0.0,0.0,0.0,-4.5284,-4.4763,-4.4502,-4.4502,-4.3443,-4.2253,-4.094,-4.0409,-3.9793,-3.9031,-3.9134,-3.885,-3.8321,-3.8696,-3.8609,-3.8337,-3.9463,-4.0393,-4.1209,-4.2645,-4.3333,-4.363,0.0,0.0,0.0,0.0,0.0,0.0,0.0,0.0,0.0,0.0,0.0,0.0,0.0,0.0,0.0,0.0,0.0,0.0,-0.2724,-0.2548,-0.2346,-0.1806,-0.8973,-1.3495,-1.4555,-2.1872,-2.2142,-1.4932,-2.3632,-2.7308,-2.6185,-2.5513,-2.5237,-2.5257,-2.4336,-2.4505,-2.549,-2.5149,-2.5083,-2.5186,-2.5133,-2.4138,0.0,0.0,0.0,0.0,0.0,0.0,0.0,0.0,-2.1187,-2.1479,-2.3082,-2.3682,-2.3961,-2.4762,-2.5653,-2.6391,-2.6391,-2.7046,-2.8154,0.0,0.0,0.0,-3.8527,-3.9189,-4.0262,-4.4607,0.0,-4.3876,0.0,0.0,0.0,0.0,0.0,0.0,0.0,0.0,0.0,0.0,0.0,0.0,0.0,0.0,0.0,0.0,0.0,0.0,0.0,0.0,0.0,0.0,0.0,0.0,-4.6221,-4.5337,-4.4892,-4.491,-4.3989,-4.3235,-4.2522,-4.094,-4.0216,-4.0146,-3.9017,-3.8516,-3.8441,-3.8277,-3.8202,-3.8337,-3.9478,-3.9889,-4.01,-4.1917,-4.2986,-4.3571,0.0,0.0,0.0,0.0,0.0,0.0,0.0,0.0,0.0,0.0,0.0,0.0,0.0,0.0,0.0,0.0,0.0,0.0,-0.8586,-0.8822,-1.0667,-1.4788,-1.8256,-2.0215,-2.0546,-2.3288,-2.4527,-2.4163,-2.6005,-2.6689,-2.6246,-2.5336,-2.4981,-2.5091,-2.4858,-2.4998,-2.5426,-2.5265,-2.5205,-2.5186,-2.5133,-2.4115,0.0,0.0,0.0,0.0,0.0,0.0,0.0,0.0,0.0,0.0,-2.1839,-2.3214,-2.4572,-2.4247,-2.5191,-2.6213,-2.5631,-2.7952,0.0,-3.1806,0.0,0.0,0.0,-4.1909,0.0,0.0,0.0,0.0,0.0,0.0,0.0,0.0,0.0,0.0,0.0,0.0,0.0,0.0,0.0,0.0,0.0,0.0,0.0,0.0,0.0,0.0,0.0,0.0,0.0,0.0,0.0,0.0,-4.6695,-4.5802,-4.5249,-4.491,-4.4333,-4.3578,-4.2585,-4.1591,-4.0805,-4.0146,-3.9307,-3.8738,-3.8441,-3.8277,-3.8427,-3.887,-3.9621,-4.0185,-4.0752,-4.2583,-4.3108,-4.3047,0.0,0.0,0.0,0.0,0.0,0.0,0.0,0.0,0.0,0.0,0.0,0.0,0.0,0.0,0.0,0.0,0.0,0.0,0.0,0.0,-1.6735,-2.0404,-2.1869,-2.2892,-2.3569,-2.4082,-2.5072,-2.6542,-2.5485,-2.5029,-2.5176,-2.465,-2.4636,-2.5075,-2.5207,-2.5127,-2.4946,-2.5241,-2.5082,-2.4662,-2.5009,-2.4115,-2.259,0.0,0.0,0.0,0.0,0.0,0.0,0.0,0.0,0.0,-2.1263,-2.2432,-2.3784,-2.4321,-2.5453,-2.6655,-2.721,-2.9823,0.0,-3.4614,-3.7926,-4.139,-4.3782,0.0,0.0,0.0,0.0,0.0,0.0,0.0,0.0,0.0,0.0,0.0,0.0,0.0,0.0,0.0,0.0,0.0,0.0,0.0,0.0,0.0,0.0,0.0,0.0,0.0,0.0,0.0,0.0,0.0,-4.5709,-4.5012,-4.4526,-4.425,-4.413,-4.3635,-4.2758,-4.2172,-4.1656,-4.106,-3.999,-3.9162,-3.8516,-3.8366,-3.8516,-3.8797,-3.9621,-4.0115,-4.0684,-4.2458,-4.2925,-4.2818,0.0,0.0,0.0,0.0,0.0,0.0,0.0,0.0,0.0,0.0,0.0,0.0,0.0,0.0,0.0,0.0,0.0,0.0,0.0,0.0,-2.0564,-2.0499,-2.1418,-2.2706,-2.4373,-2.4316,-2.4204,-2.4076,-2.319,-2.3016,-2.3556,-2.3834,-2.4409,-2.5225,-2.5426,-2.5011,-2.4237,-2.5023,-2.4725,-2.377,-2.4626,-2.3973,-2.2492,-2.2505,0.0,0.0,0.0,0.0,0.0,0.0,0.0,0.0,-2.124,-2.1659,-2.2288,-2.4685,-2.6104,-2.7432,-2.9895,-3.195,0.0,-3.7652,-4.0001,0.0,-4.5321,-4.5966,0.0,0.0,0.0,0.0,0.0,0.0,0.0,0.0,0.0,0.0,0.0,0.0,0.0,0.0,0.0,0.0,0.0,0.0,0.0,0.0,0.0,0.0,0.0,0.0,0.0,0.0,0.0,0.0,-4.4008,-4.3602,-4.3328,0.0,-4.3597,-4.3484,-4.3081,-4.2764,-4.2569,-4.2443,-4.0925,-3.9636,-3.8664,-3.8664,-3.8501,-3.8427,-3.9478,-3.9975,-4.017,-4.1981,-4.2585,-4.271,0.0,0.0,0.0,0.0,0.0,0.0,0.0,0.0,0.0,0.0,0.0,0.0,0.0,0.0,0.0,0.0,0.0,0.0,0.0,0.0,-2.0564,-2.0499,-2.1948,-2.3555,-2.527,-2.3946,-2.3218,-2.3179,-2.3636,-2.3908,-2.3986,-2.4769,-2.52,-2.5367,-2.5453,-2.4965,-2.4061,-2.4244,-2.3765,-2.2885,-2.307,-2.2515,-2.1597,-2.1694,-2.1105,0.0,0.0,0.0,0.0,0.0,0.0,0.0,-2.1371,-2.21,-2.2888,-2.4115,-2.5582,-2.7084,-2.8349,-3.0999,0.0,0.0,-4.1828,-4.5269,-4.5928,-4.6027,0.0,0.0,0.0,0.0,0.0,0.0,0.0,0.0,0.0,0.0,0.0,0.0,0.0,0.0,0.0,0.0,0.0,0.0,0.0,0.0,0.0,0.0,0.0,0.0,0.0,0.0,0.0,-4.5124,-4.5003,-4.42,-4.3602,0.0,-4.3385,-4.3134,-4.27,-4.2941,-4.255,-4.1722,-4.1229,-4.0569,-3.9849,-3.9692,-3.9421,-3.922,-3.9849,-4.0355,-4.0768,-4.2142,-4.2269,-4.2077,0.0,0.0,0.0,0.0,0.0,0.0,0.0,0.0,0.0,0.0,0.0,0.0,0.0,0.0,0.0,0.0,0.0,0.0,0.0,0.0,-2.0711,-2.1113,-2.1956,-2.3026,-2.4329,-2.3057,-2.2555,-2.294,-2.3431,-2.3628,-2.3555,-2.4916,-2.5757,-2.6103,-2.5684,-2.4977,-2.4075,-2.3625,-2.2881,-2.2067,-2.2546,-2.2201,-2.1406,-2.1548,-2.1058,-2.0294,-2.0366,0.0,0.0,0.0,0.0,0.0,0.0,0.0,-2.1965,-2.3256,-2.4563,-2.6067,-2.8187,0.0,0.0,-3.9765,0.0,-4.6142,-4.6118,-4.6056,0.0,0.0,0.0,0.0,0.0,0.0,0.0,0.0,0.0,0.0,0.0,0.0,0.0,0.0,0.0,0.0,0.0,0.0,0.0,0.0,0.0,0.0,0.0,0.0,0.0,0.0,-4.4635,-4.4138,-4.3848,-4.3146,-4.2706,-4.2474,-4.2857,-4.2933,-4.2671,-4.2613,-4.2206,-4.147,-4.1004,-4.0598,-4.0216,-4.006,-3.9905,-3.9707,-4.0462,-4.0888,-4.1107,-4.1819,-4.2093,-4.2269,0.0,0.0,0.0,0.0,0.0,0.0,0.0,0.0,0.0,0.0,0.0,0.0,0.0,0.0,0.0,0.0,0.0,0.0,0.0,-1.9848,-2.0737,-2.1766,-2.1781,-2.216,-2.3001,-2.2216,-2.211,-2.2788,-2.2844,-2.3028,-2.3398,-2.4896,-2.597,-2.6618,-2.5848,-2.4929,-2.3908,-2.3149,-2.2199,-2.1295,-2.198,-2.1779,-2.1086,-2.1043,-2.0579,-1.996,-1.9954,-2.0051,-2.0186,-2.0186,0.0,0.0,0.0,0.0,-2.0714,-2.2309,-2.3383,-2.4779,-2.7962,0.0,-3.6152,-4.1757,-4.4516,0.0,-4.6059,-4.6054,0.0,0.0,0.0,0.0,0.0,0.0,0.0,0.0,0.0,0.0,0.0,0.0,0.0,0.0,0.0,0.0,0.0,0.0,0.0,0.0,0.0,0.0,0.0,0.0,-4.4335,-4.3931,-4.3471,-4.2996,-4.2564,-4.2074,-4.1788,-4.1719,-4.2316,-4.2532,-4.2364,-4.2021,-4.1722,-4.1443,-4.086,-4.0431,-4.026,-4.0384,-4.0278,-4.0209,-4.1095,-4.1475,-4.1541,-4.1704,-4.2142,-4.2772,0.0,0.0,0.0,0.0,0.0,0.0,0.0,0.0,0.0,0.0,0.0,-1.0443,-1.527,-1.635,0.0,0.0,0.0,0.0,-1.8164,0.0,0.0,-2.1737,-2.1738,-2.2146,-2.3063,-2.2182,-2.1787,-2.1964,-2.1913,-2.3047,-2.524,-2.5484,-2.5626,-2.5684,-2.5561,-2.4563,-2.2972,-2.2912,-2.1984,-2.0482,-1.9868,-1.9525,-1.9339,-1.8592,-1.8244,-1.8153,-1.8142,-1.8626,-1.9264,-1.9264,-1.978,0.0,0.0,0.0,0.0,-2.1591,-2.2488,-2.3595,0.0,0.0,-3.6628,0.0,-4.3188,-4.5163,0.0,0.0,0.0,0.0,0.0,0.0,0.0,0.0,0.0,0.0,0.0,0.0,0.0,0.0,0.0,0.0,0.0,0.0,0.0,0.0,0.0,0.0,0.0,0.0,0.0,-4.4515,-4.4468,-4.4411,-4.3962,-4.367,-4.3605,-4.3014,-4.2526,-4.2203,-4.1876,-4.1572,-4.1224,-4.1177,-4.124,-4.1444,-4.1313,-4.0955,-4.0424,-4.108,-4.1149,-4.0912,-4.1661,-4.2158,-4.2459,-4.2459,-4.2726,-4.3096,0.0,0.0,0.0,0.0,0.0,0.0,0.0,0.0,0.0,0.0,0.0,-1.3314,-1.5709,-1.5967,0.0,0.0,0.0,0.0,-1.7979,-1.8358,0.0,0.0,-2.0312,-2.0488,-2.0917,-2.0501,-2.0549,-2.1079,-2.0545,-2.2122,-2.56,-2.5605,-2.6615,-2.8364,-2.7384,-2.6253,-2.4981,-2.305,-2.152,-2.033,-1.9488,-1.973,-2.0355,-1.8557,-1.8741,-1.9856,-1.8885,-1.8761,-1.9167,0.0,0.0,0.0,0.0,0.0,0.0,0.0,-2.1584,-2.3076,-2.6729,-3.1339,-3.5958,0.0,-4.1831,-4.37,-4.5053,0.0,0.0,0.0,0.0,0.0,0.0,0.0,0.0,0.0,0.0,0.0,0.0,0.0,0.0,0.0,0.0,0.0,0.0,0.0,0.0,0.0,0.0,0.0,-4.4681,-4.4681,-4.4621,-4.4496,-4.4042,-4.3818,-4.3818,-4.3281,-4.2755,-4.2306,-4.1813,-4.1408,-4.1024,-4.1024,-4.1163,-4.1415,-4.084,-4.0623,-4.0743,-4.0815,-4.078,-4.0691,-4.1213,-4.1768,-4.2293,-4.2337,-4.29,-4.368,0.0,0.0,0.0,0.0,0.0,0.0,0.0,0.0,0.0,0.0,0.0,0.0,-1.5683,0.0,0.0,0.0,0.0,0.0,-1.7612,0.0,0.0,0.0,0.0,-1.9219,-1.9238,-1.9205,-1.9419,-1.9865,-1.9645,-2.162,-2.5639,-2.6058,-2.7968,-3.0957,-2.9206,-2.775,-2.6378,-2.3553,-2.1859,-2.0988,-2.0186,-2.0605,-2.1568,-2.0103,-2.074,-2.2159,-2.0418,-1.9915,0.0,0.0,0.0,0.0,0.0,0.0,0.0,0.0,0.0,0.0,0.0,0.0,-3.3394,-3.7125,-3.9482,-4.1412,0.0,0.0,0.0,0.0,0.0,0.0,0.0,0.0,0.0,0.0,0.0,0.0,0.0,0.0,0.0,0.0,0.0,0.0,0.0,0.0,0.0,0.0,0.0,0.0,-4.4896,-4.4825,-4.4739,-4.4587,-4.4192,-4.3962,-4.3962,-4.349,-4.2996,-4.2447,-4.1966,-4.1525,-4.1163,-4.1163,-4.1272,-4.1452,-4.0469,-4.0358,-4.0818,-4.0639,-4.0508,-4.0582,-4.091,-4.1436,-4.203,-4.227,-4.3089,-4.4063,0.0,0.0,0.0,0.0,0.0,0.0,0.0,0.0,0.0,0.0,0.0,0.0,0.0,0.0,0.0,-1.5383,0.0,0.0,0.0,0.0,0.0,0.0,0.0,0.0,-1.9293,-1.9234,-1.8846,-1.8121,-1.9678,-2.2237,-2.5733,-2.7313,-2.9458,-3.1864,-3.0102,-2.7971,-2.5601,0.0,0.0,0.0,-2.199,-2.172,-2.1959,-2.3483,-2.4135,-2.4038,-2.2296,0.0,0.0,0.0,0.0,0.0,0.0,0.0,0.0,0.0,0.0,0.0,0.0,-2.5712,0.0,-3.2446,-3.5471,0.0,0.0,0.0,0.0,0.0,0.0,0.0,0.0,0.0,0.0,0.0,0.0,0.0,0.0,0.0,0.0,0.0,0.0,0.0,0.0,0.0,0.0,0.0,0.0,0.0,-4.518,-4.4938,-4.4795,-4.4776,-4.4568,-4.4468,-4.4468,-4.3936,-4.3403,-4.2868,-4.2364,-4.1941,-4.156,-4.156,-4.1577,-4.1568,-4.071,-4.0387,-4.0472,-4.0744,-4.0889,-4.0919,-4.1239,-4.1633,-4.2064,-4.2708,-4.342,-4.4093,0.0,0.0,0.0,0.0,0.0,0.0,0.0,0.0,0.0,0.0,0.0,0.0,0.0,-1.5553,-1.5376,-1.5394,-1.5395,0.0,0.0,0.0,0.0,0.0,0.0,0.0,0.0,-1.8164,-1.802,-1.7161,-1.7771,-1.9823,-2.3224,-2.4914,-2.649,-2.7931,-2.8949,-2.8573,-2.7071,-2.5129,0.0,0.0,0.0,-2.3638,-2.5019,-2.3963,-2.5273,-2.7363,0.0,0.0,0.0,0.0,0.0,0.0,0.0,-2.0243,-1.9051,-1.88,-1.9824,0.0,0.0,0.0,0.0,-2.993,-3.2608,0.0,0.0,0.0,0.0,0.0,0.0,0.0,0.0,0.0,0.0,0.0,0.0,0.0,0.0,0.0,0.0,0.0,0.0,0.0,0.0,0.0,0.0,0.0,0.0,0.0,-4.5399,-4.5304,-4.5184,-4.5052,-4.4819,-4.4648,-4.4515,-4.4011,-4.3689,-4.3453,-4.2641,-4.2162,-4.2015,-4.1744,-4.1604,-4.1604,-4.13,-4.1007,-4.0789,-4.0658,-4.0443,-4.0288,-4.0627,-4.0963,-4.1365,-4.2159,-4.3203,-4.4182,0.0,0.0,0.0,0.0,0.0,0.0,0.0,0.0,0.0,-1.5778,0.0,0.0,0.0,0.0,-1.6096,-1.5821,-1.5801,-1.5684,-1.5429,0.0,0.0,0.0,0.0,0.0,0.0,-1.7269,-1.7146,-1.6256,-1.6856,-1.8444,-2.1007,-2.2987,-2.435,-2.521,-2.6637,-2.7427,0.0,0.0,0.0,-2.3972,0.0,0.0,-2.6971,-2.6679,-2.8337,0.0,0.0,0.0,0.0,0.0,0.0,0.0,0.0,-2.0737,-1.8935,-1.8065,-1.9342,0.0,-2.149,0.0,0.0,0.0,0.0,0.0,0.0,0.0,0.0,0.0,0.0,0.0,0.0,0.0,0.0,0.0,0.0,0.0,0.0,0.0,0.0,0.0,0.0,0.0,0.0,0.0,0.0,0.0,0.0,0.0,-4.561,-4.5543,-4.5381,-4.5074,-4.4872,-4.4688,-4.4515,-4.4181,-4.3931,-4.3786,-4.3086,-4.268,-4.2487,-4.2032,-4.1813,-4.1788,-4.1675,-4.1453,-4.1163,-4.0772,-4.0483,-4.0271,-4.0368,-4.0626,-4.1002,-4.1822,-4.2777,-4.3744,0.0,0.0,0.0,0.0,0.0,0.0,0.0,0.0,-1.5759,-1.6534,0.0,0.0,0.0,0.0,0.0,-1.6744,-1.665,-1.6295,-1.5485,-1.5409,0.0,0.0,0.0,0.0,0.0,-1.6735,-1.6304,-1.5448,-1.7127,-1.8395,-1.9275,-2.1792,-2.3392,-2.4116,-2.3325,-2.4363,-2.6695,0.0,-2.5563,-2.5749,0.0,-2.705,-2.7635,0.0,0.0,0.0,-3.2539,-3.2219,0.0,0.0,0.0,0.0,0.0,-2.1226,-1.8974,-1.8084,-1.8975,-2.0443,0.0,0.0,0.0,0.0,0.0,0.0,0.0,0.0,0.0,0.0,0.0,0.0,0.0,0.0,0.0,0.0,0.0,0.0,0.0,0.0,0.0,0.0,0.0,0.0,0.0,0.0,0.0,0.0,0.0,-4.58,-4.58,-4.561,-4.5304,-4.4825,-4.48,-4.4714,-4.4496,-4.444,-4.4199,-4.3818,-4.374,-4.3437,-4.2905,-4.2526,-4.2284,-4.2157,-4.1788,-4.1604,-4.156,-4.1163,-4.1024,-4.0977,-4.0611,-4.0659,-4.1064,-4.1712,-4.2233,-4.2672,0.0,0.0,0.0,0.0,0.0,-1.7569,-1.7315,-1.7284,-1.7362,0.0,0.0,0.0,-1.792,-1.844,-1.8716,-1.8492,-1.789,-1.7175,-1.6315,-1.5673,-1.5468,-1.5743,-1.6926,-1.7299,-1.6702,-1.7324,-1.7207,-1.633,-1.6822,-1.7168,-1.7391,-1.9363,-2.0402,-2.0647,-2.1624,-2.2494,-2.3201,-2.2941,0.0,-2.7403,-2.6444,-2.8297,0.0,0.0,0.0,0.0,0.0,-3.4923,-3.4676,0.0,-3.0703,-2.7791,0.0,0.0,-1.9877,-1.8993,-1.9882,-2.1054,-2.07,0.0,0.0,0.0,0.0,0.0,0.0,0.0,0.0,0.0,0.0,0.0,0.0,0.0,0.0,0.0,0.0,0.0,0.0,0.0,0.0,0.0,0.0,0.0,0.0,0.0,0.0,0.0,-4.5887,-4.586,-4.586,-4.5766,-4.5591,-4.5323,-4.5182,-4.4962,-4.4714,-4.456,-4.4411,-4.4288,-4.3931,-4.367,-4.3539,-4.3105,-4.2659,-4.2284,-4.2162,-4.1924,-4.1604,-4.1453,-4.1272,-4.1024,-4.1209,-4.1163,-4.1059,-4.1499,-4.2153,-4.2787,0.0,0.0,0.0,0.0,-1.9422,-1.9072,-1.9072,-1.875,-1.8765,0.0,0.0,0.0,-2.0007,-2.0803,-2.09,-1.9832,-1.9284,-1.8317,-1.6709,-1.6126,-1.5702,-1.5362,-1.6636,-1.7145,-1.6678,-1.7507,-1.753,-1.6667,-1.667,-1.647,-1.613,-1.7485,-1.8119,-1.8166,-1.915,-2.02,-2.1218,-2.0519,0.0,0.0,-2.7128,0.0,0.0,-3.2792,-3.4764,0.0,0.0,0.0,-3.6953,-3.6083,-3.3239,0.0,0.0,-2.3147,-2.1773,-2.0545,-2.1333,0.0,-2.156,0.0,0.0,0.0,0.0,0.0,0.0,0.0,0.0,0.0,0.0,0.0,0.0,0.0,0.0,0.0,0.0,0.0,0.0,0.0,0.0,0.0,0.0,0.0,0.0,0.0,0.0,0.0,-4.5706,-4.5893,-4.586,-4.5814,-4.5708,-4.5526,-4.5381,-4.5161,-4.48,-4.4662,-4.4587,-4.4515,-4.421,-4.4072,-4.4042,-4.3572,-4.3211,-4.2868,-4.2641,-4.2386,-4.2139,-4.2115,-4.1864,-4.149,-4.1587,-4.1569,-4.149,-4.1587,-4.1903,-4.2306,0.0,0.0,-2.0418,-2.0705,-2.0749,-2.0769,-2.0866,-2.0176,-2.0186,0.0,-2.1262,-2.1464,-2.3231,-2.395,-2.3381,-2.1129,-2.074,-1.958,-1.7058,-1.6709,-1.6203,-1.5345,-1.6233,-1.6739,-1.6747,-1.7592,-1.7618,-1.6746,-1.6649,-1.6185,-1.539,-1.6136,-1.6463,-1.6463,-1.657,-1.7969,-2.0141,-1.8924,-2.0781,-2.4824,-2.792,-3.0001,0.0,0.0,-3.6576,0.0,-3.8453,-3.8804,-3.8726,-3.777,-3.4677,0.0,0.0,-2.5659,-2.4522,-2.2768,-2.3398,0.0,-2.3572,-2.3886,0.0,0.0,0.0,0.0,-2.7989,-2.7768,0.0,0.0,0.0,0.0,0.0,0.0,0.0,0.0,0.0,0.0,0.0,0.0,0.0,0.0,0.0,0.0,0.0,0.0,-4.4575,-4.4575,-4.5227,-4.5602,-4.5524,-4.5606,-4.5587,-4.5409,-4.5468,-4.5304,-4.4872,-4.4825,-4.4714,-4.4524,-4.4496,-4.4487,-4.4383,-4.4042,-4.3836,-4.3675,-4.3211,-4.2978,-4.2905,-4.2867,-4.2619,-4.2239,-4.1856,-4.1941,-4.2239,-4.1874,-4.1719,-4.1719,0.0,-1.9854,-2.0779,-2.1528,-2.1645,-2.1862,-2.2506,-2.2459,-2.246,-2.28,-2.2649,-2.3445,-2.5873,-2.5038,-2.41,-2.3595,-2.2274,-2.0687,-1.8807,-1.7389,-1.6203,-1.5345,-1.6806,-1.7661,-1.7657,-1.85,-1.852,-1.7641,-1.6946,-1.6168,-1.5313,-1.5549,-1.5635,-1.5657,-1.636,-1.7354,-1.8593,-2.0332,0.0,-2.5517,-2.6197,0.0,-3.4003,-3.4697,-3.6762,-3.9337,-3.9505,-4.0028,-4.0364,0.0,-3.6296,-3.3496,0.0,0.0,0.0,-2.6329,0.0,-2.7154,-2.628,-2.6126,-2.6141,-2.582,0.0,0.0,0.0,-2.6047,0.0,0.0,0.0,0.0,0.0,0.0,0.0,0.0,0.0,0.0,0.0,0.0,0.0,0.0,0.0,0.0,0.0,0.0,-4.3733,-4.3733,-4.3835,-4.3865,-4.3789,-4.444,-4.4819,-4.4791,-4.525,-4.5454,-4.5361,-4.4988,-4.4795,-4.472,-4.4587,-4.4487,-4.4487,-4.4411,-4.4151,-4.3786,-4.367,-4.3419,-4.3069,-4.3051,-4.2904,-4.2696,-4.258,-4.2619,-4.2657,-4.258,-4.258,-4.258,-1.9744,-2.0182,-2.0952,-2.227,-2.2506,-2.2935,-2.4204,-2.4039,-2.4042,-2.4889,-2.5687,-2.6203,-2.6242,-2.6223,-2.5673,-2.4411,-2.3498,-2.21,-1.9988,-1.8628,-1.7311,-1.6009,-1.721,-1.7909,-1.7909,-1.8744,-1.8764,-1.7909,-1.7039,-1.6172,-1.5351,-1.5385,-1.582,-1.66,-1.6677,-1.7871,-1.989,-2.0815,-2.2689,-2.5238,-2.7386,0.0,-3.5444,-3.6274,-3.8202,-4.0446,-4.0457,-4.073,-4.0715,-3.8124,-3.6679,0.0,0.0,-3.1796,-3.1086,0.0,-2.9056,-2.9102,0.0,-2.7404,-2.7368,-2.7387,0.0,0.0,0.0,0.0,0.0,0.0,0.0,0.0,0.0,0.0,0.0,0.0,0.0,0.0,0.0,0.0,0.0,0.0,0.0,0.0,0.0,0.0,-4.2549,-4.3393,-4.3419,-4.3366,-4.3298,-4.3712,-4.3956,-4.3943,-4.4259,-4.4553,-4.4855,-4.4614,-4.4679,-4.5007,-4.4764,-4.4655,-4.4629,-4.4551,-4.4364,-4.4151,-4.4121,-4.398,-4.374,-4.3707,-4.3642,-4.3508,-4.3032,-4.2941,-4.3051,-4.2867,-4.281,-4.281,-2.04,-2.0453,-2.0971,-2.2561,-2.2992,-2.3634,-2.5219,-2.4994,-2.5254,-2.6937,-2.8314,-2.8471,-2.6758,-2.7595,-2.7593,-2.5889,-2.4962,-2.3704,-2.1827,-2.0266,-1.8811,-1.7408,-1.7851,-1.8142,-1.8142,-1.8841,-1.869,-1.7645,-1.693,-1.6191,-1.5399,-1.5578,-1.6422,-1.7822,-1.7358,-1.8953,-2.192,0.0,0.0,-2.5927,0.0,-3.2374,-3.4995,-3.716,-3.895,-4.0374,-4.0881,-4.1086,-4.0637,-3.7539,0.0,-3.6958,-3.3648,-3.3183,0.0,0.0,0.0,0.0,0.0,0.0,0.0,0.0,0.0,-2.7066,0.0,0.0,0.0,-2.6043,0.0,0.0,0.0,0.0,0.0,0.0,0.0,0.0,0.0,0.0,0.0,0.0,0.0,0.0,0.0,0.0,-4.0626,-4.2304,-4.2274,-4.2291,-4.2574,-4.2892,-4.3073,-4.3053,-4.3208,-4.354,-4.402,-4.4141,-4.4477,-4.5014,-4.4912,-4.4891,-4.4868,-4.4674,-4.456,-4.456,-4.4468,-4.4411,-4.443,-4.4373,-4.4344,-4.4237,-4.3471,-4.3334,-4.3542,-4.3177,-4.3069,-4.3069,-2.0453,-2.0449,-2.0745,-2.1776,-2.2589,-2.3422,-2.4395,-2.5123,-2.615,-2.7832,-2.8115,-2.8648,-2.9895,-2.9407,0.0,-3.075,0.0,0.0,-2.5956,0.0,-2.0196,-2.0065,-1.9405,-1.9055,-1.9055,-1.9152,-1.8391,-1.6748,-1.6651,-1.6198,-1.5419,-1.6189,-1.7051,-1.8007,-1.8576,0.0,0.0,0.0,-2.5546,0.0,-3.0531,-3.0568,0.0,-3.4625,-3.6676,-3.7766,-4.0088,-4.0999,-4.0808,0.0,-3.8277,-3.7906,0.0,-3.4956,-3.5273,0.0,0.0,0.0,0.0,0.0,0.0,0.0,-3.0808,0.0,0.0,0.0,-2.7185,-2.587,0.0,0.0,0.0,0.0,0.0,0.0,0.0,0.0,0.0,0.0,0.0,0.0,0.0,0.0,0.0,0.0,0.0,-3.8848,-3.821,-3.8403,-3.9943,-4.1432,-4.2208,-4.2144,-4.2899,-4.333,-4.3394,-4.3936,-4.4241,-4.432,-4.488,-4.514,-4.5159,-4.4891,-4.477,-4.4745,-4.4587,-4.4487,-4.4487,-4.4487,-4.444,-4.4383,-4.4207,-4.4158,-4.4177,-4.4085,-4.4042,-4.4023,-2.0357,-2.0355,-2.0642,-2.1582,-2.2072,-2.2806,-2.4144,-2.6374,-2.7793,-2.7483,-2.9116,-3.0414,0.0,0.0,0.0,0.0,0.0,-2.7893,0.0,0.0,-2.2203,-2.1296,-2.0903,-2.0474,-1.9968,-1.9458,-1.8603,-1.7402,-1.6405,-1.5731,-1.5428,-1.6289,-1.7652,-1.9422,-2.0239,0.0,-2.5818,0.0,-2.6291,0.0,0.0,0.0,0.0,-3.5169,-3.7977,-3.9286,-4.0389,-4.0869,-4.0648,0.0,-3.7708,0.0,0.0,0.0,0.0,0.0,0.0,0.0,0.0,0.0,0.0,0.0,0.0,0.0,0.0,0.0,-2.6342,0.0,0.0,0.0,0.0,0.0,0.0,0.0,0.0,0.0,0.0,0.0,0.0,0.0,0.0,0.0,0.0,0.0,0.0,0.0,0.0,-3.7055,-3.8753,-3.9982,-4.0851,-4.128,-4.1654,-4.2067,-4.2531,-4.2792,-4.3438,-4.4423,-4.4551,-4.4882,-4.5362,-4.514,-4.503,-4.503,-4.4934,-4.4905,-4.4905,-4.4905,-4.4789,-4.4636,-4.4584,-4.4458,-4.4285,-4.4274,-4.4274,-4.4255,-2.0258,-2.0268,-2.0489,-2.121,-2.1755,-2.2754,-2.4709,-2.7178,-2.8534,-2.7726,0.0,0.0,-3.1726,-3.224,0.0,0.0,-3.2205,-3.058,0.0,0.0,-2.4544,-2.3827,-2.2743,0.0,0.0,-2.023,-1.9154,-1.8355,-1.6851,-1.6112,-1.6132,-1.6991,-1.8504,-2.051,-2.1831,-2.4475,-2.7884,0.0,0.0,-2.9722,-2.947,-3.028,-3.2058,-3.6137,-3.8916,-4.0642,-4.0642,-4.0723,-4.049,-3.8138,-3.7598,0.0,-3.7351,0.0,0.0,0.0,0.0,0.0,-3.4231,0.0,0.0,0.0,0.0,0.0,0.0,0.0,0.0,0.0,0.0,0.0,0.0,0.0,0.0,0.0,0.0,0.0,0.0,0.0,0.0,0.0,0.0,0.0,0.0,0.0,0.0,0.0,0.0,0.0,-3.7511,-3.8656,-3.9614,-4.0413,-4.068,-4.1074,-4.1661,-4.1893,-4.2647,-4.3885,-4.4176,-4.4633,-4.525,-4.5266,-4.5264,-4.5264,-4.5222,-4.5201,-4.5201,-4.5201,-4.5074,-4.4896,-4.4896,-4.4764,-4.4541,-4.443,-4.4421,-4.4402,-2.0205,-2.0195,0.0,-2.042,-2.1795,-2.3766,-2.6416,-2.6962,-2.7637,0.0,0.0,0.0,0.0,0.0,0.0,0.0,0.0,-3.3316,-3.4909,0.0,-2.7223,-2.8797,-2.5135,-2.3378,0.0,0.0,-2.0056,-1.9258,-1.8359,-1.7928,-1.794,-1.8817,-1.9715,-2.0708,-2.3127,-2.5668,-2.8143,-2.8791,-3.0946,-3.3821,-3.2981,-3.4578,-3.7364,0.0,-3.8257,-4.0504,-4.0504,0.0,0.0,-3.8811,-3.8792,0.0,0.0,0.0,0.0,0.0,0.0,0.0,0.0,0.0,0.0,-3.2006,0.0,0.0,0.0,0.0,-2.8807,0.0,0.0,0.0,0.0,0.0,0.0,-2.6276,0.0,0.0,0.0,0.0,0.0,0.0,0.0,0.0,0.0,0.0,0.0,0.0,0.0,0.0,-3.5706,-3.7453,-3.8704,-3.9522,-4.0355,-4.0808,-4.0829,-4.1603,-4.2028,-4.2106,-4.3775,-4.4606,-4.4645,-4.523,-4.549,-4.5472,-4.5284,-4.5201,-4.5201,-4.5201,-4.5201,-4.5201,-4.5201,-4.518,-4.5118,-4.4819,-4.4695,-4.4701,0.0,0.0,0.0,0.0,0.0,-2.2933,-2.5628,-2.7491,0.0,0.0,0.0,0.0,0.0,0.0,-3.7216,0.0,0.0,-3.5968,-3.5399,-3.198,0.0,0.0,0.0,-2.6303,0.0,0.0,-2.2397,-2.1028,-1.9564,-1.9152,-1.9716,-1.9422,-2.0359,-2.2309,-2.3688,-2.6306,0.0,0.0,0.0,0.0,0.0,-3.614,-3.8534,0.0,0.0,-4.0363,-4.0363,-4.0444,0.0,-3.994,-3.9295,-3.8816,-3.9451,-3.872,-3.7803,-3.8615,-3.868,0.0,0.0,0.0,-3.8356,-3.43,0.0,0.0,0.0,0.0,0.0,0.0,0.0,0.0,0.0,0.0,-2.7172,-2.6454,-2.6198,0.0,0.0,0.0,0.0,0.0,0.0,0.0,0.0,0.0,0.0,0.0,0.0,0.0,0.0,-3.5735,-3.7288,-3.8665,-3.9555,-4.0261,-4.0792,-4.1064,-4.149,-4.2071,-4.2652,-4.3531,-4.4608,-4.4819,-4.5182,-4.5688,-4.5626,-4.5594,-4.5594,-4.5594,-4.5507,-4.5399,-4.5399,-4.5304,-4.5201,-4.5074,-4.503,-4.5052,-2.1923,0.0,0.0,0.0,0.0,0.0,0.0,0.0,0.0,0.0,-3.377,0.0,-3.8255,0.0,-3.9161,0.0,-3.949,-3.8093,-3.6397,-3.4237,0.0,-3.2566,-3.0549,0.0,0.0,-2.6822,-2.5038,-2.365,-2.1932,-2.1237,-2.1471,-2.0612,-2.1257,-2.315,0.0,-2.6448,-3.0046,0.0,-3.1667,0.0,0.0,-3.7606,0.0,0.0,-3.9814,-4.031,0.0,-4.0345,-4.0447,-4.0473,-3.9889,-3.9355,-4.0529,-3.9836,-3.8741,-3.9505,-3.9595,-3.9273,-3.8611,-3.9097,0.0,-3.5849,-3.464,0.0,-2.982,0.0,0.0,0.0,0.0,0.0,0.0,0.0,0.0,-2.7864,-2.6929,-2.5381,0.0,0.0,0.0,0.0,0.0,0.0,0.0,0.0,-2.6364,-2.7543,0.0,0.0,0.0,0.0,-3.6103,-3.7773,-3.8986,-3.9984,-4.0787,-4.0807,-4.1078,-4.164,-4.195,-4.2831,-4.4182,-4.4492,-4.508,-4.5847,-4.5847,-4.5814,-4.58,-4.58,-4.5723,-4.561,-4.561,-4.5543,-4.5399,-4.5323,-4.5343,-4.5418,0.0,0.0,0.0,0.0,-2.4287,0.0,0.0,0.0,-3.205,0.0,-3.5512,-3.7536,-4.0031,-4.0419,-4.1165,-4.2848,-4.1414,0.0,-3.817,-3.6517,0.0,0.0,-3.2778,-3.2199,-3.2852,-2.9815,0.0,0.0,-2.5213,-2.3987,-2.315,-2.235,-2.2369,-2.313,-2.4007,0.0,-2.9244,-3.0993,-3.3595,-3.67,-3.8343,-3.903,-3.9145,-3.9986,0.0,-4.031,-4.031,-4.031,-4.031,-4.0444,-4.0593,-4.0706,-4.0839,-4.098,-4.0929,-4.0091,-4.0442,-4.0733,-3.9071,-3.92,-3.9186,-3.6699,0.0,0.0,0.0,0.0,-3.423,0.0,0.0,0.0,0.0,0.0,0.0,-3.0188,-2.8039,-2.5477,0.0,0.0,0.0,0.0,0.0,0.0,0.0,0.0,-2.4883,-2.6547,-2.6754,0.0,0.0,0.0,-3.5169,-3.6881,-3.8637,-3.9946,-4.0798,-4.0818,-4.0818,-4.0828,-4.1651,-4.2505,-4.3377,-4.425,-4.5079,-4.5848,-4.5887,-4.586,-4.5794,-4.5814,-4.5814,-4.5814,-4.58,-4.58,-4.5786,-4.5594,-4.5642,-4.58,-2.3668,-2.4704,-2.5599,0.0,-2.4918,-2.5425,0.0,0.0,0.0,0.0,-3.7651,-3.9718,-4.1641,-4.1867,-4.216,-4.2795,-4.2432,0.0,0.0,0.0,0.0,-3.7761,-3.5721,-3.4345,-3.3782,-3.1261,0.0,-2.7779,0.0,-2.428,-2.4046,-2.3189,-2.2896,-2.313,0.0,0.0,-2.8354,-3.0085,-3.3371,-3.7483,-3.8572,-3.9393,0.0,0.0,-4.031,-4.031,-4.031,-4.031,-4.031,-4.0346,-4.0427,-4.0564,-4.0588,-4.0754,-4.0904,-4.0671,-4.0855,-4.0994,-4.0549,-4.0569,-4.0428,-3.9066,-3.778,-3.6456,0.0,0.0,0.0,0.0,0.0,0.0,0.0,0.0,0.0,0.0,-2.6093,0.0,0.0,0.0,0.0,0.0,0.0,0.0,0.0,0.0,-2.4458,-2.4904,0.0,0.0,0.0,0.0,0.0,-3.6034,-3.7791,-3.9438,-4.0933,-4.0906,-4.0902,-4.095,-4.1169,-4.1716,-4.2536,-4.3411,-4.4248,-4.504,-4.5641,-4.5893,-4.5861,-4.5874,-4.586,-4.586,-4.5814,-4.58,-4.578,-4.5737,-4.5752,-4.58,-2.4965,0.0,0.0,-2.8269,0.0,0.0,-3.0452,0.0,0.0,-3.6298,-3.8575,0.0,-4.173,-4.2949,-4.3738,-4.3883,-4.3539,0.0,0.0,0.0,0.0,-3.9133,-3.7805,-3.6628,-3.568,-3.3357,0.0,-2.9154,0.0,0.0,-2.4378,-2.315,-2.276,-2.3111,0.0,-2.5141,-2.7578,-3.07,-3.4016,-3.7273,-3.8514,0.0,0.0,-4.031,-4.031,-4.031,-4.031,-4.031,-4.031,-4.031,-4.0379,-4.0489,-4.0489,-4.0642,-4.0818,-4.0818,-4.0917,-4.1003,-4.1003,-4.1064,-4.0961,-4.0433,-3.9598,-3.8569,-3.7317,-3.742,-3.7498,0.0,0.0,0.0,0.0,0.0,0.0,0.0,0.0,0.0,0.0,0.0,0.0,0.0,0.0,0.0,0.0,0.0,0.0,0.0,0.0,0.0,0.0,0.0,0.0,-3.4658,-3.7104,-3.9059,-4.0423,-4.0772,-4.0948,-4.0991,-4.1007,-4.1437,-4.2265,-4.3142,-4.3968,-4.4781,-4.5626,-4.5987,-4.5998,-4.5988,-4.5998,-4.5979,-4.5949,-4.5928,-4.5936,-4.5936,-4.5866,-4.58,0.0,0.0,0.0,0.0,0.0,0.0,0.0,-3.3313,0.0,-3.7215,0.0,-4.0834,-4.1587,-4.3823,-4.5297,-4.5297,0.0,-4.3541,-4.2096,-4.1895,-4.113,-3.9576,-3.9406,-3.8877,-3.7884,-3.5513,0.0,0.0,0.0,0.0,-2.4178,-2.2732,-2.2361,-2.2931,0.0,0.0,0.0,-3.2064,-3.5015,0.0,-3.8495,-3.9623,-4.031,-4.031,-4.031,-4.031,-4.031,-4.031,-4.031,-4.031,-4.0381,-4.0457,-4.0457,-4.0579,-4.0668,-4.0668,-4.0776,-4.0907,-4.0907,-4.0996,-4.111,-4.111,-4.111,-4.0694,-3.9181,-3.8837,-3.884,-3.8846,-3.7533,-3.7007,0.0,0.0,0.0,0.0,0.0,0.0,0.0,0.0,0.0,0.0,0.0,0.0,0.0,0.0,0.0,0.0,0.0,0.0,0.0,0.0,0.0,-3.3256,-3.6518,0.0,-3.9699,0.0,-4.0994,-4.1016,-4.1016,-4.1406,-4.2184,-4.3144,-4.3977,-4.4699,-4.5679,-4.6104,-4.6114,-4.6094,-4.6089,-4.6108,-4.6098,-4.6099,-4.6105,-4.6105,-4.5988,-4.5835,0.0,0.0,0.0,0.0,0.0,-3.5249,-3.6945,-3.7746,-3.8663,-3.997,-4.2347,-4.4009,-4.4147,-4.4865,-4.5297,-4.5297,-4.5163,0.0,0.0,0.0,0.0,-4.1169,-4.1074,-4.0329,-3.882,-3.6404,-3.3943,0.0,0.0,0.0,-2.3247,-2.2933,-2.2524,-2.2094,0.0,0.0,-2.9938,-3.2776,0.0,-3.7636,-3.9393,-4.0157,-4.031,-4.031,-4.031,-4.031,-4.031,-4.031,-4.031,-4.031,-4.0329,-4.0346,-4.0346,-4.043,-4.0534,-4.0534,-4.0706,-4.0907,-4.0907,-4.0996,-4.111,-4.111,-4.111,-4.1013,-4.0713,-4.0635,-4.0641,-4.0641,-3.9828,-3.8605,-3.6904,0.0,0.0,0.0,0.0,0.0,0.0,0.0,0.0,0.0,0.0,0.0,0.0,0.0,0.0,0.0,0.0,0.0,0.0,0.0,0.0,0.0,0.0,0.0,0.0,0.0,-4.1038,-4.1073,-4.1073,-4.1151,-4.1366,-4.2909,-4.3685,-4.3895,-4.5496,-4.6179,-4.6179,-4.6128,-4.6099,-4.6108,-4.6108,-4.6098,-4.6105,-4.6105,-4.6079,-4.6044,0.0,0.0,0.0,0.0,0.0,0.0,0.0,-4.0523,0.0,-4.0868,-4.218,-4.315,-4.3194,-4.4456,-4.5297,-4.5297,-4.5297,-4.5125,-4.4704,-4.4265,-4.3654,-4.2832,-4.1953,0.0,-3.9699,-3.7245,-3.4539,-3.1595,0.0,0.0,-2.2945,-2.295,-2.2523,-2.1852,0.0,-2.6881,0.0,0.0,0.0,-3.6802,-3.8506,-3.9558,-4.0098,-4.0098,-4.0176,-4.0291,-4.0253,-4.0272,-4.031,-4.031,-4.031,-4.031,-4.031,-4.0327,-4.0396,-4.0396,-4.0519,-4.0649,-4.0681,-4.0765,-4.084,-4.0878,-4.0943,-4.0996,-4.0996,-4.1045,-4.111,-4.111,-4.0779,-3.9538,-3.6469,-3.3099,0.0,0.0,0.0,0.0,0.0,0.0,0.0,0.0,0.0,0.0,0.0,0.0,0.0,0.0,0.0,0.0,0.0,0.0,0.0,0.0,0.0,0.0,0.0,0.0,0.0,-4.1107,-4.1107,-4.1107,-4.1166,-4.2864,-4.365,-4.375,-4.5488,-4.625,-4.625,-4.6211,-4.619,-4.6208,-4.6208,-4.6205,-4.6202,-4.6202,-4.6189,-4.6133,0.0,-3.6083,0.0,0.0,-3.8832,0.0,-4.0401,-4.2253,-4.3087,-4.1675,-4.1908,-4.2238,-4.2353,-4.4115,-4.5297,-4.5297,-4.5297,-4.5297,-4.5297,-4.4666,-4.4188,-4.4017,-4.2737,-4.1571,-4.0578,-3.8419,-3.5679,0.0,0.0,0.0,-2.3663,-2.3127,-2.2778,0.0,0.0,0.0,0.0,0.0,-3.458,-3.6362,-3.7845,-3.8959,-3.9766,-3.9743,-3.9935,-4.0157,-4.0118,-4.0176,-4.0253,-4.0253,-4.0291,-4.031,-4.0272,-4.0291,-4.0291,-4.0291,-4.0344,-4.0406,-4.0438,-4.0526,-4.0604,-4.0681,-4.0765,-4.0849,-4.0849,-4.0935,-4.0964,-4.077,-4.0466,-3.9254,-3.6119,-3.3528,0.0,0.0,0.0,0.0,0.0,0.0,0.0,0.0,0.0,0.0,0.0,0.0,0.0,0.0,0.0,0.0,0.0,0.0,0.0,0.0,0.0,-3.6406,-3.802,0.0,-4.111,0.0,-4.1091,-4.1108,-4.1166,-4.2903,-4.3704,-4.3801,-4.5539,-4.63,-4.63,-4.63,-4.6303,-4.629,-4.629,-4.6295,-4.63,-4.63,-4.6269,-4.6202,0.0,0.0,0.0,0.0,0.0,0.0,0.0,-4.2792,-4.3881,-4.3713,-4.3952,-4.4233,-4.4464,-4.4979,-4.5297,-4.5297,-4.5297,-4.5297,-4.5297,-4.522,-4.4838,-4.4036,-4.3864,-4.3023,-4.1418,-4.0444,-3.8303,0.0,0.0,0.0,0.0,0.0,0.0,0.0,0.0,0.0,0.0,-3.3961,-3.5758,-3.8032,-3.8865,-3.9252,-3.9352,-3.9282,-3.947,-3.9762,-3.9739,-3.9911,-4.0117,-4.0117,-4.0215,-4.0291,-4.0234,-4.0196,-4.0196,-4.0196,-4.0307,-4.0389,-4.0334,-4.0462,-4.0604,-4.0604,-4.0617,-4.063,-4.0706,-4.0718,-4.0498,-3.9716,-3.8341,-3.6705,-3.4798,-3.4881,-3.4236,0.0,0.0,0.0,0.0,0.0,0.0,0.0,0.0,0.0,0.0,0.0,0.0,0.0,0.0,0.0,0.0,0.0,0.0,-2.9511,0.0,-3.5234,-3.6142,-3.945,0.0,-4.1093,-4.1101,-4.1108,-4.1166,-4.2903,-4.3704,-4.3801,-4.5539,-4.63,-4.63,-4.63,-4.63,-4.6303,-4.6303,-4.6306,-4.6293,-4.6293,-4.63,-4.6285,0.0,0.0,0.0,0.0,0.0,0.0,0.0,-4.324,-4.3781,-4.3974,-4.4221,-4.4438,-4.4546,-4.4669,-4.4764,-4.4764,-4.491,-4.4934,-4.4789,-4.491,-4.4759,-4.4272,-4.3942,-4.3354,-4.2489,-4.0886,-3.8817,0.0,0.0,0.0,0.0,0.0,0.0,0.0,0.0,-3.2163,-3.3897,-3.5569,-3.6832,-3.7729,-3.8514,-3.8886,-3.898,-3.8952,-3.9144,-3.9377,-3.9352,-3.9561,-3.9848,-3.9781,-3.9933,-4.0195,-4.0157,-4.0137,-4.0137,-4.0137,-4.0138,-4.0158,-4.0177,-4.0233,-4.0304,-4.0339,-4.0454,-4.0545,-4.0559,-4.0642,-4.0442,-3.9584,-3.8075,-3.6682,-3.5985,-3.4875,-3.3974,0.0,0.0,0.0,0.0,0.0,0.0,0.0,0.0,0.0,0.0,0.0,0.0,0.0,0.0,0.0,0.0,0.0,0.0,-2.8685,0.0,-3.511,-3.5956,-3.9381,-4.1094,-4.1105,-4.1094,-4.1108,-4.1166,-4.2903,-4.427,-4.5304,-4.6007,-4.63,-4.63,-4.63,-4.63,-4.63,-4.63,-4.6303,-4.6306,-4.6306,-4.629,-4.6297,-4.2127,0.0,-4.0914,0.0,-4.1952,-4.1691,-4.3256,-4.3497,-4.3582,-4.3814,-4.4011,-4.4184,-4.4383,-4.4383,-4.4383,-4.4383,-4.4572,-4.4599,-4.4411,-4.4572,-4.4599,-4.443,-4.4026,0.0,-4.3117,-4.1631,-3.9779,-3.7641,-3.5007,0.0,0.0,0.0,0.0,0.0,-3.3069,-3.4173,-3.519,-3.6754,-3.7528,-3.7692,-3.8227,-3.8541,-3.8658,-3.8628,-3.8789,-3.9008,-3.898,-3.9171,-3.9489,-3.9483,-3.9693,-3.9933,-4.0036,-4.0077,-4.0077,-4.0077,-4.0036,-3.9996,-4.0036,-4.0057,-4.0077,-4.0118,-4.0252,-4.0358,-4.0375,-4.0261,-3.9832,-3.8742,-3.7392,-3.6408,-3.6389,-3.4921,-3.3939,-3.4673,0.0,0.0,0.0,0.0,0.0,0.0,-2.6985,-2.583,0.0,0.0,0.0,0.0,0.0,0.0,0.0,0.0,0.0,0.0,0.0,0.0,0.0,-3.9387,-4.1101,-4.1104,-4.1104,-4.1108,-4.1166,-4.2903,-4.4641,-4.63,-4.63,-4.63,-4.63,-4.63,-4.63,-4.63,-4.63,-4.63,-4.63,-4.63,-4.6303,-4.6309,-4.2586,-4.2674,-4.2841,-4.3382,-4.3461,-4.3461,-4.3497,-4.3497,-4.3497,-4.3532,-4.3532,-4.3744,-4.4327,-4.4383,-4.4383,-4.4383,-4.4383,-4.4383,-4.4383,-4.4383,-4.4383,0.0,0.0,-4.3989,-4.3136,-4.3079,-4.1833,-3.9377,0.0,0.0,-3.4411,0.0,-3.3463,-3.4092,-3.4921,-3.6085,-3.7441,-3.7351,-3.7778,-3.846,-3.8354,-3.8307,-3.8307,-3.8241,-3.8368,-3.8615,-3.8615,-3.8789,-3.9063,-3.9408,-3.9483,-3.9575,-3.9892,-3.9996,-3.9996,-3.9996,-3.9996,-3.9975,-3.9911,-3.9954,-3.9996,-3.9996,-3.9996,-4.0017,-4.0077,-3.9451,-3.8385,-3.6783,-3.5791,-3.5217,-3.5229,-3.5292,-3.4808,-3.3103,0.0,0.0,0.0,0.0,0.0,0.0,-2.5858,-2.4682,-2.5598,0.0,0.0,0.0,0.0,0.0,0.0,0.0,0.0,-3.0663,-3.3255,0.0,-3.5891,-3.9357,-4.11,-4.1094,-4.1094,-4.1101,-4.1166,-4.2903,-4.4641,-4.63,-4.63,-4.63,-4.63,-4.63,-4.63,-4.63,-4.63,-4.63,-4.63,-4.63,-4.63,-4.63,-4.3207,-4.3262,-4.3302,-4.3477,-4.3497,-4.3497,-4.3497,-4.3497,-4.3497,-4.3497,-4.3497,-4.3582,-4.3777,-4.3809,-4.3809,0.0,-4.3999,-4.403,0.0,-4.3999,-4.403,-4.3809,-4.3999,-4.3899,-4.3389,-4.2995,-4.2344,-4.1379,0.0,0.0,0.0,-3.5528,-3.5974,-3.704,-3.7308,-3.8272,-3.9743,-3.9692,-3.9805,-4.0008,-3.9958,-3.989,-3.9802,-3.9767,-3.9819,-3.9888,-3.9888,-4.0087,-4.0388,-4.048,-4.043,-4.0347,-4.0446,-4.0235,-3.9933,-3.9933,-3.9933,-3.9933,-3.9911,-3.9954,-3.9996,-3.9996,-4.0017,-4.0077,-4.0096,-3.9013,-3.7833,-3.7319,-3.61,-3.5147,-3.5127,-3.5193,-3.507,-3.4534,-3.4274,0.0,0.0,0.0,0.0,0.0,0.0,-2.6669,0.0,-2.5834,0.0,0.0,0.0,0.0,0.0,0.0,0.0,0.0,-3.4286,0.0,-3.6503,-3.9371,-4.0837,-4.0818,-4.0818,-4.1457,-4.2649,-4.3987,-4.5152,-4.6176,-4.6269,-4.63,-4.63,-4.63,-4.63,-4.63,-4.63,-4.63,-4.63,-4.63,-4.63,-4.63,-4.3428,-4.3497,-4.3497,-4.3497,-4.3497,-4.3497,-4.3497,-4.3497,-4.3497,-4.3497,-4.3497,-4.3497,-4.3497,-4.3497,0.0,-4.3497,-4.3682,-4.3716,-4.3513,-4.3682,-4.3716,-4.3532,-4.3716,-4.3716,-4.3479,0.0,0.0,-4.2255,-4.0515,-3.9111,-3.807,-3.807,-3.8499,-3.9279,-3.9279,-3.9878,-4.0808,-4.0773,-4.0757,-4.0688,-4.0652,-4.0564,-4.051,-4.051,-4.051,-4.051,-4.051,-4.0633,-4.0839,-4.0954,-4.1014,-4.1033,-4.1121,-4.0796,-4.0306,-3.9984,-3.9889,-3.9889,-3.9889,-3.9933,-3.9954,-3.9954,-3.9975,-3.996,-3.9637,-3.8516,-3.7452,-3.7167,-3.6026,-3.5075,-3.5111,-3.5129,-3.5164,-3.52,-3.4263,-3.3331,-3.2783,0.0,0.0,0.0,0.0,0.0,0.0,-2.7699,0.0,0.0,0.0,0.0,0.0,0.0,0.0,-3.1938,-3.5191,0.0,-3.7768,-3.9716,-4.0696,-4.0688,-4.1028,-4.1923,-4.3303,-4.4367,-4.5285,-4.6024,-4.6105,-4.6144,-4.6144,-4.6144,-4.6144,-4.6144,-4.6144,-4.6181,-4.6216,-4.6216,-4.6269,-4.63,-4.3376,-4.3481,0.0,0.0,-4.3497,0.0,-4.3497,-4.3497,-4.3497,-4.3497,-4.3497,-4.3497,-4.3497,-4.3497,-4.3497,-4.3497,0.0,0.0,0.0,-4.3497,-4.3497,-4.3497,-4.3497,-4.3497,-4.3497,-4.3411,-4.3028,-4.2262,-4.1389,-4.0953,-4.0864,-4.0864,-4.0864,-4.0864,-4.0864,-4.0883,-4.0937,-4.0886,-4.0851,-4.0851,-4.0727,-4.0673,-4.0673,-4.0673,-4.0673,-4.0673,-4.0673,-4.0673,-4.0709,-4.1037,-4.1341,-4.159,-4.1838,-4.1619,-4.1082,-4.023,-3.9946,-3.9889,-3.9889,-3.9889,-3.9889,-3.9889,-3.9889,-3.9702,-3.8944,-3.8111,-3.7297,-3.6596,-3.5742,-3.5115,-3.5151,-3.5131,-3.511,-3.5107,-3.3696,-3.2607,-3.2615,0.0,0.0,0.0,0.0,0.0,0.0,-2.968,-3.0269,0.0,0.0,0.0,0.0,0.0,-3.1185,-3.4362,-3.6091,-3.7769,-3.9456,-4.0275,-4.07,-4.0764,-4.1652,-4.2478,-4.3303,-4.425,-4.5126,-4.5883,-4.5878,-4.5899,-4.5899,-4.5899,-4.5899,-4.5899,-4.5899,-4.5978,-4.6091,-4.6091,-4.6176,-4.6277,0.0,0.0,-4.3497,-4.3497,-4.3497,-4.3497,-4.3497,-4.3497,-4.3497,-4.3497,-4.3497,-4.3497,-4.3497,-4.3497,-4.3497,-4.3497,-4.3497,-4.3497,-4.3497,-4.3497,-4.3463,-4.3411,-4.3411,-4.3376,-4.3268,-4.3251,-4.3159,-4.2977,-4.274,-4.2304,-4.165,-4.165,-4.1596,-4.147,-4.147,-4.1851,-4.2395,-4.2376,-4.2376,-4.2376,-4.2321,-4.2321,-4.2321,-4.2321,-4.2321,-4.2321,-4.2321,-4.2321,-4.2358,-4.2432,-4.2245,-4.2055,-4.2101,-4.1938,-4.1638,-4.1056,-4.0423,-3.9889,-3.9889,-3.9889,-3.9889,-3.9889,-3.9889,-3.9832,-3.9665,-3.8982,-3.834,-3.8169,-3.6937,-3.5913,-3.5932,-3.5438,-3.483,-3.4239,-3.3285,-3.2384,-3.1783,-3.1192,0.0,0.0,-3.1432,-3.1522,-3.0739,-3.1569,-3.1584,0.0,0.0,0.0,0.0,-3.249,-3.3935,-3.599,-3.7742,-3.9108,-4.0089,-4.0283,-4.0703,-4.1334,-4.2302,-4.315,-4.3918,-4.5026,-4.5564,-4.5679,-4.5783,-4.5844,-4.5906,-4.5906,-4.5897,-4.5899,-4.5899,-4.592,-4.5959,-4.5959,-4.6041,-4.6138,-4.3286,-4.3393,-4.3428,-4.3428,-4.3393,-4.3375,-4.3428,-4.3393,-4.3375,-4.3446,-4.3393,-4.3393,-4.3446,-4.3393,-4.3339,-4.3339,-4.3428,-4.3428,-4.3428,-4.3393,-4.3358,-4.3305,-4.3305,-4.3251,-4.3214,-4.3178,-4.3105,-4.305,-4.305,-4.2832,-4.2341,-4.2341,-4.2304,-4.2248,-4.2248,-4.2484,-4.2882,-4.2882,-4.2882,-4.2882,-4.2882,-4.2882,-4.2882,-4.2882,-4.2882,-4.2882,-4.2882,-4.2882,-4.2882,-4.2882,-4.2832,-4.2748,-4.2748,-4.2519,-4.2221,-4.1972,-4.1216,-4.0423,-4.0025,-3.9889,-3.9889,-3.9889,-3.9889,-3.9889,-3.9889,-3.9286,-3.87,-3.87,-3.7656,-3.6632,-3.6272,-3.5837,-3.5173,-3.3995,-3.3101,-3.226,-3.147,-3.1386,0.0,-3.1397,-3.252,-3.294,-3.2084,-3.3131,-3.3142,-3.1473,0.0,0.0,-3.3245,-3.4836,-3.599,-3.6546,-3.823,-3.9482,-4.0291,-4.031,-4.0711,-4.1495,-4.2467,-4.331,-4.4076,-4.5141,-4.5594,-4.5528,-4.5607,-4.5634,-4.5665,-4.5699,-4.5728,-4.5722,-4.5756,-4.5809,-4.5859,-4.5859,-4.5919,-4.5996,-4.3123,-4.3233,-4.3376,-4.3376,-4.3305,-4.3251,-4.334,-4.3251,-4.3251,-4.334,-4.3251,-4.3251,-4.3359,-4.3251,-4.3214,-4.3214,-4.3305,-4.3359,-4.3376,-4.3251,-4.3214,-4.3178,-4.3178,-4.3178,-4.3178,-4.3086,-4.2994,-4.2882,-4.2882,-4.2882,-4.2882,-4.2882,-4.2882,-4.2882,-4.2882,-4.2882,-4.2882,-4.2882,-4.2882,-4.2882,-4.2882,-4.2882,-4.2882,-4.2882,-4.2882,-4.2882,-4.2882,-4.2882,-4.2882,-4.2882,-4.3087,-4.3336,-4.3336,-4.3082,-4.2767,-4.2656,-4.2043,-4.1217,-4.0212,-3.9898,-3.9867,-3.9889,-3.9889,-3.9889,-3.9889,-3.938,-3.8869,-3.8869,-3.8186,-3.7353,-3.6519,-3.6272,-3.5628,-3.3863,-3.3066,-3.2305,-3.1251,0.0,-3.173,-3.1596,-3.323,-3.4031,-3.3239,-3.4626,-3.495,-3.3468,-3.4721,-3.5558,0.0,-3.7045,-3.7561,-3.6873,-3.8381,-3.9546,-4.0291,-4.031,-4.0769,-4.1705,-4.245,-4.3291,-4.4227,-4.5033,-4.5379,-4.5379,-4.538,-4.5381,-4.54,-4.5457,-4.5476,-4.5495,-4.555,-4.5651,-4.5737,-4.5737,-4.5796,-4.5878,-4.3178,-4.3214,-4.3251,-4.3251,-4.3196,-4.3214,-4.3251,-4.3196,-4.3214,-4.3251,-4.3196,-4.3214,-4.3251,-4.3214,-4.3214,-4.3214,-4.316,-4.316,-4.3214,-4.3214,-4.3178,-4.3141,-4.3104,-4.3049,-4.2938,-4.2938,-4.2938,-4.2882,-4.2882,-4.2882,-4.2882,-4.2882,-4.2882,-4.2882,-4.2882,-4.2882,-4.2882,-4.2882,-4.2882,-4.2882,-4.2882,-4.2882,-4.2882,-4.2882,-4.2882,-4.2882,-4.2882,-4.2882,-4.2882,-4.2882,-4.292,-4.2995,-4.2995,-4.3122,-4.3162,-4.2466,-4.2371,-4.2135,-4.0589,-3.9862,-3.9623,-3.9826,-3.9889,-3.9889,-3.9889,-3.9816,-3.9721,-3.9721,-3.9077,-3.8224,-3.7371,-3.6651,-3.5401,-3.2994,-3.3125,-3.2745,-3.05,0.0,-3.3175,-3.2502,-3.4501,-3.5891,-3.574,-3.6652,-3.7128,-3.6843,-3.7071,-3.7224,-3.7224,-3.8156,-3.867,-3.8536,-3.9547,-4.0157,-4.031,-4.031,-4.1074,-4.2603,-4.2737,-4.3615,-4.5105,-4.526,-4.5317,-4.5317,-4.5317,-4.5359,-4.5399,-4.5399,-4.5419,-4.5419,-4.5419,-4.5475,-4.5549,-4.5549,-4.5661,-4.5808,-4.305,-4.3087,-4.3142,-4.316,-4.3105,-4.305,-4.316,-4.3105,-4.305,-4.316,-4.3105,-4.3068,-4.316,-4.3105,-4.305,-4.305,-4.3031,-4.2994,-4.305,-4.305,-4.3013,-4.2994,-4.2994,-4.2938,-4.2882,-4.2882,-4.2882,-4.2882,-4.2882,-4.2882,-4.2882,-4.2882,-4.2882,-4.2882,-4.2882,-4.2882,-4.2882,-4.2882,-4.2882,-4.2882,-4.2882,-4.2882,-4.2882,-4.2882,-4.2882,-4.2882,-4.2882,-4.2882,-4.2882,-4.2882,-4.2882,-4.2882,-4.2882,-4.3032,-4.3051,-4.2686,-4.2316,-4.1827,-4.1048,-4.0365,-3.9914,-4.0019,-3.9733,-3.9414,-3.9414,-3.9414,-3.9414,-3.9414,-3.9114,-3.8589,-3.7764,-3.7092,-3.6064,-3.4255,-3.3686,0.0,0.0,-3.3048,-3.3934,-3.3696,-3.5474,-3.6744,-3.6721,-3.7261,-3.7585,-3.7547,-3.7411,-3.7539,-3.7993,-3.8414,-3.8852,-3.9307,-3.9967,-4.031,-4.031,-4.0731,-4.1571,-4.2813,-4.3252,-4.4093,-4.5297,-4.5297,-4.5297,-4.5297,-4.5297,-4.5317,-4.5338,-4.5398,-4.5399,-4.54,-4.54,-4.5419,-4.5438,-4.5438,-4.553,-4.5632,-4.2938,-4.2995,-4.305,-4.3049,-4.2956,-4.2938,-4.3049,-4.2956,-4.2938,-4.3049,-4.2938,-4.2938,-4.3049,-4.2938,-4.2882,-4.2882,-4.2882,-4.2882,-4.2882,-4.2882,-4.2882,-4.2882,-4.2882,-4.2882,-4.2882,-4.2882,-4.2882,-4.2882,-4.2882,-4.2882,-4.2882,-4.2882,-4.2882,-4.2882,-4.2882,-4.2882,-4.2882,-4.2882,-4.2882,-4.2882,-4.2882,-4.2882,-4.2882,-4.2882,-4.2882,-4.2882,-4.2882,-4.2882,-4.2882,-4.2882,-4.2882,-4.2882,-4.2882,-4.2882,-4.2882,-4.2882,-4.2372,-4.1723,-4.1613,-4.0996,-4.0378,-4.0232,-3.9741,-3.9222,-3.9045,-3.9008,-3.9008,-3.9008,-3.9008,-3.8739,-3.7959,-3.7448,-3.6777,-3.5521,0.0,0.0,0.0,-3.42,-3.4753,-3.4753,-3.625,-3.7268,-3.7258,-3.7675,-3.7896,-3.7835,-3.7664,-3.7836,-3.8493,-3.8555,-3.8879,-3.9566,-4.0038,-4.0272,-4.031,-4.1094,-4.1934,-4.2813,-4.3634,-4.4456,-4.5297,-4.5297,-4.5297,-4.5297,-4.5297,-4.5297,-4.5297,-4.5378,-4.5378,-4.5379,-4.538,-4.54,-4.54,-4.54,-4.5438,-4.5476,-4.2882,-4.292,-4.292,-4.292,-4.29,-4.2882,-4.292,-4.29,-4.2882,-4.292,-4.29,-4.2882,-4.292,-4.29,-4.2882,-4.2882,-4.2882,-4.2882,-4.2882,-4.2882,-4.2882,-4.2882,-4.2882,-4.2882,-4.2882,-4.2882,-4.2882,-4.2882,-4.2882,-4.2882,-4.2882,-4.2882,-4.2882,-4.2882,-4.2882,-4.2882,-4.2882,-4.2882,-4.2882,-4.2882,-4.2882,-4.2882,-4.2882,-4.2882,-4.2882,-4.2882,-4.2882,-4.2882,-4.2882,-4.2882,-4.2882,-4.2882,-4.2882,-4.2882,-4.2882,-4.2882,-4.2829,-4.2686,-4.2258,-4.1552,-4.0841,-4.0322,-4.0168,-3.9927,-3.9175,-3.9008,-3.9008,-3.9008,-3.9008,-3.8739,-3.7959,-3.7755,-3.7198,-3.5588,0.0,0.0,-3.4235,-3.5428,-3.6133,-3.5354,-3.6716,-3.7745,-3.7745,-3.8449,-3.8877,-3.8877,-3.8877,-3.8887,-3.8943,-3.9005,-3.9122,-3.9231,-3.9873,-4.0234,-4.031,-4.1094,-4.1934,-4.2813,-4.3634,-4.4456,-4.5297,-4.5297,-4.5297,-4.5297,-4.5297,-4.5297,-4.5297,-4.5317,-4.5317,-4.5317,-4.5317,-4.5338,-4.5399,-4.5399,-4.54,-4.5419,-4.2882,-4.2882,-4.2882,-4.2882,-4.2882,-4.2882,-4.2882,-4.2882,-4.2882,-4.2882,-4.2882,-4.2882,-4.2882,-4.2882,-4.2882,-4.2882,-4.2882,-4.2882,-4.2882,-4.2882,-4.2882,-4.2882,-4.2882,-4.2882,-4.2882,-4.2882,-4.2882,-4.2882,-4.2882,-4.2882,-4.2882,-4.2595,-4.2634,-4.2882,-4.2279,-4.236,-4.2882,-4.2595,-4.2634,-4.2882,-4.2882,-4.2882,-4.2882,-4.2882,-4.2882,-4.2882,-4.2882,-4.2882,-4.2882,-4.2882,-4.2882,-4.2882,-4.2882,-4.2882,-4.2882,-4.2842,-4.2842,-4.2808,-4.2613,-4.2014,-4.1376,-4.1186,-4.0397,-3.9626,-3.9315,-3.8857,-3.8491,-3.8491,-3.8491,-3.84,-3.8107,-3.7783,-3.7456,-3.7144,0.0,-3.6288,-3.6177,-3.6549,-3.6783,-3.6609,-3.7606,-3.8287,-3.8287,-3.8729,-3.9008,-3.9008,-3.8828,-3.8759,-3.8759,-3.8789,-3.8915,-3.9125,-3.9402,-3.9787,-4.0363,-4.124,-4.2095,-4.2926,-4.3825,-4.4492,-4.4981,-4.4814,-4.4838,-4.4981,-4.4981,-4.4981,-4.5023,-4.5194,-4.5297,-4.5297,-4.5297,-4.5317,-4.5338,-4.5338,-4.5379,-4.54,-4.2882,-4.2882,-4.2882,-4.2882,-4.2882,-4.2882,-4.2882,-4.2882,-4.2882,-4.2882,-4.2882,-4.2882,-4.2882,-4.2882,-4.2882,-4.2882,-4.2882,-4.2882,-4.2882,-4.2882,-4.2882,-4.2882,-4.2882,-4.2882,-4.2882,-4.2882,-4.2882,-4.2882,-4.2882,-4.2844,-4.2673,-4.2498,-4.2418,-4.2458,-4.1931,-4.2015,-4.2458,-4.2279,-4.2378,-4.2673,-4.2844,-4.2882,-4.2882,-4.2882,-4.2882,-4.2882,-4.2882,-4.2882,-4.2882,-4.2882,-4.2882,-4.2882,-4.2882,-4.2882,-4.29,-4.2842,-4.2822,-4.2783,-4.2783,-4.2407,-4.1919,-4.1741,-4.089,-4.0022,-3.9804,-3.9134,-3.8502,-3.8502,-3.8287,-3.8124,-3.8124,-3.7816,-3.7713,-3.8083,-3.7394,-3.7022,-3.757,-3.7503,-3.7457,-3.7643,-3.8149,-3.8478,-3.8478,-3.8628,-3.8759,-3.8759,-3.8585,-3.8478,-3.8478,-3.8478,-3.8585,-3.8828,-3.8828,-3.9327,-4.0411,-4.1306,-4.2183,-4.3007,-4.3933,-4.4465,-4.4676,-4.4465,-4.4493,-4.4676,-4.4676,-4.4726,-4.48,-4.4953,-4.5129,-4.5297,-4.5173,-4.5213,-4.5297,-4.5297,-4.5317,-4.5378,-4.2882,-4.2882,-4.2882,-4.2882,-4.2882,-4.2882,-4.2882,-4.2882,-4.2882,-4.2882,-4.2882,-4.2882,-4.2882,-4.2882,-4.2882,-4.2882,-4.2882,-4.2882,-4.2882,-4.2882,-4.2882,-4.2882,-4.2882,-4.2882,-4.2882,-4.2882,-4.2882,-4.2882,-4.2882,-4.2673,-4.2216,-4.2673,-4.24,-4.1525,-4.1973,-4.1931,-4.1525,-4.1973,-4.2198,-4.2257,-4.2711,-4.2882,-4.2882,-4.2882,-4.2882,-4.2882,-4.2882,-4.2882,-4.2882,-4.2882,-4.2882,-4.2882,-4.2882,-4.2882,-4.2882,-4.29,-4.2842,-4.2802,-4.2802,-4.2706,-4.2451,-4.1848,-4.1649,-4.1413,-4.0673,-3.9823,-3.9193,-3.9193,-3.8527,-3.7917,-3.7917,-3.7951,-3.8002,-3.7984,-3.8122,-3.8192,-3.8192,-3.8192,-3.8192,-3.8192,-3.8192,-3.8192,-3.8192,-3.8192,-3.8192,-3.8192,-3.8192,-3.8192,-3.8192,-3.8192,-3.8192,-3.8192,-3.8192,-3.8952,-4.0492,-4.1311,-4.2128,-4.3007,-4.3896,-4.4318,-4.4383,-4.4383,-4.4383,-4.4402,-4.4402,-4.4546,-4.4776,-4.4493,-4.4764,-4.5256,-4.4934,-4.5,-4.5297,-4.5297,-4.5297,-4.5297,-4.2882,-4.2882,-4.2882,-4.2882,-4.2882,-4.2882,-4.2882,-4.2882,-4.2882,-4.2882,-4.2882,-4.2882,-4.2882,-4.2882,-4.2882,-4.2882,-4.2882,-4.2882,-4.2882,-4.2882,-4.2882,-4.2882,-4.2882,-4.2882,-4.2882,-4.2882,-4.2882,-4.2882,-4.2882,-4.2844,-4.2673,-4.2498,-4.2239,-4.1973,-4.1455,-4.1321,-4.1481,-4.1276,-4.141,-4.176,-4.2239,-4.2418,-4.2458,-4.275,-4.2882,-4.2882,-4.2882,-4.2882,-4.2882,-4.2882,-4.2882,-4.2882,-4.2882,-4.2862,-4.2804,-4.2727,-4.2627,-4.2584,-4.2584,-4.2508,-4.2396,-4.2343,-4.1913,-4.1389,-4.1193,-4.0508,-3.9895,-3.9895,-3.9679,-3.9373,-3.8834,-3.878,-3.8582,-3.8006,-3.7969,-3.8003,-3.8036,-3.807,-3.8088,-3.8192,-3.8192,-3.8192,-3.8192,-3.8192,-3.8192,-3.8192,-3.8192,-3.8192,-3.8192,-3.8192,-3.8192,-3.8192,-3.8735,-3.9514,-4.051,-4.0839,-4.1702,-4.3059,-4.3401,-4.366,-4.3881,-4.3777,-4.3809,-4.3992,-4.3992,-4.4035,-4.4106,-4.4146,-4.4337,-4.4591,-4.4484,-4.465,-4.4934,-4.472,-4.477,-4.4957,-4.2882,-4.2882,-4.2844,-4.2673,-4.2768,-4.275,-4.24,-4.2498,-4.2555,-4.236,-4.2498,-4.2634,-4.2634,-4.2634,-4.2711,-4.2882,-4.2882,-4.2882,-4.2882,-4.2882,-4.2882,-4.2882,-4.2882,-4.2882,-4.2882,-4.2882,-4.2882,-4.2882,-4.2882,-4.2806,-4.2634,-4.2498,-4.2198,-4.163,-4.123,-4.1019,-4.0955,-4.0832,-4.0972,-4.1276,-4.1717,-4.1931,-4.1931,-4.2239,-4.2458,-4.2634,-4.2634,-4.275,-4.29,-4.2862,-4.2824,-4.2786,-4.2786,-4.2631,-4.2472,-4.257,-4.2409,-4.2205,-4.2445,-4.2405,-4.2328,-4.245,-4.2171,-4.183,-4.189,-4.1223,-4.0628,-4.0628,-4.0321,-3.9962,-3.9514,-3.9442,-3.9228,-3.842,-3.8331,-3.8294,-3.7987,-3.7967,-3.8002,-3.8088,-3.8122,-3.814,-3.8192,-3.8192,-3.8192,-3.8192,-3.8192,-3.8192,-3.8192,-3.85,-3.8576,-3.8348,-3.9122,-3.9839,-4.0402,-4.0497,-4.1391,-4.3104,-4.3123,-4.3268,-4.3511,-4.3393,-4.341,-4.356,-4.356,-4.3627,-4.374,-4.3754,-4.3924,-4.4213,-4.4095,-4.427,-4.4572,-4.4411,-4.4465,-4.465,-4.275,-4.275,-4.2634,-4.2198,-4.2498,-4.2498,-4.1613,-4.1846,-4.1973,-4.1569,-4.1888,-4.2115,-4.2115,-4.2115,-4.2338,-4.275,-4.275,-4.275,-4.275,-4.275,-4.2788,-4.2844,-4.2806,-4.2788,-4.2844,-4.2882,-4.2882,-4.2844,-4.2844,-4.2634,-4.2297,-4.2673,-4.2139,-4.0926,-4.1321,-4.1001,-4.0171,-4.058,-4.0754,-4.0802,-4.123,-4.1437,-4.1437,-4.1481,-4.176,-4.2115,-4.2115,-4.24,-4.275,-4.2727,-4.2667,-4.2609,-4.2609,-4.2292,-4.2026,-4.249,-4.2151,-4.1813,-4.2346,-4.2346,-4.2187,-4.2246,-4.2305,-4.2405,-4.249,-4.1916,-4.1393,-4.1336,-4.0667,-4.011,-4.0039,-4.0116,-3.9922,-3.9136,-3.9102,-3.8905,-3.8187,-3.8043,-3.8024,-3.811,-3.8038,-3.8036,-3.8174,-3.8174,-3.8192,-3.8192,-3.8246,-3.8301,-3.8301,-3.9027,-3.9229,-3.8754,-3.9444,-3.9992,-4.034,-4.0385,-4.1298,-4.3012,-4.3012,-4.3086,-4.316,-4.3178,-4.3178,-4.3178,-4.3178,-4.3356,-4.3627,-4.3286,-4.3508,-4.3998,-4.374,-4.3899,-4.4231,-4.4202,-4.426,-4.4383,-4.1785,-4.1785,-4.1785,-4.1656,-4.176,-4.1743,-4.1525,-4.1569,-4.163,-4.1525,-4.1569,-4.1656,-4.1656,-4.1656,-4.17,-4.1785,-4.1785,-4.1785,-4.1785,-4.17,-4.1888,-4.2338,-4.1888,-4.1888,-4.2338,-4.2711,-4.2711,-4.2338,-4.2338,-4.2498,-4.275,-4.2458,-4.2198,-4.1888,-4.163,-4.1185,-4.0628,-4.0353,-4.0254,-4.0303,-4.0754,-4.0972,-4.0972,-4.1348,-4.1569,-4.1613,-4.1525,-4.1569,-4.17,-4.2008,-4.2333,-4.2609,-4.2609,-4.249,-4.2405,-4.2486,-4.2061,-4.1666,-4.2205,-4.1744,-4.122,-4.1578,-4.1401,-4.1265,-4.1666,-4.1919,-4.1979,-4.1548,-4.1611,-4.1591,-4.0967,-4.0842,-4.0631,-3.9828,-3.9703,-3.9705,-3.9638,-3.9101,-3.8726,-3.887,-3.8346,-3.8018,-3.8036,-3.8036,-3.8002,-3.7969,-3.8563,-3.8905,-3.8905,-3.9367,-3.9741,-3.9984,-4.0139,-4.0394,-4.0842,-4.111,-4.1644,-4.2396,-4.2396,-4.2595,-4.2975,-4.3086,-4.3123,-4.3123,-4.3123,-4.316,-4.3214,-4.305,-4.3105,-4.3304,-4.3251,-4.3495,-4.3804,-4.3545,-4.3627,-4.3868,-4.1481,-4.1437,-4.1348,-4.1185,-4.1348,-4.1348,-4.0908,-4.1001,-4.1111,-4.0861,-4.1001,-4.1185,-4.1185,-4.1139,-4.103,-4.0984,-4.1196,-4.1331,-4.1331,-4.1241,-4.1331,-4.1639,-4.142,-4.1303,-4.1348,-4.1871,-4.2056,-4.1846,-4.1846,-4.1973,-4.2221,-4.1973,-4.176,-4.1499,-4.1276,-4.0926,-4.0434,-4.0221,-4.007,-4.0121,-4.0353,-4.05,-4.0483,-4.0737,-4.0955,-4.1139,-4.1094,-4.1139,-4.1258,-4.1648,-4.1941,-4.211,-4.2391,-4.2086,-4.1788,-4.2264,-4.1831,-4.1356,-4.2086,-4.1917,-4.1578,-4.1813,-4.1683,-4.149,-4.1472,-4.1534,-4.1596,-4.1516,-4.1534,-4.1473,-4.1051,-4.0981,-4.0778,-4.0212,-4.0129,-4.0046,-3.9731,-3.9305,-3.9079,-3.9174,-3.8859,-3.8722,-3.9014,-3.9049,-3.9014,-3.9013,-3.9391,-3.9625,-3.9625,-4.0,-4.0331,-4.0602,-4.0729,-4.0945,-4.1226,-4.1419,-4.1613,-4.1888,-4.2115,-4.2338,-4.2595,-4.2862,-4.2994,-4.2994,-4.2994,-4.2994,-4.2994,-4.2938,-4.2938,-4.2994,-4.2994,-4.316,-4.3391,-4.3214,-4.3391,-4.3726,-4.1168,-4.1122,-4.0955,-4.0659,-4.0908,-4.0955,-4.0154,-4.0336,-4.0483,-4.007,-4.0385,-4.0611,-4.0611,-4.0497,-4.04,-4.0319,-4.0655,-4.0874,-4.0874,-4.0827,-4.0856,-4.0967,-4.0984,-4.0814,-4.04,-4.0814,-4.1122,-4.1303,-4.1303,-4.1348,-4.1437,-4.1348,-4.1139,-4.0832,-4.0754,-4.0531,-4.0171,-4.007,-4.002,-4.002,-4.002,-4.002,-4.002,-4.002,-4.0254,-4.0611,-4.058,-4.0737,-4.0938,-4.1276,-4.1383,-4.1445,-4.1917,-4.1445,-4.0943,-4.177,-4.1401,-4.0879,-4.1899,-4.1959,-4.1813,-4.2002,-4.1917,-4.1666,-4.1338,-4.1065,-4.1036,-4.1311,-4.1065,-4.0802,-4.0896,-4.0849,-4.0735,-4.0604,-4.0499,-4.0228,-3.9581,-3.9346,-3.9283,-3.935,-3.9228,-3.9365,-3.9878,-3.9917,-3.9917,-3.9899,-4.0042,-4.0113,-4.0113,-4.0524,-4.0782,-4.0884,-4.1077,-4.1258,-4.1481,-4.1393,-4.1393,-4.1393,-4.1846,-4.2074,-4.2115,-4.2595,-4.2768,-4.2788,-4.2882,-4.2882,-4.2882,-4.2882,-4.2882,-4.2882,-4.2882,-4.2956,-4.3067,-4.3067,-4.3304,-4.3594,-3.9952,-3.9952,-3.9901,-3.9867,-3.9901,-3.9901,-3.9781,-3.9833,-3.9816,-3.9781,-3.9816,-3.9867,-3.9867,-3.9816,-3.9816,-3.9816,-3.985,-3.9901,-3.9901,-3.9764,-3.9952,-4.048,-3.9986,-3.9952,-4.04,-4.0087,-4.012,-4.0528,-4.0528,-4.075,-4.1133,-4.075,-4.075,-4.1059,-4.0625,-4.0417,-4.0319,-3.9918,-3.9729,-3.9729,-3.9729,-3.9729,-3.9729,-3.9729,-3.9764,-3.9816,-3.9729,-3.9901,-4.0136,-4.0186,-4.0546,-4.0896,-4.099,-4.0896,-4.0849,-4.0943,-4.0594,-4.0351,-4.1338,-4.0689,-3.9885,-4.0802,-4.0368,-3.9782,-4.0103,-4.0814,-4.1293,-4.099,-4.0849,-4.0943,-4.1338,-4.1065,-4.0908,-4.1305,-4.1018,-4.0706,-4.0602,-3.9968,-3.9554,-3.9554,-3.9039,-3.8729,-3.8816,-3.8816,-3.8756,-3.8651,-3.9292,-3.9673,-3.9673,-4.0492,-4.0937,-4.0902,-4.078,-4.0926,-4.1303,-4.1065,-4.0879,-4.0896,-4.1366,-4.1569,-4.1613,-4.2074,-4.2279,-4.2338,-4.2711,-4.2882,-4.2882,-4.2882,-4.2882,-4.2882,-4.2882,-4.292,-4.2938,-4.2938,-4.3013,-4.3196,-3.9677,-3.9625,-3.959,-3.9677,-3.9677,-3.9677,-3.9677,-3.9677,-3.9677,-3.9677,-3.9677,-3.9677,-3.9677,-3.9625,-3.9537,-3.9468,-3.9484,-3.9484,-3.9484,-3.9432,-3.952,-3.9799,-3.9573,-3.9573,-3.9799,-3.9677,-3.9677,-3.9799,-3.9952,-4.012,-4.0285,-4.0137,-4.012,-4.0302,-4.007,-3.9986,-4.0003,-3.9764,-3.9677,-3.9677,-3.9677,-3.9677,-3.9677,-3.9677,-3.9677,-3.9677,-3.9537,-3.959,-3.9747,-3.9919,-4.0153,-4.04,-4.0707,-4.0594,-4.04,-4.0707,-4.04,-4.0136,-4.0926,-4.0642,-4.0237,-4.0707,-4.0466,-4.0187,-4.04,-4.0528,-4.0672,-4.0802,-4.0368,-4.0187,-4.0972,-4.0466,-4.022,-4.0972,-4.0689,-4.0351,-4.0351,-4.0061,-3.9808,-3.9808,-3.9851,-3.983,-3.983,-3.983,-3.9784,-3.9738,-4.0048,-4.0255,-4.0255,-4.0357,-4.0559,-4.0903,-4.0559,-4.0625,-4.1196,-4.1013,-4.0844,-4.0689,-4.0908,-4.1047,-4.1139,-4.1569,-4.1803,-4.1803,-4.2015,-4.2279,-4.2498,-4.2498,-4.2673,-4.2882,-4.2882,-4.2882,-4.2882,-4.2882,-4.2938,-4.2994]},{"header":{"parameterUnit":"m.s-1","parameterCategory":1,"la1":30.6,"la2":28.766,"lo1":-90.7593,"lo2":-88.6598,"dy":0.0162,"dx":0.0183,"nx":116,"ny":114,"refTime":"2024-06-06T06:00:00:Z","depth":0,"parameterNumber":3,"parameterNumberName":"V-component_of_WINDS"},"data":[0.0,0.0,0.0,0.0,0.0,0.0,0.0,0.0,0.0,0.0,0.0,0.0,0.0,0.0,0.0,0.0,0.0,0.0,0.0,0.0,0.0,0.0,0.0,0.0,0.0,0.0,0.0,0.0,0.0,0.0,0.0,0.0,0.0,0.0,0.0,0.0,0.0,0.0,0.0,0.0,0.0,0.0,0.0,0.0,0.0,0.0,0.0,0.0,0.0,0.0,0.0,0.0,0.0,0.0,0.0,0.0,0.0,0.0,0.0,0.0,0.0,0.0,0.0,0.0,0.0,0.0,0.0,0.0,0.0,0.0,0.0,0.0,0.0,0.0,0.0,0.0,0.0,0.0,0.0,0.0,0.0,0.0,0.0,0.0,0.0,0.0,0.0,0.0,0.0,0.0,0.0,0.0,0.0,0.0,0.0,0.0,0.0,0.0,0.0,0.0,0.0,0.0,0.0,0.0,0.0,0.0,0.0,0.0,0.0,0.0,0.0,0.0,0.0,0.0,0.0,0.0,0.0,0.0,0.0,0.0,0.0,0.0,0.0,0.0,0.0,0.0,0.0,0.0,0.0,0.0,0.0,0.0,0.0,0.0,0.0,0.0,0.0,0.0,0.0,0.0,0.0,0.0,0.0,0.0,0.0,0.0,0.0,0.0,0.0,0.0,0.0,0.0,0.0,0.0,0.0,0.0,0.0,0.0,0.0,0.0,0.0,0.0,0.0,0.0,0.0,0.0,0.0,0.0,0.0,0.0,0.0,0.0,0.0,0.0,0.0,0.0,0.0,0.0,0.0,0.0,0.0,0.0,0.0,0.0,0.0,0.0,0.0,0.0,0.0,0.0,0.0,0.0,0.0,0.0,0.0,0.0,0.0,0.0,0.0,0.0,0.0,0.0,0.0,0.0,0.0,0.0,0.0,0.0,0.0,0.0,0.0,0.0,0.0,0.0,0.0,0.0,0.0,0.0,0.0,0.0,0.0,0.0,0.0,0.0,0.0,0.0,0.0,0.0,0.0,0.0,0.0,0.0,0.0,0.0,0.0,0.0,0.0,0.0,0.0,0.0,0.0,0.0,0.0,0.0,0.0,0.0,0.0,0.0,0.0,0.0,0.0,0.0,0.0,0.0,0.0,0.0,0.0,0.0,0.0,0.0,0.0,0.0,0.0,0.0,0.0,0.0,0.0,0.0,0.0,0.0,0.0,0.0,0.0,0.0,0.0,0.0,0.0,0.0,0.0,0.0,0.0,0.0,0.0,0.0,0.0,0.0,0.0,0.0,0.0,0.0,0.0,0.0,0.0,0.0,0.0,0.0,0.0,0.0,0.0,0.0,0.0,0.0,0.0,0.0,0.0,0.0,0.0,0.0,0.0,0.0,0.0,0.0,0.0,0.0,0.0,0.0,0.0,0.0,0.0,0.0,0.0,0.0,0.0,0.0,0.0,0.0,0.0,0.0,0.0,0.0,0.0,0.0,0.0,0.0,0.0,0.0,0.0,0.0,0.0,0.0,0.0,0.0,0.0,0.0,0.0,0.0,0.0,0.0,0.0,0.0,0.0,0.0,0.0,0.0,0.0,0.0,0.0,0.0,0.0,0.0,0.0,0.0,0.0,0.0,0.0,0.0,0.0,0.0,0.0,0.0,0.0,0.0,0.0,0.0,0.0,0.0,0.0,0.0,0.0,0.0,0.0,0.0,0.0,0.0,0.0,0.0,0.0,0.0,0.0,0.0,0.0,0.0,0.0,0.0,0.0,0.0,0.0,0.0,0.0,0.0,0.0,0.0,0.0,0.0,0.0,0.0,0.0,0.0,0.0,0.0,0.0,0.0,0.0,0.0,0.0,0.0,0.0,0.0,0.0,0.0,0.0,0.0,0.0,0.0,0.0,0.0,0.0,0.0,0.0,0.0,0.0,0.0,0.0,0.0,0.0,0.0,0.0,0.0,0.0,0.0,0.0,0.0,0.0,0.0,0.0,0.0,0.0,0.0,0.0,0.0,0.0,0.0,0.0,0.0,0.0,0.0,0.0,0.0,0.0,0.0,0.0,0.0,0.0,0.0,0.0,0.0,0.0,0.0,0.0,0.0,0.0,0.0,0.0,0.0,0.0,0.0,0.0,0.0,0.0,0.0,0.0,0.0,0.0,0.0,0.0,0.0,0.0,0.0,0.0,0.0,0.0,0.0,0.0,0.0,0.0,0.0,0.0,0.0,0.0,0.0,0.0,0.0,0.0,0.0,0.0,0.0,0.0,0.0,0.0,0.0,0.0,0.0,0.0,0.0,0.0,0.0,0.0,0.0,0.0,0.0,0.0,0.0,0.0,0.0,0.0,0.0,0.0,0.0,0.0,0.0,0.0,0.0,0.0,0.0,0.0,0.0,0.0,0.0,0.0,0.0,0.0,0.0,0.0,0.0,0.0,0.0,0.0,0.0,0.0,0.0,0.0,0.0,0.0,0.0,0.0,0.0,0.0,0.0,0.0,0.0,0.0,0.0,0.0,0.0,0.0,0.0,0.0,0.0,0.0,0.0,0.0,0.0,0.0,0.0,0.0,0.0,0.0,0.0,0.0,0.0,0.0,0.0,0.0,0.0,0.0,0.0,0.0,0.0,0.0,0.0,0.0,0.0,0.0,0.0,0.0,0.0,0.0,0.0,0.0,0.0,0.0,0.0,0.0,0.0,0.0,0.0,0.0,0.0,0.0,0.0,0.0,0.0,0.0,0.0,0.0,0.0,0.0,0.0,0.0,0.0,0.0,0.0,0.0,0.0,0.0,0.0,0.0,0.0,0.0,0.0,0.0,0.0,0.0,0.0,0.0,0.0,0.0,0.0,0.0,0.0,0.0,0.0,0.0,0.0,0.0,0.0,0.0,0.0,0.0,0.0,0.0,0.0,0.0,0.0,0.0,0.0,0.0,0.0,0.0,0.0,0.0,0.0,0.0,0.0,0.0,0.0,0.0,0.0,0.0,0.0,0.0,0.0,0.0,0.0,0.0,0.0,0.0,0.0,0.0,0.0,0.0,0.0,0.0,0.0,0.0,0.0,0.0,0.0,0.0,0.0,0.0,0.0,0.0,0.0,0.0,0.0,0.0,0.0,0.0,0.0,0.0,0.0,0.0,0.0,0.0,0.0,0.0,0.0,0.0,0.0,0.0,0.0,0.0,0.0,0.0,0.0,0.0,0.0,0.0,0.0,0.0,0.0,0.0,0.0,0.0,0.0,0.0,0.0,0.0,0.0,0.0,0.0,0.0,0.0,0.0,0.0,0.0,0.0,0.0,0.0,0.0,0.0,0.0,0.0,0.0,0.0,0.0,0.0,0.0,0.0,0.0,0.0,0.0,0.0,0.0,0.0,0.0,0.0,0.0,0.0,0.0,0.0,0.0,0.0,0.0,0.0,0.0,0.0,0.0,0.0,0.0,0.0,0.0,0.0,0.0,0.0,0.0,0.0,0.0,0.0,0.0,0.0,0.0,0.0,0.0,0.0,0.0,0.0,0.0,0.0,0.0,0.0,0.0,0.0,0.0,0.0,0.0,0.0,0.0,0.0,0.0,0.0,0.0,0.0,0.0,0.0,0.0,0.0,0.0,0.0,0.0,0.0,0.0,0.0,0.0,0.0,0.0,0.0,0.0,0.0,0.0,0.0,0.0,0.0,0.0,0.0,0.0,0.0,0.0,0.0,0.0,0.0,0.0,0.0,0.0,0.0,0.0,0.0,0.0,0.0,0.0,0.0,0.0,0.0,0.0,0.0,0.0,0.0,0.0,0.0,0.0,0.0,0.0,0.0,0.0,0.0,0.0,0.0,0.0,0.0,0.0,0.0,0.0,0.0,0.0,0.0,0.0,0.0,0.0,0.0,0.0,0.0,0.0,0.0,0.0,0.0,0.0,0.0,0.0,0.0,0.0,0.0,0.0,0.0,0.0,0.0,0.0,0.0,0.0,0.0,0.0,0.0,0.0,0.0,0.0,0.0,0.0,0.0,0.0,0.0,0.0,0.0,0.0,0.0,0.0,0.0,0.0,0.0,0.0,0.0,0.0,0.0,0.0,0.0,0.0,0.0,0.0,0.0,0.0,0.0,0.0,0.0,0.0,0.0,0.0,0.0,0.0,0.0,0.0,0.0,0.0,0.0,0.0,0.0,0.0,0.0,0.0,0.0,0.0,0.0,0.0,0.0,0.0,0.0,0.0,0.0,0.0,0.0,0.0,0.0,0.0,0.0,0.0,0.0,0.0,0.0,0.0,0.0,0.0,0.0,0.0,0.0,0.0,0.0,0.0,0.0,0.0,0.0,0.0,0.0,0.0,0.0,0.0,0.0,0.0,0.0,0.0,0.0,0.0,0.0,0.0,0.0,0.0,0.0,0.0,0.0,0.0,0.0,0.0,0.0,0.0,0.0,0.0,0.0,0.0,0.0,0.0,0.0,0.0,0.0,0.0,0.0,0.0,0.0,0.0,0.0,0.0,0.0,0.0,0.0,0.0,0.0,0.0,0.0,0.0,0.0,0.0,0.0,0.0,0.0,0.0,0.0,0.0,0.0,0.0,0.0,0.0,0.0,0.0,0.0,0.0,0.0,0.0,0.0,0.0,0.0,0.0,0.0,0.0,0.0,0.0,0.0,0.0,0.0,0.0,0.0,0.0,0.0,0.0,0.0,0.0,0.0,0.0,0.0,0.0,0.0,0.0,0.0,0.0,0.0,0.0,0.0,0.0,0.0,0.0,0.0,0.0,0.0,0.0,0.0,0.0,0.0,0.0,0.0,0.0,0.0,0.0,0.0,0.0,0.0,0.0,0.0,0.0,0.0,0.0,0.0,0.0,0.0,0.0,0.0,0.0,0.0,0.0,0.0,0.0,0.0,0.0,0.0,0.0,0.0,0.0,0.0,0.0,0.0,0.0,0.0,0.0,0.0,0.0,0.0,0.0,0.0,0.0,0.0,0.0,0.0,0.0,0.0,0.0,0.0,0.0,0.0,0.0,0.0,0.0,0.0,0.0,0.0,0.0,0.0,0.0,0.0,0.0,0.0,0.0,0.0,0.0,0.0,0.0,0.0,0.0,0.0,0.0,0.0,0.0,0.0,0.0,0.0,0.0,0.0,0.0,0.0,0.0,0.0,0.0,0.0,0.0,0.0,0.0,0.0,0.0,0.0,0.0,0.0,0.0,0.0,0.0,0.0,0.0,0.0,0.0,0.0,0.0,0.0,0.0,0.0,0.0,0.0,0.0,0.0,0.0,0.0,0.0,0.0,0.0,0.0,0.0,0.0,0.0,0.0,0.0,0.0,0.0,0.0,0.0,0.0,0.0,0.0,0.0,0.0,0.0,0.0,0.0,0.0,0.0,0.0,0.0,0.0,0.0,0.0,0.0,0.0,0.0,0.0,0.0,0.0,0.0,0.0,0.0,0.0,0.0,0.0,0.0,0.0,0.0,0.0,0.0,0.0,0.0,0.0,0.0,0.0,0.0,0.0,0.0,0.0,0.0,0.0,0.0,0.0,0.0,0.0,0.0,0.0,0.0,0.0,0.0,0.0,0.0,0.0,0.0,0.0,0.0,0.0,0.0,0.0,0.0,0.0,0.0,0.0,0.0,0.0,0.0,0.0,0.0,0.0,0.0,0.0,0.0,0.0,0.0,0.0,0.0,0.0,0.0,0.0,0.0,0.0,0.0,0.0,0.0,0.0,0.0,0.0,0.0,0.0,0.0,0.0,0.0,0.0,0.0,0.0,0.0,0.0,0.0,0.0,0.0,0.0,0.0,0.0,0.0,0.0,0.0,0.0,0.0,0.0,0.0,0.0,0.0,0.0,0.0,0.0,0.0,0.0,0.0,0.0,0.0,0.0,0.0,0.0,0.0,0.0,0.0,0.0,0.0,0.0,0.0,0.0,0.0,0.0,0.0,0.0,0.0,0.0,0.0,0.0,0.0,0.0,0.0,0.0,0.0,0.0,0.0,0.0,0.0,0.0,0.0,0.0,0.0,0.0,0.0,0.0,0.0,0.0,0.0,0.0,0.0,0.0,0.0,0.0,0.0,0.0,0.0,0.0,0.0,0.0,0.0,0.0,0.0,0.0,0.0,0.0,0.0,0.0,0.0,0.0,0.0,0.0,0.0,0.0,0.7614,0.0,0.0,0.0,0.0,0.0,0.0,0.0,0.0,0.0,0.0,0.0,0.0,0.0,0.0,0.0,0.0,0.0,0.0,0.0,0.0,0.0,0.0,0.0,0.0,1.0321,1.0591,1.0873,1.1314,1.1567,1.1535,0.0,0.0,0.0,0.0,0.0,1.0026,0.9951,1.0255,1.0965,1.0911,1.1629,1.3059,1.2805,1.2094,1.1069,0.0,0.0,0.0,0.0,0.0,0.0,0.0,0.0,0.0,0.0,0.0,0.0,0.0,0.0,0.0,0.0,0.0,0.0,0.0,0.0,0.0,0.0,0.0,0.0,0.0,0.0,0.0,0.0,0.0,0.0,0.0,0.0,0.0,0.0,0.0,0.0,0.0,0.0,0.0,0.0,0.0,0.0,0.0,0.0,0.0,0.0,0.0,0.0,0.0,0.0,0.0,0.0,0.0,0.0,0.0,0.0,0.0,0.0,0.0,0.0,0.0,0.0,0.0,0.0,0.0,0.0,0.0,0.0,0.0,0.0,0.0,1.1109,0.0,0.0,0.0,0.0,0.0,0.0,0.0,0.0,0.0,0.0,0.0,0.0,0.0,0.0,0.0,0.0,0.0,0.0,0.0,0.0,0.0,0.9478,1.0562,1.08,1.1113,1.1801,1.2089,1.2241,1.2258,1.2213,0.0,0.0,0.0,1.1178,1.09,1.092,1.1299,1.2043,1.2377,1.3329,1.4917,1.582,1.5199,1.3412,1.2666,0.0,0.0,0.0,0.0,0.0,0.0,0.0,0.0,0.0,0.0,0.0,0.0,0.0,0.0,0.0,0.0,0.0,0.0,0.0,0.0,0.0,0.0,0.0,0.0,0.0,0.0,0.0,0.0,0.0,0.0,0.0,0.0,0.0,0.0,0.0,0.0,0.0,0.0,0.0,0.0,0.0,0.0,0.0,0.0,0.0,0.0,0.0,0.0,0.0,0.0,0.0,0.0,0.0,0.0,0.0,0.0,0.0,0.0,0.0,0.0,0.0,0.0,0.0,0.0,-0.5445,-0.46,0.4093,1.1461,1.7412,1.7211,2.0602,2.535,0.0,0.0,0.0,0.0,0.0,0.0,0.0,0.0,0.0,0.0,0.0,0.0,0.0,0.0,0.0,0.0,0.0,0.0,0.0,0.0,1.0205,1.132,1.1927,1.2589,1.347,1.3306,1.3177,1.3275,1.3128,0.0,0.0,1.2143,1.1914,1.1241,1.1399,1.1854,1.2587,1.4797,1.6372,1.734,1.793,1.8319,1.8386,1.6459,1.5422,1.5041,0.0,0.0,0.0,0.0,0.0,0.0,0.0,0.0,0.0,0.0,0.0,0.0,0.0,0.0,0.0,0.0,0.0,0.0,0.0,0.0,0.0,0.0,0.0,0.0,0.0,0.0,0.0,0.0,0.0,0.0,0.0,0.0,0.0,0.0,0.0,0.0,0.0,0.0,0.0,0.0,0.0,0.9011,0.5756,0.0,0.0,0.0,0.0,0.0,0.0,0.0,0.0,0.0,0.0,0.0,0.0,0.0,0.0,-0.4636,-0.6288,-0.6924,-0.6508,-0.6578,-0.576,-0.3966,0.6991,1.5431,2.1785,2.8445,0.0,2.7882,2.5895,0.0,0.0,0.0,0.0,0.0,0.0,0.0,0.0,0.0,0.0,0.0,0.0,0.0,0.0,0.0,0.0,0.0,0.0,0.0,0.0,0.0,1.247,1.3087,1.398,1.4078,1.3857,1.3376,1.3384,1.3118,1.2465,1.254,1.2462,1.2154,1.2758,1.3748,1.5179,1.7412,1.8614,1.8839,1.9428,1.9901,2.0129,1.9282,1.8142,1.6781,1.5289,0.0,0.0,0.0,0.0,0.0,0.0,0.0,0.0,0.0,0.0,0.0,0.0,0.0,0.0,0.0,0.0,0.0,0.0,0.0,0.0,0.0,0.0,0.0,0.0,0.0,0.0,0.0,0.0,0.0,0.0,0.0,0.0,0.0,0.0,0.0,0.0,0.0,0.0,0.0,0.6135,0.8068,0.5335,0.2153,-0.1312,0.0,0.0,0.0,0.0,0.0,0.0,0.0,0.0,0.0,-0.3471,-0.4272,-0.516,-0.6059,-0.6705,-0.6774,-0.6423,-0.6639,-0.6388,-0.534,0.4398,1.3484,2.1906,3.0153,3.5711,3.8518,3.2623,2.5756,1.8665,0.0,0.0,0.0,0.0,0.0,2.2878,0.0,0.0,0.0,0.0,0.0,0.0,0.0,0.0,0.0,0.0,0.0,0.0,1.2593,1.3136,1.3819,1.4731,1.4911,1.463,1.3823,1.3875,1.3623,1.295,1.3152,1.318,1.3065,1.4237,1.5843,1.7899,1.9637,2.0491,2.0495,2.1222,2.1654,2.1773,2.1879,2.0804,1.8757,1.7239,1.5787,0.0,0.0,0.0,0.0,0.0,0.0,0.0,0.0,0.0,0.0,0.0,0.0,0.0,0.0,0.0,0.0,0.0,0.0,0.0,0.0,0.0,0.0,0.0,0.0,0.0,0.0,0.0,0.0,0.0,0.0,0.0,0.0,0.0,0.0,0.0,0.0,0.0,0.0,0.4204,0.6657,0.3848,0.2187,-0.0736,0.0,0.0,0.0,0.0,0.0,0.0,0.031,-0.254,-0.4392,-0.4832,-0.5438,-0.6452,-0.7759,-0.7354,-0.6935,-0.6479,-0.6798,-0.6798,-0.634,0.1904,1.1347,2.1539,2.987,3.8822,4.6926,3.8879,3.351,2.9837,2.4078,2.1929,2.2115,2.2126,2.6418,3.2403,0.0,0.0,0.0,0.0,0.0,0.0,0.0,0.0,0.0,0.0,0.0,1.235,1.3264,1.4285,1.5313,1.6416,1.5974,1.5567,0.0,0.0,1.4359,1.3317,1.3998,1.4228,1.384,1.5624,1.7723,2.0062,2.0948,2.1934,2.285,2.3741,2.4205,2.4412,2.4412,2.353,2.1958,2.0029,1.8878,1.8235,0.0,0.0,0.0,0.0,0.0,0.0,0.0,0.0,0.0,0.0,0.0,0.0,0.0,0.0,0.0,0.0,0.0,0.0,0.0,0.0,0.0,0.0,0.0,0.0,0.0,0.0,0.0,0.0,0.0,0.0,0.0,0.0,0.0,0.0,0.0,0.0,0.0,0.0,0.0,0.2476,0.3689,0.0,0.0,0.0,0.0,-0.2526,-0.3953,-0.3582,-0.1047,-0.3617,-0.4255,-0.2169,-0.6592,-0.8671,-0.8075,-0.8262,-0.7839,-0.6801,-0.7009,-0.6793,-0.5807,0.1901,1.1335,2.2108,2.9976,3.9138,4.8366,4.6131,4.008,3.2076,3.0178,2.9342,2.9193,2.9257,3.4289,4.1198,0.0,0.0,0.0,0.0,0.0,0.7862,0.8215,0.905,0.9855,1.0395,1.154,1.2711,1.3879,1.4716,1.5606,1.6509,1.6573,1.6264,1.5629,1.503,1.4687,1.4663,1.435,1.4931,1.6578,1.8214,1.9917,2.1681,2.2611,2.3356,2.3863,2.4136,2.4431,2.4573,2.4573,2.4366,2.3914,2.2173,2.0513,1.8926,1.715,1.5454,0.0,0.0,0.0,0.0,0.0,0.0,0.0,0.0,0.0,0.0,0.0,0.0,0.0,0.0,0.0,0.0,0.0,0.0,0.0,0.0,0.0,0.0,0.0,0.0,0.0,0.0,0.0,0.0,0.0,0.0,0.0,0.0,0.0,0.0,0.0,0.0,0.0,0.2533,0.3564,0.0,0.0,-0.2492,-0.2414,-0.4302,-0.4113,-0.3344,-0.1832,-0.4405,-0.5838,-0.5656,-0.7871,-0.9275,-0.9788,-0.9784,-0.919,-0.788,-0.8537,-0.8218,-0.6907,-0.4568,0.2018,1.2175,2.1494,3.083,3.9933,4.5978,4.622,4.2699,4.2025,4.1409,4.0912,4.088,4.2333,4.4384,0.0,0.0,0.0,0.0,0.7436,0.8029,0.8211,0.9341,1.0321,1.078,1.2046,1.3332,1.4452,1.5464,1.6271,1.6802,1.7104,1.6857,1.5998,1.5456,1.5174,1.5168,1.5222,1.661,1.9515,2.0859,2.2179,2.3678,2.4437,2.483,2.492,2.5041,2.5108,2.5319,2.5319,2.5338,2.5345,2.4287,2.2603,2.0552,1.9236,1.7836,1.6236,0.0,0.0,0.0,0.0,0.0,0.0,0.0,0.0,0.0,0.0,0.0,0.0,0.0,0.0,0.0,0.0,0.0,0.0,0.0,0.0,0.0,0.0,0.0,0.0,0.0,0.0,0.0,0.0,0.0,0.0,0.0,0.0,0.0,0.0,0.0,1.0343,0.4436,0.5257,0.3351,-0.4042,-0.3831,-0.3961,-0.5758,-0.5726,-0.5383,-0.4704,-0.67,-0.8193,-0.8673,-0.9404,-1.0178,-1.1,-1.0895,-1.0288,-0.9161,-0.9626,-0.93,-0.8411,-0.863,-0.3509,0.6395,1.6642,2.6278,3.5598,4.5992,4.9897,4.9265,4.8589,4.7983,4.7496,4.7444,4.71,4.6617,0.0,0.0,0.0,0.6685,0.7695,0.8461,0.8312,0.9679,1.0952,1.1607,1.2977,1.4204,1.5016,1.6463,1.7422,1.7445,1.7601,1.7388,1.6723,1.6424,1.5868,1.4891,1.6704,1.9261,2.2456,2.3281,2.4393,2.597,2.6297,2.6422,2.627,2.6465,2.6589,2.6714,2.6714,2.6489,2.6204,2.6401,2.5283,2.328,2.2141,2.0922,1.9543,0.0,0.0,0.0,0.0,0.0,0.0,0.0,0.0,0.0,0.0,0.0,0.0,0.0,0.0,0.0,0.0,0.0,0.0,0.0,0.0,0.0,0.0,0.0,0.0,0.0,0.0,0.0,0.0,0.0,0.0,0.0,0.0,0.0,1.2436,1.5809,1.5757,0.8121,0.8815,0.6638,-0.1775,-0.4178,-0.5698,-0.6875,-0.8918,-0.9985,-0.9676,-1.0712,-1.1134,-1.0578,-1.1197,-1.1494,-1.1454,-1.1684,-1.1446,-1.0517,-1.0185,-0.9957,-0.9957,-0.9613,-0.4285,0.5335,1.5816,2.5951,3.5854,4.6254,5.071,5.0874,4.916,4.8426,4.833,4.8346,4.8327,4.8203,0.0,0.0,0.6668,0.6633,0.7707,0.8465,0.8144,0.994,1.1375,1.1407,1.2916,1.4427,1.5533,1.6371,1.7322,1.8582,1.8203,1.7879,1.7832,1.7054,1.6967,1.7772,1.9953,2.1983,2.3664,2.4826,2.5906,2.6865,2.7404,2.7578,2.739,2.7242,2.7108,2.6943,2.6794,2.6705,2.678,2.6982,2.6309,2.5051,2.3493,2.2511,2.173,0.0,0.0,0.0,0.0,0.0,0.0,0.0,0.0,0.0,0.0,0.0,0.0,0.0,0.0,0.0,0.0,0.0,0.0,0.0,0.0,0.0,0.0,0.0,0.0,0.0,0.0,0.0,0.0,0.0,0.0,0.0,0.0,1.8555,1.5464,1.9771,1.9684,0.9932,0.8848,0.435,-0.7087,-0.8106,-0.9109,-1.1731,-1.2211,-1.2486,-1.245,-1.2774,-1.3034,-1.2988,-1.3385,-1.3901,-1.4524,-1.4638,-1.4292,-1.3373,-1.258,-1.1553,-1.064,-1.0069,-0.8452,-0.5513,0.4714,1.5161,2.5837,3.5635,4.4511,5.1749,5.065,4.9842,4.932,4.9362,4.904,4.8553,0.0,0.6547,0.6592,0.6778,0.7822,0.8564,0.8327,1.0216,1.169,1.1687,1.3232,1.4751,1.5798,1.6325,1.7105,1.8367,1.8032,1.7758,1.7697,1.7465,1.8254,2.0381,2.2358,2.4149,2.5741,2.6919,2.7687,2.8165,2.8661,2.8712,2.8274,2.8133,2.7985,2.7863,2.7468,2.7413,2.7618,2.7439,2.7274,2.6948,2.5593,2.4543,2.3462,2.1603,2.054,1.9978,1.9204,1.8721,1.8398,1.763,0.0,0.0,0.0,0.0,0.0,0.0,0.0,0.0,0.0,0.0,0.0,0.0,0.0,0.0,0.0,0.0,0.0,0.0,0.0,0.0,0.0,0.0,0.0,0.0,1.9172,2.5794,2.5102,2.3698,1.8312,0.6126,0.3716,-0.0668,-1.0132,-1.2006,-1.3314,-1.4742,-1.5623,-1.5603,-1.4765,-1.4789,-1.4685,-1.4328,-1.4682,-1.5074,-1.5753,-1.5753,-1.5401,-1.4934,-1.4119,-1.3068,-1.1791,-1.1208,-1.0859,0.0,0.0198,1.0854,2.1824,3.1805,4.2569,0.0,0.0,0.0,0.0,0.0,5.0107,4.9735,0.0,0.6409,0.6535,0.7022,0.7996,0.8722,0.8729,1.047,1.1908,1.2212,0.0,1.5022,1.5798,1.6267,1.6814,1.7545,1.7497,1.7423,0.0,1.8185,1.9917,2.2679,2.4207,2.598,2.8095,2.9043,2.9557,2.9642,2.9865,2.9769,2.9253,2.9172,2.9188,2.9228,2.8533,2.827,2.8438,2.7863,2.8014,2.8498,2.8017,2.6667,2.4938,2.3821,2.3057,2.247,2.1458,2.0801,2.0334,1.9465,0.0,0.0,0.0,0.0,0.0,0.0,0.0,0.0,0.0,0.0,0.0,0.0,0.0,0.0,0.0,0.0,0.0,0.0,0.0,0.0,0.0,0.0,0.0,0.0,2.7893,3.408,3.5494,2.5538,1.3466,0.1019,-0.1798,-0.5277,-1.2055,-1.5707,-1.7354,-1.6702,-1.8413,-1.8588,-1.6688,0.0,0.0,0.0,0.0,-1.5726,-1.5952,-1.5952,-1.5952,-1.5833,-1.4986,-1.4152,-1.332,-1.2475,-1.1756,-1.0808,-0.1445,0.9605,2.17,3.1036,4.2226,5.3383,5.1819,5.1095,5.0952,5.1062,5.1183,0.0,0.0,0.6542,0.694,0.7138,0.8119,0.8892,0.9005,1.0495,1.1839,1.2436,1.3557,1.473,1.5787,1.5992,1.6573,1.7927,1.7821,1.8244,0.0,0.0,2.266,2.461,2.6493,2.7954,2.8983,2.9703,3.0197,3.0372,3.1076,3.1199,3.0825,3.0596,3.0405,3.0133,2.9193,2.895,2.9065,2.8794,2.8543,2.8435,2.8706,2.7981,2.6641,2.6056,2.5064,2.3978,2.3444,2.3593,2.3756,2.19,2.1734,2.1877,1.9607,0.0,0.0,0.0,0.0,0.0,0.0,0.0,0.0,0.0,0.0,0.0,0.0,0.0,0.0,0.0,0.0,0.0,0.0,0.0,0.0,2.0885,2.9862,3.4024,2.7374,1.6362,0.8684,0.7579,0.7831,0.127,-1.5785,-1.7556,-1.8003,-1.9028,-1.8138,-1.7874,-1.8625,-1.7867,0.0,-1.7049,-1.7517,-1.7775,-1.783,-1.783,-1.7719,-1.7497,0.0,0.0,-1.3909,-1.2234,-1.1394,-1.1249,-0.9456,0.2867,2.1838,2.3405,3.5781,5.3708,5.246,5.161,5.1062,5.1162,5.1219,5.1285,0.6728,0.6849,0.7185,0.7806,0.8507,0.9104,0.9441,1.0527,1.1563,1.2244,1.3265,1.4249,1.5217,1.5312,1.5709,1.6754,1.7238,0.0,0.0,2.2124,2.3941,2.5932,2.7726,2.8997,2.964,3.0182,3.0727,3.1183,3.1672,3.2056,3.2255,3.2162,3.185,3.124,3.0478,2.9953,2.9666,2.9472,2.9171,2.8946,2.9457,2.9054,2.8058,2.7185,2.641,2.5694,2.471,2.4872,2.5148,2.3059,2.2834,2.3125,2.0949,1.9775,1.889,0.0,0.0,0.0,0.0,0.0,0.0,0.0,0.0,0.0,0.0,0.0,0.0,0.0,0.0,0.528,0.0,0.0,2.1868,2.817,3.4233,3.475,2.5093,2.4265,2.0951,1.0964,0.5627,-0.0972,-1.0448,-1.1174,-1.0728,-0.9867,-1.001,-0.9661,-0.865,-0.8021,-1.0295,-1.5891,-1.629,-1.3794,-0.8288,-1.3769,-1.3655,-0.8087,-1.3102,-1.191,-0.5327,-0.5002,-0.1151,0.5118,0.5063,1.4682,3.0763,3.6266,4.4726,5.4194,5.3734,5.3144,5.2506,5.2057,5.1913,5.1894,0.7486,0.7429,0.7674,0.8478,0.8924,0.9342,0.9907,1.0544,1.1251,1.2068,1.3002,1.3848,1.4518,1.4666,1.4947,0.0,0.0,0.0,2.0723,2.2845,2.4896,2.6976,2.861,2.9717,3.0158,3.0462,3.1008,3.1787,3.2027,3.2594,3.3431,3.3492,3.3107,3.2345,3.165,3.1039,3.0401,3.014,2.9942,2.9791,3.0234,2.9959,2.9205,2.7755,2.7223,2.7027,2.5595,2.5369,2.5445,2.3553,2.3289,2.3387,2.1631,2.074,2.0051,1.8646,1.7728,0.0,0.0,0.0,0.0,0.0,0.0,0.0,0.0,0.0,-0.2612,0.6449,0.837,1.109,1.9949,2.2298,2.6025,3.5642,3.849,3.6645,2.865,3.4638,3.4204,1.8839,0.7873,0.107,0.0,-0.2802,-0.2372,0.2643,-0.0724,-0.0735,0.4314,0.4883,0.0975,-0.7968,-0.8332,-0.509,0.1735,-0.7094,-0.809,-0.1413,-1.1539,-1.0687,-0.0202,0.1173,0.7645,1.8145,2.3041,3.0306,3.9703,5.1243,5.5578,5.4953,5.5131,5.4904,5.4353,5.3263,5.2753,5.2526,0.0,0.8473,0.8833,0.8706,0.9053,0.956,1.0147,1.0518,1.1181,1.2405,1.3114,1.3697,1.4185,1.452,1.498,1.57,1.7402,1.936,2.1455,2.4424,2.6657,2.7983,2.9608,3.0435,3.0522,3.0568,3.1008,3.1787,3.2434,3.3176,3.4099,3.4016,3.3682,3.3045,3.2338,3.1788,3.1422,3.1182,3.1006,3.0876,3.0805,3.0529,2.9936,2.8105,2.7323,2.708,2.6192,2.5475,2.4845,2.382,2.3558,2.3543,2.2972,2.266,2.2201,2.0853,0.0,1.9636,1.8566,1.9424,2.0884,2.1952,1.6895,1.4331,0.0,0.0,1.7122,2.5344,2.7741,2.9131,3.1935,3.3075,3.4777,3.8454,4.0119,4.1091,4.1416,3.4725,3.3044,4.1733,3.3153,2.3198,1.4657,0.2896,0.0676,1.2705,0.3311,0.1997,1.34,1.5268,1.5478,1.418,1.418,1.0011,0.1242,-0.0,-0.4916,-1.3161,-1.5178,-1.5157,-1.3072,-0.2458,0.3254,0.5863,2.7349,3.7484,3.9756,5.1205,5.599,5.6122,5.6199,5.6224,5.6025,5.4365,5.3296,5.267,0.0,0.9249,0.9665,0.9578,0.9564,0.9724,1.011,1.0146,1.0533,1.1676,1.2323,1.3006,1.3879,1.4284,1.4663,1.5057,1.6612,1.8608,2.112,2.3774,2.6103,2.8011,2.9231,3.0071,3.0433,3.0507,3.0947,3.1649,3.2003,3.2567,3.3266,3.346,3.3083,3.2362,3.2218,3.1882,3.1589,3.129,3.1171,3.1121,3.0977,3.0466,2.9552,2.8091,2.7004,2.6054,2.5122,2.4503,0.0,0.0,2.2467,2.2322,2.2223,2.1848,2.13,2.0524,2.0512,0.0,2.2339,2.3264,2.4253,0.0,2.0819,1.8094,2.6637,2.2963,2.0222,2.8534,3.1101,3.2415,3.4225,3.5453,3.7007,0.0,4.0817,3.9692,3.3783,3.5702,3.7143,3.5554,3.8528,3.6558,2.5915,1.9446,1.89,2.6018,2.1514,2.1461,2.8326,2.9327,2.6674,2.0182,1.2143,0.8737,1.0566,-0.3931,-0.6108,0.376,-0.3799,0.0763,1.5888,2.0309,2.638,3.3921,4.3888,4.8373,4.8946,5.3836,5.5962,5.6142,5.6288,5.6421,5.6406,5.5174,5.4471,5.3998,0.0,0.9664,1.0135,1.0135,0.9944,0.9905,1.0198,0.9995,1.0236,1.1318,1.1951,1.2723,1.3828,1.4136,1.4413,1.4814,1.6015,1.7948,2.0785,2.2872,2.4997,2.7201,2.8553,2.9414,2.9857,3.036,3.0887,3.1526,3.1449,3.1746,3.233,3.2383,3.2067,3.1312,3.1442,3.1469,3.1267,3.1108,3.1076,3.1082,3.1098,3.0415,2.9223,2.785,2.6448,2.5145,2.4084,2.3319,0.0,0.0,2.1224,2.0978,2.1123,2.0781,2.0335,2.0305,2.1024,2.2347,2.4562,0.0,0.0,2.8228,2.4874,2.2674,2.8006,2.5376,2.3502,2.9763,2.9457,2.9579,3.4464,3.3845,3.422,3.947,4.1459,3.966,3.1721,3.8969,4.1938,3.354,4.1591,4.4637,3.6502,3.2351,3.267,3.8897,3.2346,3.0806,3.7015,3.4151,2.8642,2.0589,1.0517,0.7665,1.2609,-0.534,-0.5145,1.3212,0.3746,1.105,3.3056,3.544,4.339,5.5333,5.5307,5.5383,5.5527,5.5724,5.5896,5.6069,5.6242,5.6402,5.6484,5.5833,5.545,5.5031,0.0,0.0,1.016,1.0021,1.0046,1.0198,1.0534,1.0373,1.0599,1.1722,1.2454,1.3247,1.4196,1.4189,1.4479,1.538,1.6241,1.7896,2.0716,2.231,2.3877,2.5495,2.7619,2.8707,2.8736,2.9949,3.0887,3.1526,3.087,3.0926,3.1678,3.104,3.0515,3.0158,3.0158,3.024,3.0405,3.0597,3.0776,3.1005,3.118,3.0618,2.9333,2.7111,2.573,2.481,2.3392,0.0,0.0,2.0537,2.0099,1.982,2.0155,2.0042,0.0,2.1062,2.2374,2.3592,2.4158,0.0,2.9149,3.0537,3.1624,3.2475,3.2807,3.2368,3.2041,3.2563,2.4756,2.1732,3.4479,2.8489,2.5844,3.8936,4.2237,4.3444,4.4224,4.5352,4.615,4.62,4.6856,4.7223,0.0,3.6346,3.5512,5.0295,2.7974,2.0039,3.4425,2.4013,1.7405,1.7063,1.6619,1.1352,0.0847,-0.0,0.0765,0.297,0.1047,0.7051,2.0163,3.1172,4.3071,5.4931,5.5333,5.5504,5.5527,5.5724,5.5956,5.6188,5.6271,5.6381,5.6481,5.6409,5.5918,5.5263,0.0,0.0,0.0,1.051,1.0485,1.057,1.0991,1.0532,1.047,1.1439,1.2816,0.0,0.0,0.0,0.0,0.0,1.59,1.733,1.9754,2.1144,2.2825,2.4961,2.6605,2.765,2.801,2.8871,2.9624,3.0263,2.9572,2.9519,3.0086,2.9699,2.9398,2.9164,2.946,2.988,3.0405,2.9984,3.0294,3.0905,3.0172,2.9465,2.876,2.7097,2.537,2.3573,0.0,0.0,0.0,1.9754,1.9232,1.8591,1.8808,0.0,0.0,2.1644,2.3129,2.4627,2.722,0.0,3.1204,3.2025,3.3134,3.3854,3.2834,2.7452,2.2577,2.2154,1.3807,0.8083,1.3074,1.7775,2.2795,2.874,3.6939,4.3053,4.4376,4.5436,4.6077,4.6092,4.725,0.0,0.0,0.0,0.0,5.0833,4.3715,4.1639,4.7398,3.5796,2.911,2.9508,1.2113,0.0981,-0.2832,-1.2215,-1.2073,-0.2218,1.5227,2.5561,2.9724,4.2685,5.0975,5.5094,5.5236,5.5383,5.5527,5.5724,5.5956,5.6207,5.6271,5.6348,5.6445,5.6503,5.6325,5.5925,0.0,0.0,0.0,0.0,0.0,0.0,0.0,0.0,0.0,0.0,0.0,0.0,0.0,0.0,0.0,0.0,0.0,1.684,1.9219,2.0025,2.1337,2.3402,2.484,2.5704,2.6107,2.6968,2.7715,2.8371,2.7653,2.7602,2.8125,2.7657,2.7452,2.7485,2.776,2.8358,2.9114,2.877,2.9178,2.9925,2.8582,2.794,2.7499,2.5602,2.3868,0.0,0.0,0.0,1.8705,1.8679,1.8455,1.8254,1.8617,1.9616,2.0991,2.2726,2.4308,2.6276,2.9633,3.1361,3.2357,3.3087,3.385,3.3038,2.7919,2.1897,1.6199,1.2116,0.2881,-0.2924,0.1812,0.9304,1.52,1.6611,2.6796,3.5419,3.7812,3.8297,4.0489,4.6245,4.7921,4.854,0.0,0.0,0.0,5.0722,4.7497,4.6025,4.7129,3.5594,2.6448,2.0971,0.4277,-0.7512,-1.3341,-2.2541,-1.9837,-0.5367,1.7623,2.8384,2.8434,4.2012,4.8235,4.8579,5.3185,5.5314,5.5504,5.564,5.5901,5.6207,5.6271,5.6368,5.6445,5.6523,5.6504,5.6329,0.0,0.0,0.0,0.0,0.0,0.0,0.0,0.0,0.0,0.0,0.0,0.0,0.0,0.0,0.0,0.0,0.0,0.0,1.906,1.8967,1.9528,2.1119,2.2484,2.3245,2.3245,2.4418,2.533,2.6006,2.5254,2.524,2.5884,2.5045,2.4887,2.5191,2.5191,2.5739,2.6652,2.6909,2.7393,2.7911,2.6683,2.6087,2.5701,2.281,0.0,0.0,0.0,0.0,0.0,1.7472,0.0,0.0,0.0,0.0,2.3923,2.4443,2.6118,2.845,3.1417,3.2399,3.2861,3.396,3.4059,3.0854,1.9278,1.628,1.3057,0.28,-0.7619,-1.1448,0.0,0.0,0.3219,0.3307,1.3192,2.2298,2.6479,2.6422,3.1726,0.0,0.0,0.0,0.0,0.0,0.0,4.9474,0.0,3.4472,3.4654,2.3718,1.011,-0.6113,-0.6504,-1.3918,-2.9498,-2.9587,-2.2046,-0.6698,0.881,1.6329,1.6833,3.0164,3.6141,3.6588,4.8906,5.4714,5.548,5.5504,5.5789,5.6175,5.6261,5.6374,5.6497,5.6495,5.6508,5.643,0.0,0.0,0.0,0.0,0.0,0.0,0.0,0.0,0.0,0.0,0.0,0.0,0.0,0.0,0.0,0.0,0.0,0.0,1.8015,1.8533,1.9341,2.0629,2.1857,2.2557,2.2557,2.3303,2.3994,2.467,2.3978,2.3993,2.4567,2.366,2.3365,2.3657,2.3448,2.3781,2.4515,2.4555,2.4994,2.556,0.0,2.4467,2.4316,0.0,0.0,0.0,0.0,0.0,0.0,0.0,0.0,0.0,0.0,2.4327,2.5566,0.0,0.0,3.0864,3.3077,3.4545,3.5444,3.5419,3.5234,3.1944,2.0172,1.1417,0.2891,-0.7328,-1.7526,-2.353,0.0,0.0,0.0,-0.7022,1.0537,0.0,2.7285,3.698,0.0,5.0275,0.0,5.224,5.2107,4.2506,0.0,0.0,4.3524,4.367,3.3077,2.033,0.6392,-0.8757,-1.8892,-2.5928,-2.9961,-3.0192,-2.2609,-0.7121,0.7282,1.4911,1.6777,3.0567,3.6536,3.6105,3.9552,4.6452,5.5288,5.5456,5.569,5.5986,5.6057,5.6238,5.6513,5.6562,5.6477,5.6305,0.0,0.0,0.0,0.0,0.0,0.0,0.0,0.0,0.0,0.0,0.0,0.0,0.0,0.0,0.0,0.0,0.0,0.0,0.0,1.8416,1.9287,2.0154,2.0822,2.1183,2.1169,2.1469,2.1987,2.2668,2.2246,2.2278,2.2664,2.215,2.203,2.2248,2.2005,2.2363,2.3063,2.3091,0.0,0.0,0.0,0.0,0.0,0.0,0.0,0.0,0.0,0.0,0.0,0.0,0.0,2.4489,2.5911,2.6989,2.7961,2.9722,0.0,3.2731,3.4235,3.5585,3.633,3.5163,3.4979,3.0866,1.4678,0.6551,-0.166,-1.6033,-2.3741,0.0,-2.6741,0.0,0.0,0.0,0.0,0.0,0.9926,1.6732,2.4201,0.0,3.2774,0.0,3.3491,2.6215,2.1541,0.0,2.9194,3.0124,2.1833,1.4594,0.3605,-1.2077,-1.9622,-2.673,-3.3682,-3.2843,-2.8061,-1.916,-0.3201,0.4904,0.6536,2.7094,3.316,2.8052,0.0,4.5326,4.7311,5.3016,5.5516,5.5731,5.5927,5.6115,5.6315,5.6517,5.6507,5.6301,0.0,0.0,0.0,0.0,0.0,0.0,0.0,0.0,0.0,0.0,0.0,0.0,0.0,0.0,0.0,0.0,0.0,0.0,0.0,0.0,0.0,1.9839,1.9884,1.9833,1.9726,1.9726,2.001,2.0625,0.0,2.0627,2.0762,2.0603,2.0718,2.0955,2.0697,2.1015,0.0,0.0,0.0,0.0,0.0,0.0,0.0,0.0,0.0,0.0,0.0,0.0,0.0,0.0,2.5364,2.7115,2.8404,2.9652,3.0807,3.2112,3.3235,3.4232,3.5102,3.605,3.6314,3.4203,3.4253,2.9088,0.7193,0.2641,-0.2572,-2.2339,0.0,-2.6822,-2.5975,-1.9686,-1.7939,-2.8076,0.0,-1.5753,-1.3377,-1.3134,-0.8053,0.588,0.7246,0.7563,0.8891,0.752,0.6666,0.6881,0.4233,0.3406,0.5269,0.5589,-0.2118,-1.9334,-1.9219,-2.5444,-3.8944,-3.6904,-3.4516,-3.1721,-1.5601,-0.7788,-0.674,1.834,2.4772,1.7405,0.0,0.0,3.9537,5.059,5.532,5.5566,5.585,5.6003,5.6125,5.6456,5.6532,5.6329,0.0,0.0,0.0,0.0,0.0,0.0,0.0,0.0,0.0,0.0,1.601,1.5374,0.0,0.0,0.0,0.0,0.0,0.0,0.0,0.0,0.0,2.0204,2.02,2.0131,1.9955,1.9955,0.0,0.0,0.0,0.0,2.0124,1.9497,1.9398,1.9676,0.0,0.0,0.0,0.0,0.0,0.0,0.0,0.0,0.0,0.0,0.0,0.0,0.0,0.0,0.0,0.0,2.6574,2.9918,3.126,3.2587,3.372,3.4288,3.4545,3.4907,3.5767,3.6346,3.631,3.517,3.478,2.9135,0.7297,0.2722,0.0,0.0,-2.54,-2.482,-2.5,-2.5303,-2.6999,-3.1404,0.0,0.0,0.0,0.0,0.0707,0.0,0.0,0.0,0.0,0.0,0.0,0.0,0.0,0.0,-1.0116,-1.1999,-2.2263,-4.1434,-4.2347,-4.2584,-4.268,-4.1834,-3.3265,-1.7151,-1.3452,-1.0529,-0.8177,-0.316,0.4443,1.3978,0.0,0.0,5.1842,5.4054,5.5222,5.5675,5.5734,5.6066,5.6499,5.6515,5.643,5.626,0.0,0.0,0.0,0.0,0.0,0.0,0.0,1.6024,1.7258,1.7817,1.7452,1.6967,1.6514,1.6366,1.6186,0.0,0.0,0.0,0.0,0.0,0.0,0.0,0.0,2.0494,2.0323,0.0,0.0,0.0,0.0,0.0,0.0,0.0,0.0,0.0,0.0,0.0,0.0,0.0,0.0,0.0,0.0,0.0,0.0,0.0,0.0,0.0,0.0,0.0,0.0,0.0,2.555,2.9765,3.2083,3.3283,3.3908,3.437,3.4816,3.5196,3.5291,3.6006,3.6362,3.5129,2.9963,2.1308,0.6263,0.0,0.0,0.0,-2.5196,-2.4722,-2.4366,-2.6638,0.0,0.0,0.0,0.0,0.0,0.0,0.0,0.0,0.0,0.0,0.0,0.0,0.0,0.0,0.0,0.0,-2.628,-2.7895,-3.3934,-4.4751,-4.4013,-4.3924,-4.4968,-4.3358,-3.8516,-3.0482,-2.2081,-1.6613,-1.3679,-0.5418,-0.0703,0.1897,1.6727,0.0,3.4218,4.8915,5.5097,5.5292,5.5439,5.5735,5.6114,5.6325,5.6336,5.6096,0.0,0.0,0.0,0.0,0.0,0.0,0.0,1.7155,1.849,1.8819,1.901,1.8866,1.8213,1.7681,1.7104,0.0,0.0,0.0,0.0,0.0,0.0,0.0,0.0,0.0,0.0,0.0,0.0,0.0,0.0,0.0,0.0,0.0,0.0,0.0,0.0,0.0,0.0,0.0,0.0,0.0,0.0,0.0,0.0,0.0,0.0,0.0,0.0,0.0,0.0,0.0,2.3585,2.7211,2.854,3.0825,3.309,3.3489,3.4198,3.4775,3.4488,3.5302,3.5953,3.4663,2.5127,1.3846,0.5264,-0.5402,0.0,0.0,-2.5142,-2.4893,-2.4226,0.0,-2.839,0.0,-3.0865,-3.3744,0.0,0.0,0.0,0.0,0.0,0.0,0.0,0.0,0.0,0.0,0.0,0.0,-3.7876,-3.8873,-4.0776,-4.3899,-4.2325,-4.2986,-4.6258,-4.3898,-4.3393,-4.4645,-3.2614,-2.5778,-2.3341,-1.1457,-0.814,-1.0425,1.1988,0.0,0.0,3.6071,4.5192,4.5552,4.8856,5.0273,5.0856,5.4309,5.5513,5.5172,0.0,0.0,0.0,0.0,0.0,0.0,0.0,1.729,1.8928,1.9899,2.0478,2.0653,2.0274,1.8202,1.6954,0.0,0.0,0.0,0.0,0.0,0.0,0.0,0.0,0.0,0.0,0.0,0.0,0.0,0.0,0.0,0.0,0.0,0.0,0.0,0.0,0.0,0.0,0.0,0.0,0.0,0.0,0.0,0.0,0.0,0.0,0.0,0.0,0.0,0.0,0.0,0.0,2.1469,1.6631,2.2874,3.1941,3.199,0.0,0.0,3.3896,3.4437,3.456,3.3878,2.4347,1.3191,0.5401,0.0,0.0,-2.3408,-2.4451,-2.4323,-2.4951,-2.582,-2.7557,-3.0992,0.0,-3.3685,0.0,0.0,0.0,0.0,0.0,0.0,0.0,0.0,0.0,0.0,0.0,0.0,0.0,-4.0173,-4.3155,-4.7744,-4.9162,-4.8731,-4.6321,-4.4715,-4.2582,-3.9936,-3.9605,-3.9314,-3.9088,-4.0077,-3.1984,-1.7049,0.0,0.0,0.0,1.243,1.3652,1.5178,2.8358,3.359,3.531,4.8378,5.3137,5.2632,0.0,0.0,0.0,0.0,0.0,0.0,1.5527,1.7002,1.8474,1.9578,1.9797,2.0082,2.0607,1.8936,1.7787,1.7903,0.0,0.0,0.0,0.0,0.0,0.0,0.0,0.0,0.0,0.0,0.0,0.0,0.0,0.0,0.0,0.0,0.0,0.0,0.0,0.0,0.0,0.0,0.0,0.0,0.0,0.0,0.0,0.0,0.0,0.0,0.0,0.0,0.0,0.0,0.0,0.0,0.6346,0.859,0.0,0.0,2.7208,3.2289,3.304,2.8053,2.2728,2.3132,0.8263,-0.6608,-0.7184,0.0,-2.4081,-2.4689,-2.4335,-2.3959,-2.3994,-2.4533,-2.5729,-2.797,-2.8609,-3.0374,-3.4853,0.0,0.0,0.0,0.0,0.0,0.0,0.0,0.0,0.0,0.0,0.0,0.0,-3.7571,-4.0893,-4.4391,-4.3624,-4.4044,-4.5993,-4.3855,-4.3219,-4.4062,-4.4527,-4.3861,-4.2233,-4.3296,-3.9415,-3.1238,0.0,0.0,0.0,0.4819,0.9379,1.0365,1.9169,2.0838,2.0037,3.4763,3.8234,3.6017,0.0,0.0,0.0,0.0,0.0,1.4847,1.5455,1.6738,1.8084,1.9263,1.9306,1.9586,2.0616,1.9171,1.8302,1.8762,1.8686,0.0,0.0,0.0,0.0,0.0,0.0,0.0,0.0,0.0,0.0,0.0,0.0,0.0,0.0,0.0,0.0,0.0,0.0,0.0,0.0,0.0,0.0,0.0,0.0,0.0,0.0,0.0,0.0,0.0,0.0,0.0,0.0,0.0,0.0,0.0,0.0,0.0,0.0,0.0,1.9142,2.6551,2.354,1.8575,1.3962,1.2219,-0.4329,-1.8927,0.0,-2.1562,-2.8452,-2.4728,-2.3732,-2.3354,-2.2815,-2.2904,-2.3499,-2.4941,-2.5236,-2.6792,-3.1083,-3.0773,0.0,0.0,0.0,0.0,0.0,0.0,0.0,0.0,0.0,0.0,0.0,-3.5556,-3.8475,-4.1006,-3.9532,-4.0588,-4.4614,-4.2588,-4.2772,-4.5266,-4.5796,-4.4841,-4.265,-4.3678,-4.3104,-4.0503,0.0,0.0,0.0,-0.9666,-0.4388,-0.3505,0.5981,0.7515,0.6365,2.2797,2.6448,2.3932,0.0,0.0,0.0,0.0,0.0,0.0,1.5245,1.6604,1.7968,1.9311,1.9483,1.9764,2.0449,1.8702,1.8192,1.9824,1.963,0.0,0.0,0.0,0.0,0.0,0.0,0.0,0.0,0.0,0.0,0.0,0.0,0.0,0.0,0.0,0.0,0.0,0.0,0.0,0.0,0.0,0.0,0.0,0.0,0.0,0.0,0.0,0.0,0.0,0.0,0.0,0.0,0.0,0.0,0.0,0.0,0.0,0.0,0.0,0.7866,1.4003,0.2329,0.6075,1.1322,0.304,-0.9112,-1.7304,-1.0751,-1.9141,-2.7129,-2.2891,-2.2345,-2.241,-2.1735,-2.0902,-2.0978,-2.2895,-2.2507,-2.3484,-2.7928,-2.8749,0.0,0.0,0.0,0.0,0.0,0.0,0.0,0.0,0.0,0.0,0.0,-3.5185,-3.698,-3.9183,-4.0073,-4.1029,-4.2058,-4.1099,-4.0661,-4.0661,-4.2425,-4.2728,-4.2055,-4.5552,-4.5092,0.0,0.0,0.0,0.0,-3.6708,-3.661,-3.4664,-1.4934,-0.7419,-0.5202,1.4562,2.1543,2.0827,0.0,0.0,0.0,0.0,0.0,0.0,0.0,1.5366,1.6491,1.7699,1.8003,1.8507,1.9459,1.853,1.8366,1.9628,1.9197,0.0,0.0,0.0,0.0,0.0,0.0,0.0,0.0,0.0,2.2406,2.2811,2.2811,0.0,0.0,0.0,0.0,0.0,0.0,0.0,0.0,0.0,0.0,0.0,0.0,0.0,0.0,0.0,0.0,0.0,0.0,0.0,0.0,0.0,0.0,0.0,0.0,0.0,0.0,-1.5233,-0.4532,0.0,0.4963,-0.0037,-0.4906,-0.5865,-1.6092,-2.4723,-2.022,-2.2409,-2.4477,-2.1057,-2.073,-2.077,-1.9922,-1.9349,-1.9837,-2.2377,-2.2367,-2.3125,0.0,0.0,0.0,0.0,0.0,0.0,0.0,0.0,0.0,0.0,0.0,0.0,0.0,-3.1207,-3.3192,-3.6794,-3.816,-3.8922,-3.9176,-3.8922,-3.9073,-3.9637,-4.0885,-4.1299,-4.105,-4.2178,0.0,0.0,0.0,0.0,0.0,-3.7922,-3.7105,-3.614,-2.6352,-2.3391,-2.2713,-0.6309,-0.0731,-0.0614,0.0,0.0,0.0,0.0,0.0,0.0,0.0,1.4393,1.5381,1.6694,1.7033,1.759,1.8831,1.8074,1.8157,1.9756,1.9437,0.0,0.0,0.0,0.0,0.0,0.0,0.0,0.0,2.1998,2.2367,2.3137,2.309,2.324,2.3508,2.3491,0.0,0.0,0.0,0.0,0.0,0.0,0.0,0.0,0.0,0.0,0.0,0.0,0.0,0.0,0.0,0.0,0.0,0.0,0.0,0.0,0.0,0.0,0.0,0.0,-1.3007,-0.4942,-0.5343,-0.8857,-1.2798,-1.4485,-2.1151,-2.6404,-2.2918,-2.2169,-2.1493,-1.9163,-1.9015,-1.911,-1.8355,-1.7918,-1.8449,-2.0806,-2.0983,-2.1614,0.0,0.0,0.0,0.0,0.0,0.0,0.0,0.0,0.0,0.0,0.0,0.0,0.0,0.0,-3.1229,-3.4314,-3.62,-3.7374,-3.7939,-3.8213,-3.8626,-3.921,-3.9812,-3.9913,-3.959,-3.9913,0.0,0.0,0.0,0.0,0.0,-3.9172,-3.82,-3.7309,-3.1419,-2.9621,-2.9044,-1.7018,-1.2999,-1.2835,0.0,0.0,0.0,0.0,0.0,0.0,0.0,1.3713,1.4658,1.626,1.6475,1.7049,1.8508,1.7556,1.7769,2.0151,0.0,0.0,0.0,0.0,0.0,0.0,0.0,0.0,0.0,2.2027,2.2446,2.3284,2.3204,2.3541,2.431,2.4115,2.3714,0.0,0.0,0.0,0.0,0.0,0.0,0.0,0.0,0.0,0.0,0.0,0.0,0.0,0.0,0.0,0.0,0.0,0.0,0.0,0.0,0.0,0.0,0.0,0.0,0.0,0.0,-1.8575,-1.3575,-2.1398,-2.3594,-2.3019,-1.9764,-1.8949,0.0,-1.7219,-1.7261,-1.745,-1.7167,-1.6731,-1.6974,-1.8721,-1.8951,0.0,0.0,0.0,0.0,0.0,0.0,0.0,0.0,0.0,0.0,0.0,0.0,0.0,0.0,0.0,-3.0781,-3.1768,-3.4205,-3.6326,-3.7926,-3.8662,-3.9121,-3.9121,-3.921,-3.8805,-3.7979,-3.8792,0.0,0.0,0.0,0.0,0.0,-4.0432,-3.9899,-3.8439,-3.1649,-2.8299,-2.6465,-1.9619,-1.705,-1.6976,0.0,0.0,0.0,0.0,0.0,0.0,0.0,0.0,0.0,0.0,1.6343,1.6951,1.8104,1.8012,1.8414,0.0,0.0,0.0,0.0,0.0,0.0,0.0,0.0,0.0,0.0,2.2147,2.2815,2.4191,2.4522,2.4873,2.524,2.4661,2.4024,2.3359,2.2481,0.0,0.0,0.0,0.0,0.0,0.0,0.0,0.0,0.0,0.0,0.0,0.0,0.0,0.0,0.0,0.0,0.0,0.0,0.0,0.0,0.0,-1.4444,-1.512,-1.6287,0.0,-1.4947,-1.5649,-1.7105,-1.7895,0.0,-1.6727,-1.7282,-1.5864,-1.5628,-1.5996,-1.6926,-1.6238,-1.6727,-2.051,0.0,0.0,0.0,0.0,0.0,0.0,0.0,0.0,0.0,0.0,0.0,0.0,0.0,0.0,0.0,0.0,-2.8096,-3.0037,-3.1294,-3.336,-3.6433,-3.7428,-3.8031,-3.8226,-3.8881,-3.9121,-3.8868,-3.9121,0.0,0.0,0.0,0.0,-3.8485,-3.8485,-3.8408,-3.8018,-3.5643,-3.262,-2.9332,-2.7026,-2.3635,-2.0053,0.0,0.0,0.0,0.0,0.0,0.0,0.0,0.0,0.0,0.0,0.0,0.0,0.0,0.0,0.0,0.0,0.0,0.0,0.0,0.0,0.0,0.0,0.0,0.0,2.2895,2.2902,2.3275,2.4048,2.4338,2.4548,2.4632,2.4275,2.3626,2.2687,2.1486,0.0,0.0,0.0,0.0,0.0,0.0,0.0,0.0,0.0,0.0,0.0,-0.4118,-0.7837,0.0,-1.497,-1.4673,-1.2858,0.0,0.0,0.0,0.0,-1.2435,-1.2464,-1.2083,-1.3681,-1.526,-1.462,-1.5029,-1.5443,-1.5185,-1.5297,-1.5199,-1.4373,0.0,0.0,-1.5405,0.0,0.0,0.0,0.0,0.0,0.0,0.0,0.0,0.0,0.0,0.0,0.0,0.0,0.0,0.0,0.0,0.0,0.0,0.0,-2.706,-2.9102,-2.9985,-3.1792,-3.4435,-3.5618,-3.6508,-3.6989,-3.7691,-3.8251,-3.8639,-3.8639,0.0,0.0,0.0,0.0,-3.9176,-3.9176,-3.8908,-3.8368,-3.7073,-3.4739,-3.1828,-3.0025,-2.7072,-2.4031,0.0,0.0,0.0,0.0,0.0,0.0,0.0,0.0,0.0,0.0,0.0,0.0,0.0,0.0,0.0,0.0,0.0,0.0,0.0,0.0,0.0,0.0,0.0,2.3417,2.3199,2.3332,2.3309,2.3109,2.3483,2.3635,2.3595,2.364,2.2955,2.1584,2.0207,1.9489,0.0,0.0,0.0,0.0,0.0,0.0,0.0,0.0,0.0,0.0,0.0,0.0,0.0,-1.2903,-1.159,-1.025,-1.128,0.0,0.0,0.0,0.0,0.0,-1.015,-1.2025,-1.4277,-1.4842,-1.4423,-1.4141,-1.5029,-1.4204,0.0,0.0,0.0,0.0,0.0,-1.3839,0.0,0.0,0.0,0.0,0.0,0.0,0.0,0.0,0.0,0.0,0.0,0.0,0.0,0.0,0.0,0.0,0.0,0.0,0.0,-2.8278,-2.9164,-3.0498,-3.2174,-3.3887,-3.5222,-3.6081,-3.6602,-3.7214,-3.7808,-3.79,-3.8317,0.0,0.0,0.0,-4.0173,-4.0173,-3.9651,-3.8649,-3.6944,-3.5159,-3.3185,-3.0366,-2.8595,-2.7484,0.0,0.0,0.0,0.0,0.0,0.0,0.0,0.0,0.0,0.0,0.0,0.0,0.0,0.0,0.0,0.0,0.0,0.0,0.0,0.0,0.0,0.0,2.2441,2.2068,2.0926,2.1618,2.1778,2.1311,2.2735,2.3592,2.3897,2.3764,2.2697,2.079,1.8728,1.7687,1.7343,0.0,0.0,0.0,0.0,0.0,0.0,0.0,0.0,0.0,0.0,0.0,0.0,-1.0047,-0.9256,-0.8112,-0.9176,0.0,0.0,0.0,0.0,0.0,-0.9932,-1.0314,-1.0618,-1.0713,-1.1408,-1.2077,-1.227,-1.2744,-1.3187,0.0,0.0,0.0,0.0,-1.4175,0.0,0.0,0.0,0.0,0.0,0.0,0.0,0.0,0.0,0.0,0.0,0.0,0.0,0.0,0.0,0.0,0.0,0.0,0.0,-2.6569,-2.6756,-2.7578,-2.9216,-3.3145,-3.575,-3.6909,-3.7214,-3.7413,-3.7611,-3.7808,-3.7992,0.0,0.0,-3.8148,-3.8317,-3.8317,-3.7848,-3.6964,-3.6093,-3.3985,-3.132,-2.9845,-2.8571,-2.7406,0.0,0.0,0.0,0.0,0.0,0.0,0.0,0.0,0.0,0.0,0.0,0.0,0.0,0.0,0.0,0.0,0.0,0.0,0.0,0.0,0.0,1.9433,2.0132,2.0905,2.1732,2.1796,2.1631,2.1272,2.2424,2.282,2.2475,2.0062,1.7455,1.4704,1.3459,1.2336,1.1294,0.0,0.0,0.0,0.0,0.0,0.0,0.0,0.0,0.0,0.0,0.0,0.0,0.0,-0.7413,-0.7211,-0.8047,0.0,0.0,0.0,0.0,0.0,-0.9207,-0.9073,-0.8714,-0.8616,-0.9668,-1.0797,-1.0928,-1.0933,-1.1188,0.0,0.0,0.0,0.0,0.0,0.0,0.0,0.0,0.0,0.0,0.0,0.0,0.0,0.0,0.0,0.0,0.0,0.0,0.0,0.0,0.0,0.0,0.0,0.0,0.0,-2.6172,-2.7268,-2.9458,-3.1443,-3.3123,-3.4369,-3.4767,-3.5533,-3.6573,-3.6753,-3.6843,-3.6946,0.0,-3.7233,-3.6959,-3.7286,-3.7027,-3.6354,-3.5625,-3.4263,-3.2321,-2.9631,-2.7814,-2.6725,0.0,0.0,0.0,0.0,0.0,0.0,0.0,0.0,0.0,0.0,0.0,0.0,0.0,0.0,0.0,0.0,0.0,0.0,0.0,0.0,1.6269,1.7297,1.7176,1.8579,2.179,2.0829,2.013,1.9803,1.9813,1.9556,1.8953,1.5058,1.1964,0.9667,0.7708,0.6434,0.5699,0.4675,0.272,0.0,0.0,0.0,0.0,0.0,0.0,0.0,0.0,0.0,0.0,0.0,0.0,0.0,0.0,0.0,0.0,-0.8461,-0.8143,-0.7907,-0.846,-0.8074,-0.7506,-0.7524,0.0,-0.9614,-0.9796,-0.9422,0.0,0.0,0.0,0.0,0.0,0.0,0.0,0.0,0.0,0.0,0.0,0.0,0.0,0.0,0.0,0.0,0.0,0.0,0.0,0.0,0.0,0.0,0.0,0.0,0.0,0.0,-2.5572,-2.665,-2.89,-2.9106,-3.0171,-3.1935,-3.2699,-3.382,-3.5302,-3.567,-3.5846,-3.6048,-3.6593,-3.6528,-3.6136,-3.6606,-3.6439,-3.5758,-3.5315,-3.4304,-3.2739,-2.9448,-2.7431,-2.6034,0.0,0.0,0.0,0.0,0.0,0.0,0.0,0.0,0.0,0.0,0.0,0.0,0.0,0.0,0.0,0.0,0.0,0.0,0.0,0.0,1.4483,1.6855,1.3561,1.3907,1.8713,1.6642,1.5153,1.4439,1.2503,1.1837,1.2323,0.9529,0.8822,0.9608,0.3019,0.1408,0.333,-0.0947,-0.2306,0.0,0.0,0.0,0.0,0.0,0.0,0.0,0.0,0.0,0.0,0.0,0.0,0.0,0.0,0.0,-0.7419,-0.7574,-0.7467,-0.7466,-0.7907,-0.7408,-0.6815,-0.7196,-0.7835,-0.8382,-0.847,-0.8742,0.0,-1.1206,0.0,0.0,0.0,0.0,0.0,0.0,0.0,0.0,0.0,0.0,0.0,0.0,0.0,0.0,0.0,0.0,0.0,0.0,0.0,0.0,0.0,0.0,0.0,0.0,0.0,-2.4297,-2.5264,-2.5976,-2.8199,-3.1864,-3.2966,-3.3625,-3.3808,-3.52,-3.5771,-3.5859,-3.6061,-3.6136,-3.6109,-3.6149,-3.5709,-3.506,-3.506,-3.3241,-3.066,-2.9613,-2.771,-2.583,0.0,0.0,0.0,0.0,0.0,0.0,0.0,0.0,0.0,0.0,0.0,0.0,0.0,0.0,0.0,0.0,0.0,0.0,0.0,0.0,1.1256,1.1233,0.9915,1.0383,1.2973,1.2209,1.1845,1.2024,1.0556,0.889,0.7046,0.465,0.291,0.1713,-0.0958,-0.1796,-0.1302,-0.3054,-0.3822,-0.3938,0.0,0.0,0.0,0.0,0.0,0.0,0.0,0.0,0.0,0.0,-0.5599,-0.5927,-0.6812,-0.7264,-0.7385,-0.7169,-0.7289,-0.7399,-0.7417,-0.7081,-0.6777,-0.7182,-0.765,0.0,0.0,-0.7369,-0.8296,-1.0269,-1.0654,0.0,0.0,0.0,0.0,0.0,0.0,0.0,0.0,0.0,0.0,0.0,0.0,0.0,0.0,0.0,0.0,0.0,0.0,0.0,0.0,0.0,0.0,0.0,0.0,-2.4115,-2.4884,-2.5693,-2.682,-2.8285,-2.9791,-3.1272,-3.2662,-3.3194,-3.392,-3.4736,-3.5172,-3.5206,-3.5064,-3.5443,-3.5206,-3.4538,-3.3646,-3.2082,-3.0101,-2.8589,-2.743,-2.6532,0.0,0.0,0.0,0.0,0.0,0.0,0.0,0.0,0.0,0.0,0.0,0.0,0.0,0.0,0.0,0.0,0.0,0.0,0.0,0.9598,0.8765,0.7901,0.7144,0.7199,0.8198,0.742,0.7761,0.9324,0.7049,0.4475,0.1647,-0.0518,-0.199,-0.2929,-0.4114,-0.4235,-0.3555,-0.4158,-0.4601,-0.4999,-0.5269,0.0,0.0,0.0,0.0,0.0,0.0,0.0,0.0,0.0,-0.5429,-0.5664,-0.6243,-0.6606,-0.6738,-0.654,-0.6508,-0.6454,-0.6289,-0.6123,-0.6154,-0.6461,0.0,0.0,-0.6408,-0.6756,-0.7627,-0.9112,-0.9925,0.0,0.0,0.0,0.0,0.0,0.0,0.0,0.0,0.0,0.0,0.0,0.0,0.0,0.0,0.0,0.0,0.0,0.0,0.0,0.0,0.0,0.0,0.0,0.0,0.0,-2.4205,-2.5197,-2.5693,-2.5693,-2.741,-2.9176,-3.0991,-3.1713,-3.2513,-3.3484,-3.4319,-3.4523,-3.4353,-3.4842,-3.4763,-3.4217,-3.2821,-3.1701,-3.0633,-2.8495,-2.7474,-2.6999,0.0,0.0,0.0,0.0,0.0,0.0,0.0,0.0,0.0,0.0,0.0,0.0,0.0,0.0,0.0,0.0,0.0,0.0,0.7239,0.7096,0.7329,0.7902,0.5392,0.4287,0.4941,0.2299,0.2523,0.5844,0.098,-0.2269,-0.3972,-0.6008,-0.5364,-0.2599,-0.6294,-0.594,-0.2623,-0.4491,-0.5046,-0.4725,-0.4999,-0.4692,0.0,0.0,0.0,0.0,0.0,0.0,0.0,0.0,-0.5283,-0.5405,-0.5916,-0.5686,-0.5257,-0.5433,-0.4986,-0.4416,-0.4416,-0.4526,-0.4648,0.0,0.0,0.0,-0.6447,-0.7086,-0.7826,-0.7966,0.0,-1.0838,0.0,0.0,0.0,0.0,0.0,0.0,0.0,0.0,0.0,0.0,0.0,0.0,0.0,0.0,0.0,0.0,0.0,0.0,0.0,0.0,0.0,0.0,0.0,0.0,-2.2544,-2.4106,-2.4884,-2.4894,-2.6562,-2.7809,-2.8817,-3.0991,-3.1989,-3.2077,-3.3471,-3.4076,-3.416,-3.4314,-3.4397,-3.4217,-3.2834,-3.2302,-3.204,-2.9624,-2.8049,-2.7094,0.0,0.0,0.0,0.0,0.0,0.0,0.0,0.0,0.0,0.0,0.0,0.0,0.0,0.0,0.0,0.0,0.0,0.0,0.4932,0.479,0.4256,0.3042,0.2282,0.1991,0.2205,0.0762,0.0428,0.1319,-0.1249,-0.3159,-0.4451,-0.5908,-0.5882,-0.4594,-0.5454,-0.4973,-0.363,-0.4398,-0.4728,-0.4725,-0.4999,-0.4906,0.0,0.0,0.0,0.0,0.0,0.0,0.0,0.0,0.0,0.0,-0.4992,-0.52,-0.5391,-0.532,-0.5297,-0.5274,-0.5098,-0.4552,0.0,-0.4682,0.0,0.0,0.0,-0.645,0.0,0.0,0.0,0.0,0.0,0.0,0.0,0.0,0.0,0.0,0.0,0.0,0.0,0.0,0.0,0.0,0.0,0.0,0.0,0.0,0.0,0.0,0.0,0.0,0.0,0.0,0.0,0.0,-2.1404,-2.3211,-2.4313,-2.4894,-2.5984,-2.7231,-2.8724,-3.0079,-3.1169,-3.2077,-3.3129,-3.3823,-3.416,-3.4314,-3.4147,-3.3641,-3.2661,-3.1965,-3.127,-2.8588,-2.7861,-2.7955,0.0,0.0,0.0,0.0,0.0,0.0,0.0,0.0,0.0,0.0,0.0,0.0,0.0,0.0,0.0,0.0,0.0,0.0,0.0,0.0,0.2166,0.1025,0.105,0.0899,0.0514,0.0105,-0.0547,-0.1449,-0.2679,-0.3908,-0.5179,-0.5578,-0.5462,-0.4988,-0.4501,-0.4036,-0.3673,-0.3941,-0.4423,-0.4962,-0.4918,-0.4906,-0.4853,0.0,0.0,0.0,0.0,0.0,0.0,0.0,0.0,0.0,-0.4229,-0.436,-0.4462,-0.4124,-0.3974,-0.3865,-0.3401,-0.2872,0.0,-0.3028,-0.3485,-0.3985,-0.4409,0.0,0.0,0.0,0.0,0.0,0.0,0.0,0.0,0.0,0.0,0.0,0.0,0.0,0.0,0.0,0.0,0.0,0.0,0.0,0.0,0.0,0.0,0.0,0.0,0.0,0.0,0.0,0.0,0.0,-2.1072,-2.2565,-2.3551,-2.4026,-2.4967,-2.6089,-2.7503,-2.8984,-2.9988,-3.08,-3.2239,-3.33,-3.4076,-3.4243,-3.4076,-3.3725,-3.2661,-3.2052,-3.1359,-2.8773,-2.8143,-2.8341,0.0,0.0,0.0,0.0,0.0,0.0,0.0,0.0,0.0,0.0,0.0,0.0,0.0,0.0,0.0,0.0,0.0,0.0,0.0,0.0,0.0943,0.1074,0.1076,0.0644,-0.0266,0.0,-0.0845,-0.2796,-0.3259,-0.4318,-0.5873,-0.5012,-0.4414,-0.4165,-0.363,-0.3348,-0.3245,-0.3406,-0.4193,-0.5215,-0.4843,-0.4823,-0.4935,-0.4784,0.0,0.0,0.0,0.0,0.0,0.0,0.0,0.0,-0.3602,-0.3334,-0.2934,-0.2431,-0.1883,-0.1258,-0.0652,-0.0418,0.0,-0.0575,-0.1222,0.0,-0.3666,-0.4933,0.0,0.0,0.0,0.0,0.0,0.0,0.0,0.0,0.0,0.0,0.0,0.0,0.0,0.0,0.0,0.0,0.0,0.0,0.0,0.0,0.0,0.0,0.0,0.0,0.0,0.0,0.0,0.0,-2.1109,-2.1977,-2.2555,0.0,-2.3671,-2.4602,-2.5377,-2.7639,-2.8713,-2.8899,-3.0979,-3.2673,-3.3907,-3.3907,-3.4063,-3.4147,-3.2834,-3.2227,-3.1952,-2.9532,-2.8724,-2.8538,0.0,0.0,0.0,0.0,0.0,0.0,0.0,0.0,0.0,0.0,0.0,0.0,0.0,0.0,0.0,0.0,0.0,0.0,0.0,0.0,0.0943,0.1074,0.0479,-0.0051,-0.0386,-0.136,-0.2184,-0.2897,-0.2693,-0.3201,-0.4337,-0.3923,-0.3822,-0.4018,-0.3577,-0.3675,-0.4134,-0.4111,-0.4458,-0.4969,-0.4851,-0.4734,-0.464,-0.4266,-0.3912,0.0,0.0,0.0,0.0,0.0,0.0,0.0,-0.3146,-0.3155,-0.3166,-0.3121,-0.2689,-0.2132,-0.1982,-0.1015,0.0,0.0,-0.0821,-0.1976,-0.3413,-0.4533,0.0,0.0,0.0,0.0,0.0,0.0,0.0,0.0,0.0,0.0,0.0,0.0,0.0,0.0,0.0,0.0,0.0,0.0,0.0,0.0,0.0,0.0,0.0,0.0,0.0,0.0,0.0,-1.8346,-1.8641,-2.0611,-2.1977,0.0,-2.2826,-2.342,-2.4282,-2.6702,-2.8566,-2.9897,-3.0508,-3.1412,-3.2413,-3.2575,-3.2932,-3.3202,-3.2413,-3.1813,-3.1282,-2.9371,-2.9187,-2.9463,0.0,0.0,0.0,0.0,0.0,0.0,0.0,0.0,0.0,0.0,0.0,0.0,0.0,0.0,0.0,0.0,0.0,0.0,0.0,0.0,0.1131,0.1291,0.0863,0.0251,-0.0584,-0.1158,-0.1924,-0.2918,-0.2411,-0.2588,-0.3468,-0.317,-0.322,-0.3437,-0.3324,-0.3455,-0.3813,-0.3901,-0.4189,-0.449,-0.4281,-0.4215,-0.4209,-0.3654,-0.3382,-0.3214,-0.2998,0.0,0.0,0.0,0.0,0.0,0.0,0.0,-0.2989,-0.2752,-0.2473,-0.2109,-0.1416,0.0,0.0,0.0087,0.0,-0.2519,-0.3225,-0.4232,0.0,0.0,0.0,0.0,0.0,0.0,0.0,0.0,0.0,0.0,0.0,0.0,0.0,0.0,0.0,0.0,0.0,0.0,0.0,0.0,0.0,0.0,0.0,0.0,0.0,0.0,-1.6246,-1.7498,-1.8162,-2.0005,-2.106,-2.1525,-2.1719,-2.2469,-2.3775,-2.5478,-2.7278,-2.9173,-2.9791,-3.0732,-3.1989,-3.2152,-3.2314,-3.2587,-3.1613,-3.1092,-3.0836,-2.9829,-2.9474,-2.9187,0.0,0.0,0.0,0.0,0.0,0.0,0.0,0.0,0.0,0.0,0.0,0.0,0.0,0.0,0.0,0.0,0.0,0.0,0.0,0.1171,0.1359,0.1474,0.1237,0.058,-0.0552,-0.0679,-0.1304,-0.2546,-0.22,-0.2319,-0.2873,-0.2672,-0.273,-0.2915,-0.3116,-0.3227,-0.3201,-0.3408,-0.3665,-0.3851,-0.3432,-0.3449,-0.3576,-0.3098,-0.2892,-0.2805,-0.2849,-0.2863,-0.2882,-0.2882,0.0,0.0,0.0,0.0,-0.2773,-0.2246,-0.2097,-0.1787,-0.061,0.0,-0.0158,-0.0273,-0.1749,0.0,-0.3221,-0.4029,0.0,0.0,0.0,0.0,0.0,0.0,0.0,0.0,0.0,0.0,0.0,0.0,0.0,0.0,0.0,0.0,0.0,0.0,0.0,0.0,0.0,0.0,0.0,0.0,-1.3238,-1.4274,-1.5501,-1.672,-1.774,-1.9063,-1.982,-2.0011,-2.0525,-2.1671,-2.3362,-2.3895,-2.5442,-2.7692,-2.8478,-2.9781,-3.1173,-3.1268,-3.1468,-3.1556,-3.0687,-3.0272,-3.0181,-3.0023,-2.9371,-2.8445,0.0,0.0,0.0,0.0,0.0,0.0,0.0,0.0,0.0,0.0,0.0,0.2435,0.1135,0.075,0.0,0.0,0.0,0.0,0.0833,0.0,0.0,0.1329,0.0095,-0.029,0.0403,-0.1405,-0.1954,-0.1103,-0.1869,-0.2321,-0.2375,-0.2286,-0.2637,-0.3324,-0.3365,-0.3452,-0.3536,-0.3271,-0.3139,-0.3015,-0.2616,-0.2527,-0.2589,-0.2572,-0.2523,-0.2471,-0.255,-0.2618,-0.2707,-0.2707,-0.2824,0.0,0.0,0.0,0.0,-0.2843,-0.2413,-0.1909,0.0,0.0,-0.0959,0.0,-0.2169,-0.3158,0.0,0.0,0.0,0.0,0.0,0.0,0.0,0.0,0.0,0.0,0.0,0.0,0.0,0.0,0.0,0.0,0.0,0.0,0.0,0.0,0.0,0.0,0.0,0.0,0.0,-1.2764,-1.2856,-1.305,-1.4178,-1.493,-1.5121,-1.6619,-1.7832,-1.868,-1.9862,-2.0841,-2.1689,-2.1779,-2.3451,-2.6149,-2.6319,-2.6979,-2.8043,-2.8366,-2.8813,-2.9317,-2.9579,-2.9382,-2.891,-2.891,-2.8549,-2.7987,0.0,0.0,0.0,0.0,0.0,0.0,0.0,0.0,0.0,0.0,0.0,0.1311,0.0652,0.0558,0.0,0.0,0.0,0.0,0.0589,0.0882,0.0,0.0,0.0177,-0.0089,0.0183,-0.103,-0.1527,-0.1197,-0.1572,-0.1935,-0.2296,-0.224,-0.2563,-0.3294,-0.3423,-0.334,-0.3123,-0.2983,-0.2785,-0.2541,-0.235,-0.2117,-0.196,-0.2237,-0.2177,-0.2043,-0.2444,-0.2637,-0.2694,0.0,0.0,0.0,0.0,0.0,0.0,0.0,-0.2746,-0.2425,-0.2162,-0.2054,-0.2042,0.0,-0.2925,-0.3823,-0.4041,0.0,0.0,0.0,0.0,0.0,0.0,0.0,0.0,0.0,0.0,0.0,0.0,0.0,0.0,0.0,0.0,0.0,0.0,0.0,0.0,0.0,0.0,0.0,-1.1868,-1.1868,-1.2165,-1.2759,-1.3992,-1.4555,-1.4555,-1.5967,-1.7274,-1.8395,-1.972,-2.0645,-2.1356,-2.1356,-2.2466,-2.4395,-2.5273,-2.6129,-2.684,-2.7401,-2.7766,-2.7966,-2.7929,-2.7909,-2.786,-2.7757,-2.7462,-2.703,0.0,0.0,0.0,0.0,0.0,0.0,0.0,0.0,0.0,0.0,0.0,0.0,0.0137,0.0,0.0,0.0,0.0,0.0,0.0423,0.0,0.0,0.0,0.0,0.0042,0.0042,-0.0713,-0.1145,-0.1215,-0.1288,-0.1607,-0.2074,-0.2222,-0.257,-0.3117,-0.3328,-0.3162,-0.2772,-0.2736,-0.2587,-0.2299,-0.2077,-0.1803,-0.1508,-0.1715,-0.1587,-0.1452,-0.1921,-0.2225,0.0,0.0,0.0,0.0,0.0,0.0,0.0,0.0,0.0,0.0,0.0,0.0,-0.3069,-0.3003,-0.3628,-0.4353,0.0,0.0,0.0,0.0,0.0,0.0,0.0,0.0,0.0,0.0,0.0,0.0,0.0,0.0,0.0,0.0,0.0,0.0,0.0,0.0,0.0,0.0,0.0,0.0,-1.0779,-1.1072,-1.157,-1.2365,-1.3511,-1.4178,-1.4178,-1.5507,-1.672,-1.8018,-1.9347,-2.0365,-2.1087,-2.1087,-2.1599,-2.2507,-2.4077,-2.4975,-2.5382,-2.614,-2.6558,-2.648,-2.6441,-2.6525,-2.6647,-2.667,-2.6276,-2.5826,0.0,0.0,0.0,0.0,0.0,0.0,0.0,0.0,0.0,0.0,0.0,0.0,0.0,0.0,0.0,-0.047,0.0,0.0,0.0,0.0,0.0,0.0,0.0,0.0,0.0379,-0.0966,-0.1235,-0.0356,-0.1074,-0.1458,-0.1574,-0.221,-0.2577,-0.2858,-0.3031,-0.294,-0.2691,0.0,0.0,0.0,-0.1634,-0.1281,-0.1199,-0.0769,-0.0527,-0.0472,-0.0633,0.0,0.0,0.0,0.0,0.0,0.0,0.0,0.0,0.0,0.0,0.0,0.0,-0.3556,0.0,-0.3697,-0.3885,0.0,0.0,0.0,0.0,0.0,0.0,0.0,0.0,0.0,0.0,0.0,0.0,0.0,0.0,0.0,0.0,0.0,0.0,0.0,0.0,0.0,0.0,0.0,0.0,0.0,-0.9706,-1.0685,-1.1272,-1.1268,-1.236,-1.2856,-1.2856,-1.4382,-1.569,-1.6994,-1.8311,-1.9446,-2.0382,-2.0382,-2.0391,-2.0499,-2.1989,-2.2618,-2.2665,-2.388,-2.4326,-2.4466,-2.5519,-2.5513,-2.5025,-2.5661,-2.5068,-2.419,0.0,0.0,0.0,0.0,0.0,0.0,0.0,0.0,0.0,0.0,0.0,0.0,0.0,-0.0645,-0.0671,-0.0706,-0.0672,0.0,0.0,0.0,0.0,0.0,0.0,0.0,0.0,-0.0833,-0.0984,-0.0487,-0.0892,-0.1256,-0.1624,-0.207,-0.2434,-0.2751,-0.2979,-0.3003,-0.2905,-0.2697,0.0,0.0,0.0,-0.0825,-0.0164,-0.0314,-0.0165,0.006,0.0,0.0,0.0,0.0,0.0,0.0,0.0,-0.2755,-0.2677,-0.2642,-0.3184,0.0,0.0,0.0,0.0,-0.414,-0.4148,0.0,0.0,0.0,0.0,0.0,0.0,0.0,0.0,0.0,0.0,0.0,0.0,0.0,0.0,0.0,0.0,0.0,0.0,0.0,0.0,0.0,0.0,0.0,0.0,0.0,-0.8517,-0.8909,-0.9501,-1.0194,-1.1175,-1.2068,-1.2764,-1.4088,-1.4937,-1.5494,-1.7554,-1.8772,-1.9147,-1.9911,-2.0292,-2.0292,-2.0817,-2.1347,-2.1802,-2.2653,-2.335,-2.3731,-2.3693,-2.4009,-2.4366,-2.361,-2.3457,-2.374,0.0,0.0,0.0,0.0,0.0,0.0,0.0,0.0,0.0,-0.031,0.0,0.0,0.0,0.0,-0.109,-0.1106,-0.1105,-0.1097,-0.1113,0.0,0.0,0.0,0.0,0.0,0.0,-0.0754,-0.0861,-0.0674,-0.081,-0.1088,-0.1423,-0.191,-0.2237,-0.2483,-0.2741,-0.2883,0.0,0.0,0.0,-0.1571,0.0,0.0,0.0294,0.0233,0.0371,0.0,0.0,0.0,0.0,0.0,0.0,0.0,0.0,-0.2592,-0.2661,-0.2539,-0.3107,0.0,-0.3404,0.0,0.0,0.0,0.0,0.0,0.0,0.0,0.0,0.0,0.0,0.0,0.0,0.0,0.0,0.0,0.0,0.0,0.0,0.0,0.0,0.0,0.0,0.0,0.0,0.0,0.0,0.0,0.0,0.0,-0.7428,-0.7826,-0.8616,-1.0096,-1.0877,-1.1765,-1.2764,-1.3613,-1.4274,-1.4651,-1.6432,-1.7461,-1.7925,-1.9155,-1.972,-1.982,-2.0102,-2.0555,-2.1087,-2.1793,-2.2325,-2.2784,-2.2492,-2.2751,-2.3198,-2.2354,-2.2387,-2.2772,0.0,0.0,0.0,0.0,0.0,0.0,0.0,0.0,-0.0275,-0.0975,0.0,0.0,0.0,0.0,0.0,-0.176,-0.1713,-0.1533,-0.1151,-0.1111,0.0,0.0,0.0,0.0,0.0,-0.0877,-0.089,-0.081,-0.086,-0.0924,-0.0926,-0.1667,-0.1995,-0.2004,-0.2297,-0.2507,-0.2747,0.0,-0.1788,-0.1631,0.0,0.0236,0.0301,0.0,0.0,0.0,0.1136,0.0703,0.0,0.0,0.0,0.0,0.0,-0.2278,-0.2667,-0.2542,-0.3048,-0.3513,0.0,0.0,0.0,0.0,0.0,0.0,0.0,0.0,0.0,0.0,0.0,0.0,0.0,0.0,0.0,0.0,0.0,0.0,0.0,0.0,0.0,0.0,0.0,0.0,0.0,0.0,0.0,0.0,0.0,-0.6437,-0.6437,-0.7428,-0.8909,-1.1072,-1.117,-1.1668,-1.2759,-1.2953,-1.3619,-1.4555,-1.4848,-1.5596,-1.6901,-1.7832,-1.8495,-1.888,-1.982,-2.0292,-2.0382,-2.1087,-2.1356,-2.1445,-2.205,-2.1961,-2.1491,-2.2062,-2.1868,-2.1392,0.0,0.0,0.0,0.0,0.0,0.0575,0.0567,0.0189,-0.0227,0.0,0.0,0.0,-0.1963,-0.206,-0.205,-0.1944,-0.188,-0.1767,-0.1535,-0.1475,-0.1353,-0.1101,-0.1258,-0.1248,-0.1095,-0.1173,-0.1165,-0.1106,-0.1066,-0.1163,-0.133,-0.1652,-0.1875,-0.1988,-0.2225,-0.2166,-0.1928,-0.1755,0.0,-0.1017,-0.0231,0.0432,0.0,0.0,0.0,0.0,0.0,0.1143,0.0908,0.0,0.0067,-0.0364,0.0,0.0,-0.2838,-0.2669,-0.3193,-0.376,-0.3511,0.0,0.0,0.0,0.0,0.0,0.0,0.0,0.0,0.0,0.0,0.0,0.0,0.0,0.0,0.0,0.0,0.0,0.0,0.0,0.0,0.0,0.0,0.0,0.0,0.0,0.0,0.0,-0.5939,-0.6139,-0.6139,-0.6534,-0.7425,-0.881,-0.9604,-1.0587,-1.1668,-1.2462,-1.305,-1.3329,-1.4274,-1.493,-1.5311,-1.6438,-1.7561,-1.8495,-1.8772,-1.9438,-2.0292,-2.0555,-2.0916,-2.1356,-2.0997,-2.1087,-2.1374,-2.1031,-2.0902,-2.0984,0.0,0.0,0.0,0.0,0.0678,0.0624,0.0624,0.0082,-0.0409,0.0,0.0,0.0,-0.2103,-0.2187,-0.2197,-0.2084,-0.2069,-0.1925,-0.1719,-0.1659,-0.1581,-0.1445,-0.1455,-0.1462,-0.1422,-0.1339,-0.1303,-0.1312,-0.1275,-0.1332,-0.1411,-0.1607,-0.1745,-0.1869,-0.1844,-0.1723,-0.1484,-0.1075,0.0,0.0,0.0178,0.0,0.0,0.1145,0.1214,0.0,0.0,0.0,0.121,0.0866,0.0435,0.0,0.0,-0.1873,-0.2481,-0.2705,-0.3141,0.0,-0.3463,0.0,0.0,0.0,0.0,0.0,0.0,0.0,0.0,0.0,0.0,0.0,0.0,0.0,0.0,0.0,0.0,0.0,0.0,0.0,0.0,0.0,0.0,0.0,0.0,0.0,0.0,0.0,-0.5815,-0.6042,-0.6139,-0.6337,-0.6933,-0.7925,-0.8616,-0.9702,-1.117,-1.1863,-1.2365,-1.2764,-1.3516,-1.3896,-1.3992,-1.5216,-1.6156,-1.6994,-1.7554,-1.8211,-1.8872,-1.8972,-1.9521,-2.0348,-2.0283,-2.0275,-2.0348,-2.0283,-2.0437,-2.0634,0.0,0.0,0.1697,0.0859,0.0725,0.0725,0.0729,0.0,-0.0617,0.0,-0.1673,-0.2256,-0.2442,-0.2517,-0.2509,-0.2267,-0.2226,-0.2058,-0.1755,-0.1719,-0.1667,-0.1613,-0.1563,-0.1612,-0.1723,-0.15,-0.1425,-0.1539,-0.153,-0.1452,-0.1346,-0.1554,-0.1621,-0.1621,-0.1304,-0.1178,-0.1188,-0.0289,0.0091,0.0162,0.0731,0.1048,0.0,0.0,0.1357,0.0,0.1343,0.1355,0.1352,0.1319,0.0832,0.0,0.0,-0.112,-0.1822,-0.2544,-0.2873,0.0,-0.3208,-0.3357,0.0,0.0,0.0,0.0,-0.208,-0.2613,0.0,0.0,0.0,0.0,0.0,0.0,0.0,0.0,0.0,0.0,0.0,0.0,0.0,0.0,0.0,0.0,0.0,0.0,-0.5079,-0.5079,-0.5553,-0.6004,-0.6297,-0.641,-0.6813,-0.7803,-0.7915,-0.8909,-1.0877,-1.1072,-1.1668,-1.2662,-1.2759,-1.2861,-1.3147,-1.3992,-1.4561,-1.5038,-1.6156,-1.6713,-1.6901,-1.7102,-1.7762,-1.8696,-1.9629,-1.9446,-1.8696,-1.9637,-2.0011,-2.0011,0.0,0.1388,0.0953,0.0799,0.0803,0.0763,0.0786,0.0294,-0.0245,-0.0746,-0.1733,-0.2464,-0.2719,-0.2632,-0.2586,-0.2532,-0.239,-0.2174,-0.1935,-0.1789,-0.1667,-0.1613,-0.1729,-0.1817,-0.1856,-0.1863,-0.1865,-0.1815,-0.1706,-0.1628,-0.1542,-0.1326,-0.1231,-0.1198,-0.0929,-0.0568,-0.0203,-0.0044,0.0,0.0724,0.0858,0.0,0.1187,0.1439,0.1605,0.1718,0.1898,0.201,0.1939,0.0,0.095,0.0073,0.0,0.0,0.0,-0.2014,0.0,-0.2674,-0.3285,-0.3556,-0.3732,-0.3629,0.0,0.0,0.0,-0.3256,0.0,0.0,0.0,0.0,0.0,0.0,0.0,0.0,0.0,0.0,0.0,0.0,0.0,0.0,0.0,0.0,0.0,0.0,-0.4693,-0.4693,-0.5188,-0.558,-0.5862,-0.6147,-0.6399,-0.6594,-0.7572,-0.8219,-0.8612,-1.0386,-1.1272,-1.1565,-1.2365,-1.2861,-1.2861,-1.305,-1.3709,-1.4651,-1.493,-1.5589,-1.6532,-1.6633,-1.7008,-1.7576,-1.7855,-1.7762,-1.7669,-1.7855,-1.7855,-1.7855,0.1988,0.1456,0.1006,0.0826,0.0786,0.0801,0.0845,0.042,-0.0157,-0.0815,-0.1965,-0.2754,-0.2758,-0.2756,-0.2755,-0.262,-0.2522,-0.2372,-0.2101,-0.1958,-0.1781,-0.1647,-0.1809,-0.1882,-0.1882,-0.197,-0.1972,-0.1882,-0.1753,-0.1593,-0.1343,-0.1177,-0.0794,-0.0217,-0.0291,0.0039,0.0695,0.0454,0.0545,0.0881,0.0956,0.0,0.1315,0.1584,0.1751,0.1854,0.2032,0.2045,0.1956,0.1748,0.1201,0.0,0.0,-0.0139,-0.0678,0.0,-0.2223,-0.261,0.0,-0.3729,-0.3846,-0.3849,0.0,0.0,0.0,0.0,0.0,0.0,0.0,0.0,0.0,0.0,0.0,0.0,0.0,0.0,0.0,0.0,0.0,0.0,0.0,0.0,0.0,0.0,-0.4566,-0.4752,-0.5043,-0.5325,-0.57,-0.5852,-0.608,-0.6176,-0.6713,-0.7356,-0.7909,-0.8975,-0.9803,-1.0391,-1.1473,-1.1965,-1.2063,-1.2565,-1.3141,-1.3709,-1.3806,-1.4184,-1.4848,-1.4943,-1.5134,-1.5514,-1.6626,-1.6915,-1.6633,-1.7102,-1.7296,-1.7296,0.2099,0.1744,0.1374,0.0886,0.0853,0.0929,0.0881,0.0545,-0.0055,-0.0941,-0.1918,-0.2428,-0.2282,-0.2111,-0.1869,-0.1583,-0.1691,-0.1762,-0.1718,-0.1639,-0.1687,-0.1791,-0.1876,-0.1907,-0.1907,-0.198,-0.1923,-0.1777,-0.1667,-0.1381,-0.0976,-0.0919,-0.0358,0.0583,0.0417,0.0662,0.1197,0.0,0.0,0.1245,0.0,0.1343,0.1299,0.1866,0.2041,0.2116,0.25,0.2333,0.1952,0.1721,0.0,0.1048,0.0514,0.0217,0.0,0.0,0.0,0.0,0.0,0.0,0.0,0.0,0.0,-0.3744,0.0,0.0,0.0,-0.4125,0.0,0.0,0.0,0.0,0.0,0.0,0.0,0.0,0.0,0.0,0.0,0.0,0.0,0.0,0.0,0.0,-0.436,-0.482,-0.491,-0.5099,-0.5511,-0.5647,-0.5766,-0.6051,-0.6072,-0.6507,-0.7465,-0.7684,-0.8243,-0.9261,-1.0369,-1.0881,-1.0979,-1.197,-1.2462,-1.2462,-1.2856,-1.305,-1.3055,-1.3249,-1.3346,-1.363,-1.5501,-1.588,-1.5419,-1.6358,-1.664,-1.664,0.1744,0.1789,0.1769,0.0951,0.1134,0.1279,0.0958,0.0822,0.0342,-0.1033,-0.0736,-0.05,-0.0652,0.0642,0.0,0.2083,0.0,0.0,0.017,0.0,-0.0882,-0.2109,-0.204,-0.2003,-0.2003,-0.2013,-0.1771,-0.1281,-0.1274,-0.1026,-0.0572,-0.0247,-0.0037,0.0196,0.1177,0.0,0.0,0.0,0.2011,0.0,0.2403,0.187,0.0,0.2649,0.3209,0.3304,0.386,0.3317,0.2407,0.0,0.1337,0.0579,0.0,0.061,-0.0154,0.0,0.0,0.0,0.0,0.0,0.0,0.0,-0.4056,0.0,0.0,0.0,-0.3881,-0.3693,0.0,0.0,0.0,0.0,0.0,0.0,0.0,0.0,0.0,0.0,0.0,0.0,0.0,0.0,0.0,0.0,0.0,-0.4083,-0.4353,-0.4715,-0.4993,-0.5363,-0.5744,-0.5923,-0.6029,-0.6186,-0.6292,-0.7254,-0.7901,-0.8014,-0.9233,-0.9801,-0.9805,-1.0881,-1.137,-1.1468,-1.2365,-1.2861,-1.2861,-1.2861,-1.2953,-1.3147,-1.3727,-1.3817,-1.3823,-1.4112,-1.431,-1.4304,0.2635,0.2499,0.2398,0.1841,0.1592,0.1445,0.1318,0.0806,0.0,-0.096,-0.1208,-0.1461,0.0,0.0,0.0,0.0,0.0,0.0974,0.0,0.0,-0.0436,-0.1163,-0.1507,-0.1477,-0.1134,-0.1148,-0.1056,-0.0836,-0.0824,-0.0584,-0.0202,-0.0071,0.0385,0.1103,0.1726,0.0,0.2486,0.0,0.2242,0.0,0.0,0.0,0.0,0.3774,0.4495,0.4737,0.5049,0.4295,0.3288,0.0,0.2224,0.0,0.0,0.0,0.0,0.0,0.0,0.0,0.0,0.0,0.0,0.0,0.0,0.0,0.0,0.0,-0.4231,0.0,0.0,0.0,0.0,0.0,0.0,0.0,0.0,0.0,0.0,0.0,0.0,0.0,0.0,0.0,0.0,0.0,0.0,0.0,0.0,-0.4304,-0.4587,-0.4998,-0.5287,-0.5618,-0.5761,-0.5912,-0.5977,-0.6491,-0.6783,-0.6937,-0.8056,-0.8623,-0.8715,-0.9801,-1.0293,-1.0293,-1.0788,-1.0988,-1.0988,-1.0988,-1.1375,-1.196,-1.2155,-1.2748,-1.3539,-1.3642,-1.3642,-1.3636,0.3435,0.3255,0.2971,0.2417,0.2095,0.1891,0.1674,0.0712,-0.0187,-0.0666,0.0,0.0,-0.1802,-0.0633,0.0,0.0,0.197,0.2272,0.0,0.0,0.0589,0.0208,-0.0695,0.0,0.0,-0.0441,-0.0502,-0.0401,-0.0368,-0.0176,0.0176,0.0185,0.0646,0.1524,0.191,0.2572,0.3362,0.0,0.0,0.3452,0.3423,0.3718,0.4292,0.5159,0.5729,0.6074,0.6074,0.5361,0.4345,0.3924,0.2959,0.0,0.1957,0.0,0.0,0.0,0.0,0.0,-0.292,0.0,0.0,0.0,0.0,0.0,0.0,0.0,0.0,0.0,0.0,0.0,0.0,0.0,0.0,0.0,0.0,0.0,0.0,0.0,0.0,0.0,0.0,0.0,0.0,0.0,0.0,0.0,0.0,0.0,-0.4274,-0.4575,-0.4952,-0.532,-0.5536,-0.5681,-0.5855,-0.5888,-0.5994,-0.6168,-0.6997,-0.7469,-0.7572,-0.8696,-0.9209,-0.9209,-0.9509,-0.9608,-0.9608,-0.9608,-1.0096,-1.0779,-1.0779,-1.1473,-1.2457,-1.2845,-1.2948,-1.2942,0.3836,0.3788,0.0,0.2281,0.2628,0.276,0.1905,0.0765,0.0,0.0,0.0,0.0,0.0,0.0,0.0,0.0,0.0,0.6401,0.5451,0.0,0.2561,0.2014,0.0329,-0.0204,0.0,0.0,-0.0306,0.0084,0.008,0.0235,0.0587,0.0657,0.0688,0.0768,0.1617,0.2189,0.2586,0.3344,0.4487,0.5811,0.5741,0.6565,0.7772,0.0,0.6746,0.7051,0.7051,0.0,0.0,0.425,0.3223,0.0,0.0,0.0,0.0,0.0,0.0,0.0,0.0,0.0,0.0,-0.3223,0.0,0.0,0.0,0.0,-0.3537,0.0,0.0,0.0,0.0,0.0,0.0,-0.643,0.0,0.0,0.0,0.0,0.0,0.0,0.0,0.0,0.0,0.0,0.0,0.0,0.0,0.0,-0.4068,-0.4267,-0.4667,-0.5203,-0.5313,-0.5463,-0.5738,-0.5847,-0.5907,-0.5918,-0.625,-0.6368,-0.6374,-0.7569,-0.8021,-0.812,-0.911,-0.9608,-0.9608,-0.9608,-0.9608,-0.9608,-0.9608,-0.9706,-0.9899,-1.1175,-1.1663,-1.156,0.0,0.0,0.0,0.0,0.0,0.2816,0.1961,0.1922,0.0,0.0,0.0,0.0,0.0,0.0,0.5479,0.0,0.0,0.6342,0.6083,0.4281,0.0,0.0,0.0,0.0517,0.0,0.0,0.0489,0.0551,0.0512,0.0543,0.0645,0.0678,0.0711,0.0828,0.1708,0.2707,0.0,0.0,0.0,0.0,0.0,0.7025,0.8191,0.0,0.0,0.812,0.812,0.7496,0.0,0.6147,0.4825,0.3396,0.3538,0.2623,0.1485,0.118,0.0928,0.0,0.0,0.0,-0.0502,-0.1948,0.0,0.0,0.0,0.0,0.0,0.0,0.0,0.0,0.0,0.0,-0.6461,-0.5744,-0.6169,0.0,0.0,0.0,0.0,0.0,0.0,0.0,0.0,0.0,0.0,0.0,0.0,0.0,0.0,-0.3992,-0.4331,-0.4662,-0.4944,-0.5122,-0.528,-0.5315,-0.537,-0.5445,-0.5521,-0.5731,-0.6071,-0.6399,-0.6752,-0.693,-0.7329,-0.7528,-0.7528,-0.7528,-0.7922,-0.8517,-0.8517,-0.9011,-0.9608,-1.0096,-1.0293,-1.0194,0.4212,0.0,0.0,0.0,0.0,0.0,0.0,0.0,0.0,0.0,0.4746,0.0,0.4951,0.0,0.594,0.0,0.6608,0.6888,0.65,0.5193,0.0,0.5012,0.2874,0.0,0.0,0.2229,0.1422,0.1395,0.0958,0.0742,0.075,0.072,0.0742,0.0808,0.0,0.2663,0.4156,0.0,0.4945,0.0,0.0,0.7566,0.0,0.0,0.8463,0.8568,0.0,0.8208,0.7588,0.7228,0.5961,0.4484,0.4349,0.3398,0.2285,0.1898,0.1642,0.1371,0.0421,0.0597,0.0,-0.086,-0.0756,0.0,-0.2216,0.0,0.0,0.0,0.0,0.0,0.0,0.0,0.0,-0.4725,-0.5479,-0.5801,0.0,0.0,0.0,0.0,0.0,0.0,0.0,0.0,-0.3237,-0.3077,0.0,0.0,0.0,0.0,-0.4034,-0.4387,-0.4614,-0.4821,-0.5008,-0.501,-0.5044,-0.5113,-0.5151,-0.5354,-0.5719,-0.5759,-0.5935,-0.6239,-0.6239,-0.6337,-0.6437,-0.6437,-0.6833,-0.7428,-0.7428,-0.7826,-0.8517,-0.8913,-0.8814,-0.8418,0.0,0.0,0.0,0.0,0.3847,0.0,0.0,0.0,0.5507,0.0,0.6342,0.6788,0.7149,0.7309,0.7351,0.7363,0.8144,0.0,0.6902,0.6603,0.0,0.0,0.5045,0.4956,0.5793,0.3661,0.0,0.0,0.1432,0.089,0.0808,0.078,0.0781,0.0808,0.0891,0.0,0.411,0.4149,0.5622,0.7801,0.815,0.8296,0.8321,0.8499,0.0,0.8568,0.8568,0.8568,0.8476,0.7496,0.652,0.563,0.4743,0.3765,0.2952,0.2891,0.2917,0.267,0.1535,0.1198,0.1026,0.008,0.0,0.0,0.0,0.0,-0.1794,0.0,0.0,0.0,0.0,0.0,0.0,-0.3506,-0.4504,-0.5068,0.0,0.0,0.0,0.0,0.0,0.0,0.0,0.0,-0.3276,-0.3025,-0.3107,0.0,0.0,0.0,-0.3774,-0.4284,-0.4402,-0.464,-0.4919,-0.4921,-0.4921,-0.4832,-0.5022,-0.5125,-0.523,-0.5335,-0.5635,-0.5934,-0.5939,-0.6139,-0.6334,-0.6337,-0.6337,-0.6337,-0.6437,-0.6437,-0.6537,-0.7528,-0.7229,-0.6437,0.4654,0.4746,0.4745,0.0,0.445,0.4027,0.0,0.0,0.0,0.0,0.7831,0.9078,0.9518,0.9666,0.9347,0.8707,0.8826,0.0,0.0,0.0,0.0,0.7683,0.5817,0.5133,0.6033,0.3908,0.0,0.2491,0.0,0.0901,0.0892,0.081,0.08,0.0808,0.0,0.0,0.3985,0.4161,0.5659,0.7967,0.8199,0.8373,0.0,0.0,0.8568,0.8568,0.8568,0.8568,0.8568,0.83,0.7584,0.6697,0.6428,0.5275,0.3939,0.3916,0.3395,0.2867,0.248,0.2481,0.2207,0.1108,0.0989,0.0795,0.0,0.0,0.0,0.0,0.0,0.0,0.0,0.0,0.0,0.0,-0.3204,0.0,0.0,0.0,0.0,0.0,0.0,0.0,0.0,0.0,-0.3057,-0.2948,0.0,0.0,0.0,0.0,0.0,-0.3946,-0.4055,-0.3884,-0.3401,-0.4119,-0.3758,-0.2325,-0.315,-0.365,-0.3908,-0.3989,-0.4651,-0.563,-0.5705,-0.5737,-0.5834,-0.6039,-0.6139,-0.6139,-0.6337,-0.6437,-0.6434,-0.6734,-0.6634,-0.6437,0.5136,0.0,0.0,0.5239,0.0,0.0,0.5233,0.0,0.0,0.7715,0.8906,0.0,0.9826,1.0014,0.9897,0.9328,0.9254,0.0,0.0,0.0,0.0,0.7695,0.6836,0.6541,0.6935,0.5134,0.0,0.3257,0.0,0.0,0.0905,0.0808,0.0795,0.0807,0.0,0.1923,0.3753,0.4931,0.6381,0.7923,0.8187,0.0,0.0,0.8568,0.8568,0.8568,0.8568,0.8568,0.8568,0.8568,0.794,0.7139,0.7139,0.6074,0.4921,0.4921,0.421,0.3497,0.3497,0.3232,0.2774,0.2119,0.1989,0.1853,0.0733,0.0408,0.0409,0.0,0.0,0.0,0.0,0.0,0.0,0.0,0.0,0.0,0.0,0.0,0.0,0.0,0.0,0.0,0.0,0.0,0.0,0.0,0.0,0.0,0.0,0.0,0.0,-0.2728,-0.3246,-0.3074,-0.2295,-0.3209,-0.2953,-0.1431,-0.197,-0.2353,-0.2585,-0.2639,-0.3171,-0.4016,-0.3992,-0.4124,-0.4227,-0.4327,-0.4429,-0.4427,-0.4728,-0.4929,-0.5031,-0.5031,-0.5632,-0.6437,0.0,0.0,0.0,0.0,0.0,0.0,0.0,0.8075,0.0,0.9538,0.0,0.9709,0.9315,0.9515,0.9628,0.9628,0.0,0.8958,0.7802,0.8428,0.8368,0.7246,0.7928,0.8264,0.8052,0.6662,0.0,0.0,0.0,0.0,0.1003,0.0993,0.0976,0.0901,0.0,0.0,0.0,0.6088,0.7363,0.0,0.8182,0.8422,0.8568,0.8568,0.8568,0.8568,0.8568,0.8568,0.8568,0.8568,0.8032,0.7316,0.7316,0.6609,0.5897,0.5897,0.5097,0.43,0.43,0.3587,0.2875,0.2875,0.2875,0.2667,0.1711,0.1526,0.1441,0.1272,0.0655,0.0565,0.0,0.0,0.0,0.0,0.0,0.0,0.0,0.0,0.0,0.0,0.0,0.0,0.0,0.0,0.0,0.0,0.0,0.0,0.0,0.0,0.0,-0.1307,-0.2154,0.0,-0.1473,0.0,-0.2238,-0.1253,-0.1253,-0.1265,-0.1381,-0.1318,-0.1536,-0.2049,-0.1994,-0.2114,-0.2316,-0.2315,-0.2415,-0.2416,-0.2618,-0.292,-0.3123,-0.3123,-0.4327,-0.6034,0.0,0.0,0.0,0.0,0.0,0.8707,1.0246,1.0646,1.0631,1.043,1.0755,1.0871,1.0803,1.0049,0.9628,0.9628,0.96,0.0,0.0,0.0,0.0,0.847,0.8637,0.8572,0.8251,0.6994,0.5909,0.0,0.0,0.0,0.1575,0.1855,0.1822,0.1545,0.0,0.0,0.4876,0.652,0.0,0.8,0.8373,0.8536,0.8568,0.8568,0.8568,0.8568,0.8568,0.8568,0.8568,0.8568,0.848,0.83,0.83,0.7676,0.6874,0.6874,0.563,0.43,0.43,0.3587,0.2875,0.2875,0.2875,0.2868,0.2668,0.2663,0.2575,0.2575,0.2436,0.2277,0.2257,0.0,0.0,0.0,0.0,0.0,0.0,0.0,0.0,0.0,0.0,0.0,0.0,0.0,0.0,0.0,0.0,0.0,0.0,0.0,0.0,0.0,0.0,0.0,0.0,0.0,-0.1164,-0.0269,-0.0269,-0.0269,-0.0271,-0.0281,-0.0763,-0.1629,-0.1688,-0.1713,-0.1713,-0.2014,-0.2214,-0.2416,-0.2416,-0.2618,-0.282,-0.282,-0.3222,-0.3927,0.0,0.0,0.0,0.0,0.0,0.0,0.0,1.3069,0.0,1.0855,1.0127,0.9665,0.928,0.9449,0.9628,0.9628,0.9628,0.9592,0.9502,0.9409,0.9279,0.9104,0.8917,0.0,0.8438,0.7578,0.6557,0.55,0.0,0.0,0.2159,0.2311,0.2268,0.2104,0.0,0.4679,0.0,0.0,0.0,0.9261,0.969,0.9588,0.9257,0.9257,0.8999,0.8656,0.874,0.8652,0.8568,0.8568,0.8568,0.8568,0.8568,0.8296,0.7852,0.7852,0.6962,0.5894,0.5808,0.5186,0.4563,0.4387,0.3942,0.3587,0.3587,0.323,0.2875,0.2875,0.2852,0.2678,0.1991,0.13,0.0,0.0,0.0,0.0,0.0,0.0,0.0,0.0,0.0,0.0,0.0,0.0,0.0,0.0,0.0,0.0,0.0,0.0,0.0,0.0,0.0,0.0,0.0,0.0,0.0,0.0718,0.0718,0.0718,0.0719,0.0748,0.0476,0.0095,0.0099,0.0101,0.0,-0.0101,-0.0302,-0.0504,-0.0504,-0.0706,-0.0907,-0.0907,-0.1411,-0.2317,0.0,0.7505,0.0,0.0,1.0678,0.0,1.3127,1.4549,1.4521,1.1754,1.0255,0.9171,0.8328,0.9076,0.9628,0.9628,0.9628,0.9628,0.9628,0.9494,0.9393,0.9356,0.9084,0.8836,0.8625,0.8166,0.734,0.0,0.0,0.0,0.2958,0.2993,0.31,0.0,0.0,0.0,0.0,0.0,0.9997,1.0513,1.0941,1.0804,1.0284,1.0371,0.9772,0.9087,0.917,0.8999,0.874,0.874,0.8656,0.8568,0.8652,0.8656,0.8656,0.8656,0.8116,0.7489,0.7312,0.6691,0.6068,0.5808,0.5186,0.4654,0.4654,0.4032,0.3494,0.3477,0.3362,0.3089,0.2288,0.1757,0.0,0.0,0.0,0.0,0.0,0.0,0.0,0.0,0.0,0.0,0.0,0.0,0.0,0.0,0.0,0.0,0.0,0.0,0.0,0.0,0.0,0.0159,0.0747,0.0,0.0538,0.0,0.1345,0.1436,0.1438,0.1498,0.1526,0.153,0.159,0.1617,0.1617,0.1617,0.1516,0.1313,0.1313,0.1111,0.0909,0.0909,0.0202,-0.0907,0.0,0.0,0.0,0.0,0.0,0.0,0.0,1.4111,1.4364,1.3993,1.3019,1.1956,1.0983,1.0075,0.9628,0.9628,0.9628,0.9628,0.9628,0.9612,0.9531,0.936,0.9324,0.9145,0.8804,0.8597,0.8054,0.0,0.0,0.0,0.0,0.0,0.0,0.0,0.0,0.0,0.0,0.9818,1.0423,1.0995,1.142,1.1627,1.1563,1.1729,1.1225,1.0376,1.0463,0.9951,0.9262,0.9262,0.8915,0.8656,0.8828,0.8911,0.8911,0.8911,0.8201,0.7577,0.7658,0.6953,0.6068,0.6068,0.598,0.5891,0.563,0.5542,0.5422,0.5229,0.5048,0.4751,0.4427,0.3897,0.3297,0.0,0.0,0.0,0.0,0.0,0.0,0.0,0.0,0.0,0.0,0.0,0.0,0.0,0.0,0.0,0.0,0.0,0.0,0.0193,0.0,-0.0077,-0.0868,0.0516,0.0,0.0179,0.0987,0.1436,0.1438,0.1498,0.1526,0.153,0.159,0.1617,0.1617,0.1617,0.1617,0.1516,0.1516,0.1415,0.1212,0.1212,0.0909,0.0606,0.0,0.0,0.0,0.0,0.0,0.0,0.0,1.51,1.4968,1.4394,1.3414,1.2533,1.2145,1.176,1.1473,1.1473,1.0886,1.0788,1.1375,1.0886,1.0849,1.1347,1.0651,1.0508,1.0988,0.991,0.9409,0.0,0.0,0.0,0.0,0.0,0.0,0.0,0.0,0.9833,1.0769,1.1815,1.2413,1.2807,1.3168,1.3105,1.276,1.2845,1.2248,1.1477,1.1563,1.0971,1.012,1.0381,0.9864,0.9003,0.9087,0.9174,0.9174,0.9174,0.899,0.8719,0.8723,0.8368,0.8017,0.7841,0.7224,0.6694,0.6605,0.6074,0.5684,0.5475,0.5266,0.5074,0.4977,0.4591,0.4247,0.0,0.0,0.0,0.0,0.0,0.0,0.0,0.0,0.0,0.0,0.0,0.0,0.0,0.0,0.0,0.0,0.0,0.0,0.0626,0.0,0.0689,0.0314,0.1031,0.1256,0.0807,0.1256,0.1436,0.1438,0.1498,0.1546,0.1582,0.1607,0.1617,0.1617,0.1617,0.1617,0.1617,0.1617,0.1516,0.1415,0.1415,0.1313,0.101,1.2579,0.0,1.2606,0.0,1.4343,1.4559,1.5637,1.5832,1.554,1.4873,1.4088,1.3403,1.2727,1.2727,1.2727,1.2727,1.2047,1.195,1.263,1.2047,1.195,1.2635,1.19,0.0,1.2465,1.1252,1.0845,1.115,0.9708,0.0,0.0,0.0,0.0,0.0,1.0665,1.1434,1.2203,1.3287,1.3845,1.4186,1.4483,1.4314,1.388,1.3964,1.3451,1.2674,1.276,1.2163,1.123,1.1322,1.0636,0.9864,0.9519,0.9345,0.9345,0.9345,0.9519,0.9602,0.9519,0.9432,0.9345,0.917,0.8464,0.7845,0.7757,0.719,0.6576,0.6223,0.6006,0.5848,0.5845,0.5375,0.5072,0.5182,0.0,0.0,0.0,0.0,0.0,0.0,0.1887,0.1241,0.0,0.0,0.0,0.0,0.0,0.0,0.0,0.0,0.0,0.0,0.0,0.0,0.0,0.1461,0.1615,0.1525,0.1525,0.1436,0.1438,0.1498,0.1559,0.1617,0.1617,0.1617,0.1617,0.1617,0.1617,0.1617,0.1617,0.1617,0.1617,0.1617,0.1516,0.1314,1.3734,1.3969,1.4334,1.5576,1.5818,1.5818,1.5832,1.5832,1.5832,1.5737,1.5737,1.4956,1.292,1.2727,1.2727,1.2727,1.2727,1.2727,1.2727,1.2727,1.2727,0.0,0.0,1.2614,1.2471,1.2455,1.2193,1.1477,0.0,0.0,0.9948,0.0,1.0391,1.149,1.16,1.2425,1.3627,1.3872,1.4125,1.4475,1.4915,1.509,1.509,1.5257,1.4824,1.4055,1.4055,1.3451,1.2504,1.158,1.1322,1.1068,0.9946,0.9602,0.9602,0.9602,0.9602,0.9689,0.9951,0.9777,0.9602,0.9602,0.9602,0.9515,0.9345,0.9017,0.8686,0.8155,0.7935,0.7727,0.7488,0.678,0.6059,0.5837,0.0,0.0,0.0,0.0,0.0,0.0,0.2262,0.178,0.1174,0.0,0.0,0.0,0.0,0.0,0.0,0.0,0.0,0.0201,0.0653,0.0,0.0705,0.1718,0.2064,0.1794,0.1794,0.1615,0.1438,0.1498,0.1559,0.1617,0.1617,0.1617,0.1617,0.1617,0.1617,0.1617,0.1617,0.1617,0.1617,0.1617,0.1617,0.1617,1.5194,1.5214,1.5334,1.5717,1.5832,1.5832,1.5832,1.5832,1.5832,1.5832,1.5832,1.554,1.486,1.4765,1.4765,0.0,1.419,1.4094,0.0,1.419,1.4094,1.4765,1.419,1.4052,1.4728,1.3866,1.3656,1.4147,0.0,0.0,0.0,1.1629,1.2387,1.3756,1.3764,1.4309,1.5057,1.5137,1.528,1.5458,1.5639,1.5814,1.598,1.6067,1.5886,1.5712,1.5712,1.5088,1.4203,1.3938,1.2845,1.1569,1.1217,1.0499,0.9864,0.9864,0.9864,0.9864,0.9951,0.9777,0.9602,0.9602,0.9515,0.9345,0.9349,0.9007,0.8734,0.853,0.8251,0.7953,0.7949,0.7561,0.7294,0.7183,0.6275,0.0,0.0,0.0,0.0,0.0,0.0,0.3157,0.0,0.2317,0.0,0.0,0.0,0.0,0.0,0.0,0.0,0.0,0.2473,0.0,0.3595,0.3964,0.4022,0.402,0.402,0.3901,0.3731,0.2209,0.1971,0.2622,0.1919,0.1617,0.1617,0.1617,0.1617,0.1617,0.1617,0.1617,0.1617,0.1617,0.1617,0.1617,1.6021,1.5832,1.5832,1.5832,1.5832,1.5832,1.5832,1.5832,1.5832,1.5832,1.5832,1.5832,1.5832,1.5832,0.0,1.5832,1.5255,1.5159,1.573,1.5255,1.5159,1.5737,1.5159,1.5159,1.5825,0.0,0.0,1.5589,1.4546,1.3946,1.3668,1.3668,1.4203,1.5176,1.5176,1.5308,1.5665,1.5754,1.585,1.6027,1.6116,1.6286,1.6367,1.6367,1.6367,1.6367,1.6367,1.6006,1.5473,1.5109,1.3823,1.235,1.1986,1.1122,1.0143,1.0062,1.0038,1.0038,1.0038,0.9864,0.9777,0.9777,0.9689,0.9501,0.9425,0.9158,0.8905,0.8752,0.84,0.8178,0.8106,0.803,0.7876,0.7804,0.7049,0.663,0.6968,0.0,0.0,0.0,0.0,0.0,0.0,0.3585,0.0,0.0,0.0,0.0,0.0,0.0,0.0,0.3498,0.3932,0.0,0.5056,0.5229,0.5267,0.5176,0.5129,0.5055,0.5029,0.3589,0.3365,0.3925,0.3123,0.2822,0.2822,0.2822,0.2822,0.2822,0.2822,0.2521,0.222,0.222,0.1919,0.1617,1.6218,1.5933,0.0,0.0,1.5832,0.0,1.5832,1.5832,1.5832,1.5832,1.5832,1.5832,1.5832,1.5832,1.5832,1.5832,0.0,0.0,0.0,1.5832,1.5832,1.5832,1.5832,1.5832,1.5832,1.6123,1.6088,1.5906,1.5784,1.5721,1.5789,1.5789,1.5789,1.5789,1.5789,1.5796,1.5817,1.6002,1.6092,1.6092,1.6351,1.6433,1.6433,1.6433,1.6433,1.6433,1.6433,1.6433,1.6344,1.5445,1.4437,1.3513,1.2592,1.1444,1.0338,1.0124,1.0052,1.0038,1.0038,1.0038,1.0038,1.0038,1.0038,0.9899,0.971,0.9502,0.9213,0.8871,0.8581,0.8349,0.8196,0.8111,0.8025,0.7863,0.7547,0.7229,0.7007,0.0,0.0,0.0,0.0,0.0,0.0,0.437,0.4524,0.0,0.0,0.0,0.0,0.0,0.3553,0.4448,0.5072,0.5476,0.5545,0.575,0.5811,0.5638,0.5484,0.5498,0.5509,0.5335,0.5241,0.5329,0.5024,0.4824,0.4824,0.4824,0.4824,0.4824,0.4824,0.4225,0.3324,0.3324,0.2622,0.1717,0.0,0.0,1.5832,1.5832,1.5832,1.5832,1.5832,1.5832,1.5832,1.5832,1.5832,1.5832,1.5832,1.5832,1.5832,1.5832,1.5832,1.5832,1.5832,1.5832,1.5927,1.6123,1.6123,1.6218,1.6393,1.6494,1.6459,1.639,1.6406,1.6345,1.6301,1.6301,1.6385,1.665,1.665,1.6697,1.6914,1.7014,1.7014,1.7014,1.7099,1.7099,1.7099,1.7099,1.7099,1.7099,1.7099,1.7099,1.7006,1.6821,1.6005,1.4996,1.4806,1.3324,1.1449,1.0522,1.0078,1.0038,1.0038,1.0038,1.0038,1.0038,1.0038,1.0024,0.9889,0.9719,0.947,0.9428,0.9124,0.8871,0.8793,0.8508,0.8282,0.8062,0.7684,0.7328,0.6973,0.6844,0.0,0.0,0.6466,0.6413,0.6045,0.6279,0.5996,0.0,0.0,0.0,0.0,0.5364,0.5603,0.6103,0.6401,0.6984,0.7793,0.7921,0.7912,0.7941,0.7079,0.7221,0.8041,0.6328,0.5999,0.6725,0.5824,0.5325,0.5129,0.5129,0.5027,0.4824,0.4824,0.4624,0.4425,0.4425,0.3725,0.2923,1.64,1.6116,1.6021,1.6021,1.6116,1.6109,1.6021,1.6116,1.6109,1.6028,1.6116,1.6116,1.6028,1.6116,1.6204,1.6204,1.6021,1.6021,1.6021,1.6116,1.6211,1.6407,1.6407,1.6494,1.6588,1.6683,1.6871,1.6958,1.6958,1.6872,1.6892,1.6892,1.6985,1.7069,1.7069,1.7165,1.7326,1.7326,1.7326,1.7326,1.7326,1.7326,1.7326,1.7326,1.7326,1.7326,1.7326,1.7326,1.7326,1.7326,1.6549,1.5665,1.5665,1.4433,1.2808,1.2135,1.114,1.0078,0.9979,1.0038,1.0038,1.0038,1.0038,1.0038,1.0038,0.9795,0.9559,0.9559,0.9389,0.9133,0.9044,0.8852,0.8525,0.8161,0.787,0.7522,0.7121,0.6958,0.0,0.6817,0.6986,0.7077,0.6966,0.7118,0.6969,0.626,0.0,0.0,0.6462,0.6771,0.7077,0.7187,0.7431,0.7943,0.8564,0.8568,0.8653,0.882,0.8255,0.8419,0.9168,0.7858,0.7528,0.8028,0.7325,0.7024,0.6825,0.6728,0.6528,0.6426,0.6329,0.5929,0.5529,0.5529,0.4826,0.4024,1.6878,1.6595,1.6218,1.6218,1.6407,1.6494,1.6312,1.6494,1.6494,1.6312,1.6494,1.6494,1.6319,1.6494,1.6588,1.6588,1.6407,1.6319,1.6218,1.6494,1.6588,1.6683,1.6683,1.6683,1.6683,1.6972,1.7153,1.7326,1.7326,1.7326,1.7326,1.7326,1.7326,1.7326,1.7326,1.7326,1.7326,1.7326,1.7326,1.7326,1.7326,1.7326,1.7326,1.7326,1.7326,1.7326,1.7326,1.7326,1.7326,1.7326,1.6756,1.5988,1.5988,1.5256,1.431,1.4272,1.2654,1.0756,1.0587,1.0318,1.0125,1.0038,1.0038,1.0038,1.0038,0.9819,0.9691,0.9691,0.9521,0.9313,0.9105,0.9044,0.8801,0.8208,0.8015,0.7756,0.7287,0.0,0.7034,0.7005,0.7215,0.7389,0.7445,0.7597,0.7668,0.7496,0.7618,0.772,0.0,0.7959,0.8069,0.7922,0.8158,0.8406,0.8564,0.8568,0.8666,0.8865,0.9023,0.9202,0.9401,0.9265,0.9232,0.9232,0.9027,0.8924,0.8825,0.863,0.8531,0.8432,0.8237,0.7537,0.6734,0.6734,0.6029,0.5024,1.6683,1.6588,1.6494,1.6494,1.6581,1.6588,1.6494,1.6581,1.6588,1.6494,1.6581,1.6588,1.6494,1.6588,1.6588,1.6588,1.6784,1.6784,1.6588,1.6588,1.6683,1.6885,1.6979,1.7066,1.7239,1.7239,1.7239,1.7326,1.7326,1.7326,1.7326,1.7326,1.7326,1.7326,1.7326,1.7326,1.7326,1.7326,1.7326,1.7326,1.7326,1.7326,1.7326,1.7326,1.7326,1.7326,1.7326,1.7326,1.7326,1.7326,1.7232,1.7044,1.7044,1.6337,1.5497,1.5352,1.4383,1.3285,1.2798,1.1902,1.0895,1.0207,1.0038,1.0038,1.0038,0.9927,0.9904,0.9904,0.9743,0.953,0.9318,0.9138,0.8826,0.8226,0.8182,0.8013,0.7323,0.0,0.7812,0.7429,0.7886,0.8204,0.8251,0.8378,0.8486,0.8506,0.8473,0.8508,0.8508,0.8546,0.8484,0.8455,0.8496,0.8536,0.8568,0.8568,0.8731,0.9056,0.9084,0.9271,0.9587,0.9517,0.9529,0.9529,0.9529,0.9331,0.9133,0.9133,0.8931,0.8726,0.8726,0.8428,0.8134,0.8134,0.7232,0.6234,1.6958,1.6864,1.6777,1.6784,1.6871,1.6958,1.6784,1.6871,1.6958,1.6784,1.6871,1.6965,1.6784,1.6871,1.6958,1.6958,1.7059,1.7153,1.6958,1.6958,1.7052,1.7153,1.7153,1.7239,1.7326,1.7326,1.7326,1.7326,1.7326,1.7326,1.7326,1.7326,1.7326,1.7326,1.7326,1.7326,1.7326,1.7326,1.7326,1.7326,1.7326,1.7326,1.7326,1.7326,1.7326,1.7326,1.7326,1.7326,1.7326,1.7326,1.7326,1.7326,1.7326,1.6951,1.6633,1.6493,1.5193,1.3793,1.3536,1.2921,1.2203,1.1854,1.1581,1.1488,1.1488,1.1488,1.1488,1.1488,1.1401,1.1248,1.1007,1.0374,0.9917,1.0066,0.95,0.0,0.0,0.9243,0.9411,0.8793,0.9092,0.9332,0.9497,0.9032,0.8764,0.8841,0.9241,0.9534,0.9649,0.9578,0.9597,0.9709,0.8952,0.8568,0.8568,0.8658,0.8836,0.91,0.9194,0.9372,0.9628,0.9628,0.9628,0.9628,0.9628,0.9529,0.943,0.9236,0.9133,0.9031,0.8825,0.8726,0.8627,0.8627,0.8131,0.7534,1.7239,1.7044,1.6958,1.7066,1.7246,1.7239,1.7066,1.7246,1.7239,1.7066,1.7239,1.7239,1.7066,1.7239,1.7326,1.7326,1.7326,1.7326,1.7326,1.7326,1.7326,1.7326,1.7326,1.7326,1.7326,1.7326,1.7326,1.7326,1.7326,1.7326,1.7326,1.7326,1.7326,1.7326,1.7326,1.7326,1.7326,1.7326,1.7326,1.7326,1.7326,1.7326,1.7326,1.7326,1.7326,1.7326,1.7326,1.7326,1.7326,1.7326,1.7326,1.7326,1.7326,1.7326,1.7326,1.7326,1.5948,1.4468,1.4126,1.3817,1.351,1.3267,1.3009,1.2839,1.2687,1.2674,1.2674,1.2674,1.2674,1.2681,1.2425,1.1717,1.1244,1.1713,0.0,0.0,0.0,1.0783,1.1041,1.0377,1.048,1.0686,1.086,1.0095,0.9712,0.9873,1.0357,1.076,1.0947,1.0873,1.0874,1.088,0.9428,0.8652,0.8568,0.8735,0.8913,0.91,0.9275,0.9449,0.9628,0.9628,0.9628,0.9628,0.9628,0.9628,0.9628,0.9335,0.9335,0.9232,0.9027,0.8928,0.8928,0.8928,0.873,0.8531,1.7326,1.7232,1.7232,1.7232,1.7333,1.7326,1.7232,1.7333,1.7326,1.7232,1.7333,1.7326,1.7232,1.7333,1.7326,1.7326,1.7326,1.7326,1.7326,1.7326,1.7326,1.7326,1.7326,1.7326,1.7326,1.7326,1.7326,1.7326,1.7326,1.7326,1.7326,1.7326,1.7326,1.7326,1.7326,1.7326,1.7326,1.7326,1.7326,1.7326,1.7326,1.7326,1.7326,1.7326,1.7326,1.7326,1.7326,1.7326,1.7326,1.7326,1.7326,1.7326,1.7326,1.7326,1.7326,1.7326,1.7196,1.6815,1.5695,1.5124,1.4563,1.3492,1.3148,1.3069,1.2729,1.2674,1.2674,1.2674,1.2674,1.2681,1.2425,1.2359,1.2176,1.1821,0.0,0.0,1.1372,1.1682,1.1915,1.1658,1.2018,1.2264,1.2264,1.2308,1.2445,1.2445,1.2445,1.2541,1.2559,1.2298,1.2054,1.1901,0.9941,0.8828,0.8568,0.8735,0.8913,0.91,0.9275,0.9449,0.9628,0.9628,0.9628,0.9628,0.9628,0.9628,0.9628,0.9529,0.9529,0.9529,0.9529,0.943,0.9133,0.9133,0.9031,0.8726,1.7326,1.7326,1.7326,1.7326,1.7326,1.7326,1.7326,1.7326,1.7326,1.7326,1.7326,1.7326,1.7326,1.7326,1.7326,1.7326,1.7326,1.7326,1.7326,1.7326,1.7326,1.7326,1.7326,1.7326,1.7326,1.7326,1.7326,1.7326,1.7326,1.7326,1.7326,1.7971,1.7878,1.7326,1.8603,1.8419,1.7326,1.7971,1.7878,1.7326,1.7326,1.7326,1.7326,1.7326,1.7326,1.7326,1.7326,1.7326,1.7326,1.7326,1.7326,1.7326,1.7326,1.7326,1.7326,1.7527,1.7527,1.7404,1.7001,1.655,1.609,1.5604,1.5205,1.4815,1.4699,1.4528,1.4391,1.4391,1.4391,1.4357,1.4248,1.3658,1.3356,1.398,0.0,1.285,1.2811,1.3393,1.3661,1.3054,1.3225,1.3464,1.3464,1.2959,1.2674,1.2674,1.3275,1.3535,1.3535,1.3451,1.3021,1.2242,1.1391,1.1034,1.1004,1.105,1.1181,1.1402,1.1436,1.1196,1.0592,1.1277,1.1179,1.0592,1.0592,1.0592,1.0498,0.9916,0.9628,0.9628,0.9628,0.9529,0.943,0.943,0.9232,0.9031,1.7326,1.7326,1.7326,1.7326,1.7326,1.7326,1.7326,1.7326,1.7326,1.7326,1.7326,1.7326,1.7326,1.7326,1.7326,1.7326,1.7326,1.7326,1.7326,1.7326,1.7326,1.7326,1.7326,1.7326,1.7326,1.7326,1.7326,1.7326,1.7326,1.7419,1.7785,1.8149,1.8334,1.8241,1.933,1.9147,1.8241,1.8603,1.8427,1.7785,1.7419,1.7326,1.7326,1.7326,1.7326,1.7326,1.7326,1.7326,1.7326,1.7326,1.7326,1.7326,1.7326,1.7326,1.7333,1.7527,1.7628,1.7721,1.7721,1.7457,1.7256,1.697,1.6625,1.6271,1.6082,1.5811,1.5654,1.5654,1.5664,1.5597,1.5597,1.4896,1.4571,1.5387,1.4636,1.4026,1.4234,1.4678,1.4849,1.4262,1.4358,1.4482,1.4482,1.3964,1.3535,1.3535,1.4139,1.4482,1.4482,1.4482,1.4139,1.3275,1.3275,1.3446,1.3718,1.2925,1.2595,1.2841,1.2805,1.2436,1.1658,1.2436,1.2339,1.1658,1.1658,1.1463,1.117,1.0792,1.0212,0.9628,1.0015,0.992,0.9628,0.9628,0.9529,0.9335,1.7326,1.7326,1.7326,1.7326,1.7326,1.7326,1.7326,1.7326,1.7326,1.7326,1.7326,1.7326,1.7326,1.7326,1.7326,1.7326,1.7326,1.7326,1.7326,1.7326,1.7326,1.7326,1.7326,1.7326,1.7326,1.7326,1.7326,1.7326,1.7326,1.7785,1.8796,1.7785,1.8326,2.0141,1.9239,1.933,2.0141,1.9239,1.8788,1.8703,1.7692,1.7326,1.7326,1.7326,1.7326,1.7326,1.7326,1.7326,1.7326,1.7326,1.7326,1.7326,1.7326,1.7326,1.7326,1.7333,1.7527,1.7729,1.7729,1.7908,1.791,1.712,1.7039,1.7048,1.6536,1.6292,1.6234,1.6234,1.6156,1.6095,1.6095,1.5914,1.5741,1.5733,1.5499,1.5431,1.5431,1.5431,1.5431,1.5431,1.5431,1.5431,1.5431,1.5431,1.5431,1.5431,1.5431,1.5431,1.5431,1.5431,1.5431,1.5431,1.5431,1.5738,1.636,1.3923,1.2779,1.2841,1.3003,1.3022,1.2727,1.2727,1.2727,1.2732,1.2732,1.2145,1.1268,1.2339,1.1473,0.9723,1.0788,1.0596,0.9628,0.9628,0.9628,0.9628,1.7326,1.7326,1.7326,1.7326,1.7326,1.7326,1.7326,1.7326,1.7326,1.7326,1.7326,1.7326,1.7326,1.7326,1.7326,1.7326,1.7326,1.7326,1.7326,1.7326,1.7326,1.7326,1.7326,1.7326,1.7326,1.7326,1.7326,1.7326,1.7326,1.7419,1.7785,1.8149,1.8696,1.9239,2.0331,2.0602,2.0232,2.0692,2.0421,1.9695,1.8696,1.8334,1.8241,1.7598,1.7326,1.7326,1.7326,1.7326,1.7326,1.7326,1.7326,1.7326,1.7326,1.7426,1.7621,1.7807,1.8094,1.8295,1.8295,1.8373,1.8434,1.7864,1.7576,1.7462,1.7274,1.6987,1.6832,1.6832,1.6843,1.6713,1.6484,1.6361,1.6278,1.6035,1.5922,1.5839,1.5658,1.5575,1.5582,1.5431,1.5431,1.5431,1.5431,1.5431,1.5431,1.5431,1.5431,1.5431,1.5431,1.5431,1.5431,1.5431,1.565,1.5965,1.6367,1.5473,1.5281,1.5779,1.5582,1.514,1.4364,1.486,1.4765,1.4082,1.4082,1.3884,1.359,1.3392,1.2818,1.2052,1.2441,1.1755,1.0788,1.1565,1.137,1.069,1.7326,1.7326,1.7419,1.7785,1.7606,1.7598,1.8326,1.8149,1.8064,1.8419,1.8149,1.7878,1.7878,1.7878,1.7692,1.7326,1.7326,1.7326,1.7326,1.7326,1.7326,1.7326,1.7326,1.7326,1.7326,1.7326,1.7326,1.7326,1.7326,1.7512,1.7878,1.8149,1.8788,1.9968,2.0782,2.1239,2.132,2.1596,2.1329,2.0692,1.9786,1.933,1.933,1.8696,1.8241,1.7878,1.7878,1.7598,1.7333,1.7426,1.752,1.7613,1.7613,1.7986,1.8357,1.8179,1.855,1.9012,1.8566,1.8658,1.8735,1.8458,1.8118,1.7972,1.7781,1.7604,1.7455,1.7455,1.7427,1.7272,1.7079,1.7048,1.6854,1.6507,1.6369,1.6156,1.5929,1.5824,1.5741,1.5582,1.5499,1.5506,1.5431,1.5431,1.5431,1.5431,1.5431,1.5431,1.5431,1.5555,1.5782,1.6179,1.6505,1.7014,1.7777,1.7609,1.7357,1.6979,1.6878,1.6393,1.5622,1.6116,1.6015,1.5425,1.5425,1.5235,1.4848,1.4746,1.4166,1.3307,1.3692,1.3113,1.2047,1.263,1.2436,1.1755,1.7598,1.7598,1.7878,1.8788,1.8149,1.8149,1.996,1.9513,1.9239,2.0051,1.9422,1.8972,1.8972,1.8972,1.8519,1.7598,1.7598,1.7598,1.7598,1.7598,1.7505,1.7419,1.7512,1.7505,1.7419,1.7326,1.7326,1.7419,1.7419,1.7878,1.8611,1.7785,1.8872,2.1418,2.0602,2.123,2.296,2.2148,2.1784,2.1695,2.0782,2.0322,2.0322,2.0232,1.9695,1.8972,1.8972,1.8326,1.7598,1.7807,1.8001,1.8087,1.8087,1.8719,1.9263,1.8365,1.8988,1.972,1.8743,1.8743,1.9004,1.892,1.8835,1.8658,1.8365,1.8117,1.7998,1.8081,1.8,1.7858,1.7826,1.7652,1.7462,1.7017,1.68,1.6615,1.6308,1.6148,1.6042,1.5786,1.5756,1.5658,1.5423,1.5423,1.5431,1.5431,1.5452,1.5474,1.5474,1.5867,1.645,1.7254,1.7768,1.8543,1.9675,1.9806,1.8929,1.716,1.716,1.6972,1.6676,1.6683,1.6683,1.6683,1.6683,1.6103,1.5235,1.6292,1.5514,1.3872,1.4848,1.437,1.3312,1.3409,1.3216,1.2727,1.9596,1.9596,1.9596,1.9869,1.9695,1.9687,2.0141,2.0051,1.9968,2.0141,2.0051,1.9869,1.9869,1.9869,1.9778,1.9596,1.9596,1.9596,1.9596,1.9778,1.9422,1.8519,1.9422,1.9422,1.8519,1.7692,1.7692,1.8519,1.8519,1.8149,1.7598,1.8241,1.8788,1.9422,1.9968,2.0872,2.2059,2.2599,2.2775,2.2687,2.1784,2.1329,2.1329,2.0503,2.0051,1.996,2.0141,2.0051,1.9778,1.9255,1.8627,1.8087,1.8087,1.8365,1.8658,1.8473,1.9279,1.9985,1.9012,1.9911,2.0889,2.0167,2.0529,2.0799,1.9985,1.9214,1.88,1.9595,1.9183,1.8518,1.824,1.8184,1.7984,1.7628,1.7573,1.7471,1.7235,1.69,1.6638,1.6399,1.5981,1.565,1.5658,1.5658,1.5741,1.5922,1.6171,1.6314,1.6314,1.722,1.7486,1.6972,1.8504,1.9159,1.8613,1.9608,1.953,1.8434,1.8434,1.7971,1.7145,1.6972,1.6878,1.6878,1.6878,1.6784,1.6588,1.6958,1.6763,1.6298,1.6494,1.5724,1.4657,1.5527,1.5235,1.4465,2.0232,2.0322,2.0503,2.0872,2.0503,2.0503,2.1409,2.123,2.106,2.1498,2.123,2.0872,2.0872,2.0962,2.1132,2.1221,2.0764,2.0494,2.0494,2.0674,2.0494,1.9861,2.0314,2.0593,2.0503,1.9413,1.9055,1.9513,1.9513,1.9239,1.8688,1.9239,1.9695,2.024,2.0692,2.1418,2.2413,2.2872,2.3135,2.3047,2.2599,2.2334,2.2325,2.1774,2.132,2.0962,2.1051,2.0962,2.0683,1.9977,1.9446,1.908,1.8542,1.918,1.982,1.8928,1.9729,2.0619,1.918,1.9546,2.0167,1.972,1.9994,2.0348,2.0339,2.0257,2.0175,2.0249,2.0257,2.0116,1.9911,1.9877,1.9669,1.8858,1.8712,1.8567,1.8316,1.812,1.7912,1.775,1.7403,1.7038,1.646,1.6375,1.646,1.656,1.6721,1.682,1.682,1.7914,1.8274,1.776,1.9318,1.986,1.9224,1.9867,1.996,1.9422,1.8972,1.8519,1.7971,1.7426,1.7153,1.7153,1.7153,1.7153,1.7153,1.7239,1.7239,1.7153,1.7153,1.6676,1.6008,1.6588,1.6008,1.4949,2.0863,2.0953,2.132,2.1961,2.1409,2.132,2.295,2.2589,2.2325,2.3135,2.2501,2.205,2.205,2.2217,2.2394,2.258,2.1845,2.1391,2.1391,2.148,2.1382,2.1212,2.1221,2.1587,2.2394,2.1587,2.0953,2.0593,2.0593,2.0503,2.0322,2.0503,2.0962,2.1596,2.1784,2.2236,2.296,2.3135,2.3222,2.3222,2.3222,2.3222,2.3222,2.3222,2.2775,2.205,2.2148,2.1774,2.1311,2.0692,2.052,2.0439,1.9546,2.0439,2.1427,1.9812,2.0529,2.1507,1.9538,1.9455,1.972,1.9363,1.9546,1.9985,2.061,2.115,2.1248,2.0709,2.115,2.1695,2.1516,2.1606,2.1318,2.0024,1.9972,1.9948,1.9627,1.9617,1.9479,1.9299,1.9239,1.8776,1.7755,1.7668,1.7668,1.766,1.7723,1.7755,1.7755,1.8789,1.9343,1.9173,2.0257,2.0683,2.0232,2.0413,2.0413,2.0413,1.9513,1.9063,1.8972,1.7971,1.7606,1.7505,1.7326,1.7326,1.7326,1.7326,1.7326,1.7326,1.7326,1.7246,1.7073,1.7073,1.6298,1.533,2.3299,2.3299,2.3387,2.3484,2.3387,2.3387,2.3667,2.358,2.357,2.3667,2.357,2.3484,2.3484,2.357,2.357,2.357,2.3474,2.3387,2.3387,2.3657,2.3299,2.2208,2.3202,2.3299,2.2394,2.3028,2.2931,2.212,2.212,2.1667,2.0845,2.1667,2.1667,2.1033,2.1943,2.2403,2.258,2.3396,2.3754,2.3754,2.3754,2.3754,2.3754,2.3754,2.3657,2.357,2.3754,2.3387,2.2824,2.2736,2.2129,2.1516,2.1338,2.1516,2.1606,2.1427,2.2041,2.2482,2.061,2.1863,2.3377,2.1695,2.2492,2.3551,2.2921,2.1587,2.0701,2.1338,2.1606,2.1427,2.061,2.115,2.1409,2.0369,2.0899,2.1416,2.1362,2.114,2.0921,2.0921,2.0431,2.0054,1.9885,1.9885,1.996,2.012,2.0454,2.0652,2.0652,2.0855,2.0971,2.0953,2.1569,2.1418,2.0593,2.115,2.1507,2.1516,2.0512,2.0051,1.996,1.9063,1.8603,1.8519,1.7692,1.7326,1.7326,1.7326,1.7326,1.7326,1.7326,1.7232,1.7239,1.7239,1.7052,1.669,2.3841,2.3927,2.4024,2.3841,2.3841,2.3841,2.3841,2.3841,2.3841,2.3841,2.3841,2.3841,2.3841,2.3927,2.411,2.4186,2.4196,2.4196,2.4196,2.4282,2.41,2.356,2.4013,2.4013,2.356,2.3841,2.3841,2.356,2.3299,2.2931,2.2561,2.294,2.2931,2.257,2.3018,2.3202,2.3212,2.3657,2.3841,2.3841,2.3841,2.3841,2.3841,2.3841,2.3841,2.3841,2.411,2.4024,2.3647,2.328,2.2833,2.2394,2.1872,2.2041,2.2394,2.1872,2.2394,2.2824,2.1418,2.1952,2.2765,2.1872,2.2315,2.2853,2.2394,2.212,2.1854,2.1695,2.2492,2.2853,2.1329,2.2315,2.2755,2.1329,2.1863,2.2482,2.2482,2.232,2.2293,2.2293,2.1525,2.1067,2.1067,2.1067,2.1154,2.124,2.1406,2.1517,2.1517,2.2026,2.2022,2.1293,2.2022,2.1943,2.0764,2.1123,2.1489,2.1863,2.1409,2.1141,2.0962,2.0051,1.9604,1.9604,1.9147,1.8603,1.8149,1.8149,1.7785,1.7326,1.7326,1.7326,1.7326,1.7326,1.7239,1.7153]}]]